[[{"header":{"parameterUnit":"m.s-1","parameterCategory":1,"la1":30.6,"la2":29.2853,"lo1":-89.7004,"lo2":-87.6739,"dy":0.0162,"dx":0.0183,"nx":112,"ny":82,"refTime":"2025-04-13T18:00:00:Z","depth":0,"parameterNumber":2,"parameterNumberName":"U-component_of_WINDS"},"data":[0.0,0.0,0.0,0.0,0.0,0.0,0.0,0.0,0.0,0.0,0.0,0.0,0.0,0.0,0.0,0.0,0.0,0.0,0.0,0.0,0.0,0.0,0.0,0.0,0.0,0.0,0.0,0.0,0.0,0.0,0.0,0.0,0.0,0.0,0.0,0.0,0.0,0.0,0.0,0.0,0.0,0.0,0.0,0.0,0.0,0.0,0.0,0.0,0.0,0.0,0.0,0.0,0.0,0.0,0.0,0.0,0.0,0.0,0.0,0.0,0.0,0.0,0.0,0.0,0.0,0.0,0.0,0.0,0.0,0.0,0.0,0.0,0.0,0.0,0.0,0.0,0.0,0.0,0.0,0.0,0.0,0.0,0.0,0.0,0.0,0.0,0.0,0.0,0.0,0.0,0.0,2.6514,2.821,2.9272,2.9272,2.9082,2.7865,2.5351,0.0,0.0,0.0,0.0,0.0,0.0,0.0,0.0,0.0,0.0,0.0,0.0,0.0,0.0,0.0,0.0,0.0,0.0,0.0,0.0,0.0,0.0,0.0,0.0,0.0,0.0,0.0,0.0,0.0,0.0,0.0,0.0,0.0,0.0,0.0,0.0,0.0,0.0,0.0,0.0,0.0,0.0,0.0,0.0,0.0,0.0,0.0,0.0,0.0,0.0,0.0,0.0,0.0,0.0,0.0,0.0,0.0,0.0,0.0,0.0,0.0,0.0,0.0,0.0,0.0,0.0,0.0,0.0,0.0,0.0,0.0,0.0,0.0,0.0,0.0,0.0,0.0,0.0,0.0,0.0,0.0,0.0,0.0,0.0,0.0,0.0,0.0,0.0,0.0,0.0,0.0,0.0,0.0,0.0,0.0,0.0,0.0,0.0,0.0,0.0,0.0,0.0,0.0,0.0,2.5471,2.918,2.9844,3.0034,3.0034,2.8959,2.738,2.5319,0.0,0.0,0.0,0.0,0.0,0.0,0.0,0.0,0.0,0.0,0.0,0.0,0.0,0.0,0.0,0.0,0.0,0.0,0.0,0.0,0.0,0.0,0.0,0.0,0.0,0.0,0.0,0.0,0.0,0.0,0.0,0.0,0.0,0.0,0.0,0.0,0.0,0.0,0.0,0.0,0.0,0.0,0.0,0.0,0.0,0.0,0.0,0.0,0.0,0.0,0.0,0.0,0.0,0.0,0.0,0.0,0.0,0.0,0.0,0.0,0.0,0.0,0.0,0.0,0.0,0.0,0.0,0.0,0.0,0.0,0.0,0.0,0.0,0.0,0.0,0.0,0.0,0.0,0.0,0.0,0.0,0.0,0.0,0.0,0.0,0.0,0.0,0.0,0.0,0.0,0.0,0.0,0.0,0.0,0.0,0.0,0.0,0.0,0.0,0.0,0.0,0.0,0.0,2.5598,2.7367,3.0433,3.1109,3.1026,3.0255,2.9591,2.8044,2.5274,2.3889,0.0,0.0,0.0,0.0,0.0,0.0,0.0,0.0,0.0,0.0,0.0,0.0,0.0,0.0,0.0,0.0,0.0,0.0,0.0,0.0,0.0,0.0,0.0,0.0,0.0,0.0,0.0,0.0,0.0,0.0,0.0,0.0,0.0,0.0,0.0,0.0,0.0,0.0,0.0,0.0,0.0,0.0,0.0,0.0,0.0,0.0,0.0,0.0,0.0,0.0,0.0,0.0,0.0,0.0,0.0,0.0,0.0,0.0,0.0,0.0,0.0,0.0,0.0,0.0,0.0,0.0,0.0,0.0,0.0,0.0,0.0,0.0,0.0,0.0,0.0,0.0,0.0,0.0,0.0,0.0,0.0,0.0,0.0,0.0,0.0,0.0,0.0,0.0,0.0,0.0,0.0,0.0,0.0,0.0,0.0,0.0,0.0,0.0,0.0,0.0,0.0,0.0,2.858,2.9813,3.1716,3.2279,3.2038,3.0805,3.0109,2.837,2.5217,2.3474,0.0,0.0,0.0,0.0,0.0,0.0,0.0,0.0,0.0,0.0,0.0,0.0,0.0,0.0,0.0,0.0,0.0,0.0,0.0,0.0,0.0,0.0,0.0,0.0,0.0,0.0,0.0,0.0,0.0,0.0,0.0,0.0,0.0,0.0,0.0,0.0,0.0,0.0,0.0,0.0,0.0,0.0,0.0,0.0,0.0,0.0,0.0,0.0,0.0,0.0,0.0,0.0,0.0,0.0,0.0,0.0,0.0,0.0,0.0,0.0,0.0,0.0,0.0,0.0,0.0,0.0,0.0,0.0,0.0,0.0,0.0,0.0,0.0,0.0,0.0,0.0,0.0,0.0,0.0,0.0,0.0,0.0,0.0,0.0,0.0,0.0,0.0,0.0,0.0,0.0,0.0,0.0,0.0,0.0,0.0,0.0,0.0,0.0,0.0,0.0,0.0,0.0,3.0002,3.2544,3.3923,3.3561,3.2942,3.2196,2.9749,2.7315,2.5154,2.2464,0.0,0.0,0.0,0.0,0.0,0.0,0.0,0.0,0.0,0.0,0.0,0.0,0.0,0.0,0.0,0.0,0.0,0.0,0.0,0.0,0.0,0.0,0.0,0.0,0.0,0.0,0.0,0.0,0.0,0.0,0.0,0.0,0.0,0.0,0.0,0.0,0.0,0.0,0.0,0.0,0.0,0.0,0.0,0.0,0.0,0.0,0.0,0.0,0.0,0.0,0.0,0.0,0.0,0.0,0.0,0.0,0.0,0.0,0.0,0.0,0.0,0.0,0.0,0.0,0.0,0.0,0.0,0.0,0.0,0.0,0.0,0.0,0.0,0.0,0.0,0.0,0.0,0.0,0.0,0.0,0.0,0.0,0.0,0.0,0.0,0.0,0.0,0.0,0.0,0.0,0.0,0.0,0.0,0.0,0.0,0.0,0.0,0.0,0.0,0.0,0.0,0.0,3.0129,3.2797,0.0,3.4857,3.4604,3.3069,3.1551,2.9255,2.5829,0.0,0.0,0.0,0.0,0.0,0.0,0.0,0.0,0.0,0.0,0.0,0.0,0.0,0.0,0.0,0.0,0.0,0.0,0.0,0.0,0.0,0.0,0.0,0.0,0.0,0.0,0.0,0.0,0.0,0.0,0.0,0.0,0.0,0.0,0.0,0.0,0.0,0.0,0.0,0.0,0.0,0.0,0.0,0.0,0.0,0.0,0.0,0.0,0.0,0.0,0.0,0.0,0.0,0.0,0.0,0.0,0.0,0.0,0.0,0.0,0.0,0.0,0.0,0.0,0.0,0.0,0.0,0.0,0.0,0.0,0.0,0.0,0.0,0.0,0.0,0.0,0.0,0.0,0.0,0.0,0.0,0.0,0.0,0.0,0.0,0.0,0.0,0.0,0.0,0.0,0.0,0.0,0.0,0.0,0.0,0.0,0.0,0.0,0.0,0.0,0.0,0.0,2.6704,3.0508,3.3367,0.0,3.5696,3.5619,3.3783,3.2405,3.0014,2.623,0.0,0.0,0.0,0.0,0.0,0.0,0.0,0.0,0.0,0.0,0.0,0.0,0.0,0.0,0.0,0.0,0.0,0.0,0.0,0.0,0.0,0.0,0.0,0.0,0.0,0.0,0.0,0.0,0.0,0.0,0.0,0.0,0.0,0.0,0.0,0.0,0.0,0.0,0.0,0.0,0.0,0.0,0.0,0.0,0.0,0.0,0.0,0.0,0.0,0.0,0.0,0.0,0.0,0.0,0.0,0.0,0.0,0.0,0.0,0.0,0.0,0.0,0.0,0.0,0.0,0.0,0.0,0.0,0.0,0.0,0.0,0.0,0.0,0.0,0.0,0.0,0.0,0.0,0.0,0.0,0.0,0.0,0.0,0.0,0.0,0.0,0.0,0.0,0.0,0.0,0.0,0.0,0.0,0.0,0.0,0.0,0.0,0.0,0.0,0.0,0.0,0.0,2.683,3.1318,3.4586,3.5345,3.6012,3.5854,3.4446,3.1804,2.9022,0.0,0.0,0.0,0.0,0.0,0.0,0.0,0.0,0.0,0.0,0.0,0.0,0.0,0.0,0.0,0.0,0.0,0.0,0.0,0.0,0.0,0.0,0.0,0.0,0.0,0.0,0.0,0.0,0.0,0.0,0.0,0.0,0.0,0.0,0.0,0.0,0.0,0.0,0.0,0.0,0.0,0.0,0.0,0.0,0.0,0.0,0.0,0.0,0.0,0.0,0.0,0.0,0.0,0.0,0.0,0.0,0.0,0.0,0.0,0.0,0.0,0.0,0.0,0.0,0.0,0.0,0.0,0.0,0.0,0.0,0.0,0.0,0.0,0.0,0.0,0.0,0.0,0.0,0.0,0.0,0.0,0.0,0.0,0.0,0.0,0.0,0.0,0.0,0.0,0.0,0.0,0.0,0.0,0.0,0.0,0.0,0.0,0.0,0.0,0.0,0.0,0.0,0.0,2.76,3.2045,3.5331,3.6044,3.6753,3.6785,3.5854,3.3688,3.097,2.7683,0.0,0.0,0.0,0.0,0.0,0.0,0.0,0.0,0.0,0.0,0.0,0.0,0.0,0.0,0.0,0.0,0.0,0.0,0.0,0.0,0.0,0.0,0.0,0.0,0.0,0.0,0.0,0.0,0.0,0.0,0.0,0.0,0.0,0.0,0.0,0.0,0.0,0.0,0.0,0.0,0.0,0.0,0.0,0.0,0.0,0.0,0.0,0.0,0.0,0.0,0.0,0.0,0.0,0.0,0.0,0.0,0.0,0.0,0.0,0.0,0.0,0.0,0.0,0.0,0.0,0.0,0.0,0.0,0.0,0.0,0.0,0.0,0.0,0.0,0.0,0.0,0.0,0.0,0.0,0.0,0.0,0.0,0.0,0.0,0.0,0.0,0.0,0.0,0.0,0.0,0.0,0.0,0.0,0.0,0.0,0.0,0.0,0.0,0.0,0.0,0.0,0.0,2.8273,3.2519,3.5647,3.6328,3.7069,3.721,3.644,3.4496,3.1868,2.8512,0.0,0.0,0.0,0.0,0.0,0.0,0.0,0.0,0.0,0.0,0.0,0.0,0.0,0.0,0.0,0.0,0.0,0.0,0.0,0.0,0.0,0.0,0.0,0.0,0.0,0.0,0.0,0.0,0.0,0.0,0.0,0.0,0.0,0.0,0.0,0.0,0.0,0.0,0.0,0.0,0.0,0.0,0.0,0.0,0.0,0.0,0.0,0.0,0.0,0.0,0.0,0.0,0.0,0.0,0.0,0.0,0.0,0.0,0.0,0.0,0.0,0.0,0.0,0.0,0.0,0.0,0.0,0.0,0.0,0.0,0.0,0.0,0.0,0.0,0.0,0.0,0.0,0.0,0.0,0.0,0.0,0.0,0.0,0.0,0.0,0.0,0.0,0.0,0.0,0.0,0.0,0.0,0.0,0.0,0.0,0.0,0.0,0.0,0.0,0.0,0.0,0.0,2.8925,3.2835,3.5679,3.6423,3.7101,3.7242,3.6549,3.4654,3.2169,2.9059,0.0,0.0,0.0,0.0,0.0,0.0,0.0,0.0,0.0,0.0,0.0,0.0,0.0,0.0,0.0,0.0,0.0,0.0,0.0,0.0,0.0,0.0,0.0,0.0,0.0,0.0,0.0,0.0,0.0,0.0,0.0,0.0,0.0,0.0,0.0,0.0,0.0,0.0,0.0,0.0,0.0,0.0,0.0,0.0,0.0,0.0,0.0,0.0,0.0,0.0,0.0,0.0,0.0,0.0,0.0,0.0,0.0,0.0,0.0,0.0,2.2298,0.0,0.0,0.0,0.0,0.0,0.0,0.0,0.0,0.0,0.0,0.0,0.0,0.0,0.0,0.0,0.0,0.0,0.0,0.0,0.0,0.0,0.0,0.0,0.0,0.0,0.0,0.0,0.0,0.0,0.0,0.0,0.0,0.0,0.0,0.0,0.0,0.0,0.0,0.0,0.0,0.0,2.9718,3.3164,3.5883,3.7147,3.74,3.7432,3.7274,3.5851,3.3724,3.0828,2.7708,0.0,0.0,0.0,0.0,0.0,0.0,0.0,0.0,0.0,0.0,0.0,0.0,0.0,0.0,0.0,0.0,0.0,0.0,0.0,0.0,0.0,0.0,0.0,0.0,0.0,0.0,0.0,0.0,0.0,0.0,0.0,0.0,0.0,0.0,0.0,0.0,0.0,0.0,0.0,0.0,0.0,0.0,0.0,0.0,0.0,0.0,0.0,0.0,0.0,0.0,0.0,0.0,0.0,0.0,0.0,0.0,0.0,0.0,0.0,0.0,2.3467,0.0,0.0,0.0,0.0,0.0,0.0,0.0,0.0,0.0,0.0,0.0,0.0,0.0,0.0,0.0,0.0,0.0,0.0,0.0,0.0,0.0,0.0,0.0,0.0,0.0,0.0,0.0,0.0,0.0,0.0,0.0,0.0,0.0,0.0,0.0,0.0,0.0,0.0,0.0,0.0,3.09,3.3941,3.6311,3.7369,3.7495,3.7406,3.7134,3.5821,3.4073,3.1883,2.8829,0.0,0.0,0.0,0.0,0.0,0.0,0.0,0.0,0.0,0.0,0.0,0.0,0.0,0.0,0.0,0.0,0.0,0.0,0.0,0.0,0.0,0.0,0.0,0.0,0.0,0.0,0.0,0.0,0.0,0.0,0.0,0.0,0.0,0.0,0.0,0.0,0.0,0.0,0.0,0.0,0.0,0.0,0.0,0.0,0.0,0.0,0.0,0.0,0.0,0.0,0.0,0.0,0.0,2.747,2.7795,2.7272,2.8404,2.8674,2.8137,2.6484,2.5584,2.5268,2.4327,0.0,0.0,0.0,0.0,0.0,0.0,0.0,0.0,0.0,0.0,0.0,0.0,0.0,0.0,0.0,0.0,0.0,0.0,0.0,0.0,0.0,0.0,0.0,0.0,2.8368,2.8584,2.5923,0.0,0.0,0.0,0.0,0.0,0.0,0.0,0.0,0.0,0.0,0.0,3.1872,3.4513,3.6427,3.7147,3.721,3.7044,3.6616,3.5489,3.4193,3.2661,3.0147,2.7672,0.0,0.0,0.0,0.0,0.0,0.0,0.0,0.0,0.0,0.0,0.0,0.0,0.0,0.0,0.0,0.0,0.0,0.0,0.0,0.0,0.0,0.0,0.0,0.0,0.0,0.0,0.0,0.0,0.0,0.0,0.0,0.0,1.8906,2.009,0.0,0.0,0.0,0.0,0.0,0.0,0.0,0.0,0.0,0.0,0.0,0.0,0.0,2.6146,2.6469,2.8122,2.9214,2.9744,3.0962,3.1481,3.1426,3.1607,3.1627,3.1556,3.1282,0.0,2.782,2.6581,0.0,0.0,0.0,0.0,0.0,0.0,0.0,0.0,0.0,0.0,0.0,0.0,0.0,0.0,0.0,0.0,0.0,0.0,0.0,0.0,0.0,0.0,3.1418,3.0752,3.1405,3.1736,0.0,2.7883,2.59,2.5352,2.4776,0.0,0.0,0.0,0.0,0.0,0.0,0.0,3.1649,3.3784,3.537,3.6041,3.6102,3.6071,3.6008,3.584,3.5139,3.3774,3.2891,3.0901,2.7538,2.6187,0.0,0.0,0.0,0.0,0.0,0.0,0.0,0.0,0.0,0.0,0.0,0.0,0.0,0.0,0.0,0.0,0.0,0.0,0.0,0.0,0.0,0.0,0.0,0.0,0.0,0.0,0.0,0.0,0.0,1.9406,2.0844,2.0763,2.1315,2.1263,0.0,0.0,0.0,0.0,0.0,0.0,0.0,0.0,0.0,2.7081,2.815,2.9214,3.0327,3.145,3.211,3.2363,3.3249,3.3466,3.3167,3.3167,3.3167,3.3167,3.3167,3.2727,3.1813,2.9524,2.8538,2.8357,0.0,0.0,0.0,0.0,2.7824,2.8111,2.89,2.8936,2.8524,2.8056,0.0,0.0,0.0,0.0,0.0,0.0,0.0,2.8784,2.8917,0.0,3.2598,3.2329,3.2846,3.3201,3.2541,3.1466,2.9977,0.0,2.7229,2.668,2.507,0.0,0.0,0.0,0.0,3.108,3.3258,3.5288,3.6637,3.6956,3.6653,3.6344,3.605,3.569,3.5142,3.4238,3.2953,3.1604,3.0219,2.7771,2.5708,0.0,0.0,0.0,0.0,0.0,0.0,0.0,0.0,0.0,0.0,0.0,0.0,0.0,0.0,0.0,0.0,0.0,0.0,0.0,0.0,0.0,0.0,0.0,0.0,0.0,0.0,0.0,0.0,2.1315,2.2401,2.1865,2.3146,2.342,0.0,0.0,0.0,0.0,0.0,0.0,2.6818,2.7659,2.8864,3.0581,3.1215,3.2182,3.3531,3.3927,3.4206,3.4368,3.4984,3.5039,3.4585,3.4748,3.4829,3.4829,3.4666,3.4829,3.5031,3.2295,3.1229,3.1252,2.9975,2.9456,2.9584,3.0614,3.1051,3.1228,3.2458,3.2541,3.1962,3.0974,3.0002,2.9056,2.7989,0.0,0.0,0.0,0.0,3.0466,3.1004,3.2518,3.3919,3.3998,3.4434,3.4745,3.4426,3.4695,3.3954,0.0,3.0061,2.9521,2.7309,0.0,0.0,0.0,0.0,3.2991,3.4713,3.6407,3.7426,3.7426,3.7023,3.6513,3.5963,3.5503,3.5028,3.4445,3.3003,3.2078,3.1894,2.9624,2.7801,2.6436,0.0,0.0,0.0,0.0,0.0,0.0,0.0,0.0,0.0,0.0,0.0,0.0,0.0,0.0,0.0,0.0,0.0,0.0,0.0,0.0,0.0,0.0,0.0,0.0,0.0,0.0,0.0,0.0,0.0,2.4652,2.5803,0.0,0.0,0.0,0.0,2.5641,2.7008,2.8612,3.0361,3.1673,3.278,3.3645,3.426,3.4612,3.4713,3.4721,3.5039,3.5608,3.6225,3.6497,3.6497,3.7073,3.7323,3.7268,3.6693,3.6469,3.6361,3.4489,3.4054,3.4454,3.3288,3.2863,3.2863,3.2936,3.328,3.3794,3.4454,3.4644,3.4617,3.4543,3.3294,3.1805,3.1739,3.126,0.0,0.0,3.2236,3.3659,3.369,3.5051,3.6429,3.6415,3.6883,3.7154,3.6572,3.6763,3.6353,0.0,3.3384,3.2934,3.1839,0.0,3.1707,3.1752,3.2963,3.425,3.5251,3.5968,3.6387,3.6387,3.6357,3.6096,3.5485,3.5398,3.5119,3.4441,3.4192,3.33,3.1586,3.2347,3.0897,2.6838,2.7053,0.0,0.0,0.0,0.0,0.0,0.0,0.0,0.0,0.0,0.0,0.0,0.0,0.0,0.0,0.0,0.0,0.0,0.0,0.0,0.0,0.0,0.0,0.0,0.0,0.0,0.0,0.0,0.0,2.7138,2.8534,0.0,2.7592,2.8175,2.8821,2.9118,2.9984,3.1035,3.2315,3.3565,3.4492,3.5046,3.6042,3.6699,3.7127,3.7127,3.7235,3.7425,3.7642,3.7534,3.7181,3.7398,3.7485,3.7485,3.729,3.7398,3.7718,3.7073,3.6015,3.4721,3.3927,3.3601,3.3601,3.3601,3.3981,3.4558,3.5174,3.5391,3.5391,3.5391,3.4932,3.4377,3.4377,3.4209,3.4038,3.4051,3.4834,3.5635,3.5641,3.6395,3.7181,3.7181,3.7344,3.7452,3.7235,3.7489,3.7632,3.7121,3.5839,3.4554,3.3574,3.3485,3.3498,3.3297,3.4911,3.637,3.7088,3.7767,3.8173,3.8173,3.7447,3.6867,3.6635,3.5868,3.5113,3.4441,3.3576,3.282,3.2177,3.1545,3.0329,2.8386,2.8223,2.6373,0.0,0.0,0.0,0.0,0.0,0.0,0.0,0.0,0.0,0.0,0.0,0.0,0.0,0.0,0.0,0.0,0.0,0.0,0.0,0.0,0.0,0.0,0.0,0.0,0.0,0.0,2.8769,2.8961,3.0503,3.1123,2.9972,3.0611,3.1449,3.2378,3.2836,3.3731,3.518,3.6082,3.6743,3.7082,3.7952,3.851,3.87,3.87,3.87,3.87,3.8912,3.8803,3.8429,3.8618,3.8727,3.87,3.851,3.8618,3.8993,3.8803,3.7751,3.6259,3.5642,3.5425,3.5425,3.5425,3.5669,3.6096,3.6693,3.6774,3.6612,3.6612,3.6476,3.6313,3.6313,3.6313,3.6313,3.6313,3.6747,3.7202,3.7202,3.7642,3.8103,3.8103,3.8103,3.8103,3.8103,3.8312,3.8611,3.8907,3.7873,3.6691,3.601,3.6117,3.6183,3.5803,3.7175,3.8405,3.8783,3.9218,3.9509,3.9509,3.858,3.7854,3.7622,3.6246,3.5218,3.4748,3.3106,3.2264,3.2497,3.1264,3.0193,2.9442,2.8577,2.695,2.4595,0.0,0.0,0.0,0.0,0.0,0.0,0.0,0.0,0.0,0.0,0.0,0.0,0.0,0.0,0.0,0.0,0.0,0.0,0.0,0.0,0.0,0.0,0.0,2.6798,2.8298,2.9614,3.0171,3.1757,3.2378,3.128,3.2344,3.3731,3.5255,3.5531,3.6661,3.8978,3.9339,3.9593,3.9799,4.0078,3.9943,3.9373,3.9373,3.9346,3.9346,3.9916,4.021,4.021,4.0784,4.1059,4.1032,4.0458,4.021,4.016,3.959,3.9373,3.9292,3.8673,3.8429,3.8429,3.8429,3.8429,3.8537,3.9129,3.8966,3.8483,3.8456,3.8049,3.7567,3.754,3.754,3.754,3.754,3.7995,3.8429,3.8429,3.8857,3.9292,3.9292,3.9292,3.9292,3.9292,3.9292,3.9292,3.9314,3.9417,3.9456,3.9228,3.9673,3.9895,3.9315,3.9741,0.0,4.0118,4.0118,4.0118,4.0118,3.9596,3.8957,3.826,3.6507,3.5421,3.5334,3.2948,3.18,3.2409,3.1692,3.0883,2.9994,2.829,2.7343,2.7209,0.0,0.0,0.0,0.0,0.0,0.0,0.0,0.0,0.0,0.0,0.0,0.0,0.0,0.0,0.0,0.0,0.0,0.0,0.0,0.0,0.0,2.7252,2.8603,2.8603,3.0417,3.2123,3.3117,3.4371,3.5051,3.4737,3.5429,3.6083,3.6488,3.6585,3.7231,3.8652,3.9218,3.9662,4.0073,4.0575,4.0761,4.0598,4.0598,4.0404,3.9943,4.0128,3.997,3.9536,3.9726,4.0024,4.0431,4.0268,4.0458,4.0838,4.0652,4.0598,4.049,3.9481,3.9047,3.9047,3.9047,3.9319,3.9726,3.9888,4.0133,4.0273,3.9834,3.959,3.9373,3.8939,3.883,3.883,3.883,3.8939,3.9047,3.9047,3.9183,3.9292,3.9292,3.9292,3.9292,3.9292,3.9292,3.9402,3.9733,3.9855,3.9689,3.9152,3.9398,3.9613,3.9421,4.0238,0.0,4.0815,4.0815,4.0815,4.0815,4.0234,3.9392,3.8289,3.7331,3.5985,3.4143,3.289,3.1887,3.1163,3.0892,3.1058,3.1573,2.9074,2.8363,0.0,0.0,0.0,0.0,0.0,0.0,0.0,0.0,0.0,0.0,0.0,0.0,0.0,0.0,0.0,0.0,0.0,0.0,0.0,0.0,0.0,0.0,2.9797,3.128,3.1751,3.2934,3.411,3.4999,3.5913,3.6384,3.6123,3.6645,3.7194,3.7691,3.7952,3.8565,3.9662,4.0292,4.0689,4.0995,4.1534,4.1869,4.1869,4.1598,4.1435,4.135,4.1055,4.0892,4.0784,4.054,4.0621,4.092,4.0675,4.092,4.1466,4.1466,4.1652,4.1734,0.0,0.0,0.0,0.0,4.0296,4.0567,4.0567,4.0811,4.1032,4.0703,4.0567,4.0513,4.016,4.0029,4.0029,4.0029,4.0029,4.0029,4.0029,4.0029,4.0029,4.0029,4.0029,4.0029,4.0029,3.9861,3.9761,4.0028,3.9903,0.0,3.9174,3.9613,4.0063,4.0269,4.083,4.1307,4.1491,4.1512,4.1512,4.1512,4.0931,4.0205,3.9479,3.8115,0.0,0.0,0.0,3.2238,3.0656,3.0762,0.0,0.0,0.0,0.0,0.0,0.0,0.0,0.0,2.919,2.9505,0.0,0.0,0.0,0.0,0.0,0.0,0.0,0.0,0.0,0.0,0.0,0.0,0.0,0.0,0.0,0.0,3.2522,3.4371,3.5521,3.573,3.5913,3.6253,3.6907,3.709,3.6541,3.7037,3.7821,3.8841,3.939,4.02,4.1375,0.0,0.0,0.0,0.0,4.309,4.309,4.2575,4.2548,4.3006,4.2466,4.2439,4.2873,4.2358,4.2141,4.2168,4.1652,4.1761,4.2304,4.2304,4.2629,4.2982,4.1764,4.1303,4.1303,4.1303,4.1303,4.1303,4.1303,0.0,0.0,4.1222,4.1195,4.1195,4.1113,4.1086,4.1086,4.1086,4.1086,4.1086,4.1086,4.1086,4.1086,4.1086,4.1086,4.1086,4.1086,4.0675,4.0296,4.0296,3.9807,3.94,3.94,4.0116,4.0816,4.1269,4.1417,4.1627,4.2051,4.2092,4.2092,4.2092,4.157,0.0,4.0989,3.8928,3.7535,3.7331,3.4968,3.2761,3.0873,3.1175,3.1412,3.1545,3.2048,3.3152,3.4846,3.5605,3.5996,3.5842,3.1883,3.1748,0.0,0.0,0.0,0.0,0.0,0.0,0.0,0.0,0.0,0.0,0.0,0.0,0.0,0.0,0.0,3.3927,3.5443,3.675,3.79,3.8475,3.8475,3.7665,3.8475,3.905,3.8922,3.9442,3.981,4.0045,4.0176,4.0849,4.2255,4.2636,4.3125,4.3783,4.4163,4.4339,4.4339,4.4257,4.3986,4.3631,4.3522,0.0,4.2925,4.2765,4.3006,4.3441,4.3332,4.3606,4.4176,4.4176,4.4257,4.423,4.3009,4.2548,4.2548,4.2548,4.2548,4.2548,4.2548,4.2548,4.2466,4.1978,4.1842,4.1761,4.1249,4.1086,0.0,4.1086,4.1086,4.1086,4.1086,4.1086,4.1086,4.1086,4.1086,4.1086,4.1086,4.1005,4.0924,4.0924,4.0431,4.0024,4.0024,4.0415,4.0709,4.0816,4.148,4.2009,4.2092,4.2092,4.2092,4.2092,4.1976,4.1453,4.0379,3.9828,3.8899,3.7418,3.5357,3.3616,3.2177,3.2198,3.2494,3.3051,3.3504,3.4141,3.5042,3.6042,3.7075,3.807,3.6567,3.6532,0.0,0.0,0.0,0.0,0.0,0.0,0.0,0.0,0.0,0.0,0.0,2.6536,2.8747,0.0,3.2753,3.5341,3.5966,3.6656,3.8116,3.8777,3.9047,3.877,3.9494,3.9888,3.9651,4.0359,4.0829,4.0829,4.1528,4.2283,4.299,4.3271,4.3581,4.3977,4.4284,4.4329,4.403,4.3884,4.3821,4.3794,4.3495,4.3522,4.3796,4.3495,4.3522,4.3766,4.3495,4.3685,4.4257,4.4583,4.4719,4.4637,4.404,4.3796,4.3769,4.3468,4.3359,4.3305,4.3006,4.2925,4.2846,4.2548,4.2439,4.2385,4.2086,4.2005,4.2005,4.2005,4.2005,4.2005,4.2005,4.2005,4.2005,4.2005,4.2005,4.2005,4.2005,4.1761,4.1547,4.1547,4.1082,4.0648,4.0648,4.0718,4.0793,4.0701,4.11,4.1564,4.203,4.2092,4.2092,4.2092,4.2092,4.1831,4.1163,4.0495,3.9567,3.8347,3.7041,3.5862,3.4934,3.4905,3.5067,3.5404,3.5904,3.6465,3.7157,3.8305,3.9013,3.9316,3.9882,4.0302,0.0,0.0,0.0,0.0,0.0,0.0,0.0,0.0,2.3898,2.6145,2.7378,2.8615,3.0514,3.1918,3.3597,3.5985,3.6037,3.6321,3.7717,3.8339,3.8868,3.9362,4.0217,4.0494,3.9855,4.0887,4.1612,4.1612,4.2732,4.3491,4.3649,4.3855,4.3983,4.4035,4.4318,4.4202,4.366,4.3372,4.3495,4.3984,4.3495,4.3769,4.4691,4.4337,4.4146,4.4119,4.3766,4.3875,4.4364,4.4854,4.5044,4.5044,4.5044,4.5044,4.4963,4.4255,4.3984,4.3902,4.3416,4.3253,4.3253,4.3253,4.3145,4.3088,4.3088,4.3006,4.2925,4.2925,4.2925,4.2925,4.2925,4.2925,4.2925,4.2925,4.2925,4.2925,4.2925,4.2521,4.2168,4.2168,4.1707,4.1276,4.1276,4.1105,4.0924,4.0882,4.0836,4.1142,4.1989,4.2092,4.2092,4.2092,4.2092,4.2092,4.2092,4.1105,4.0176,3.9421,3.887,3.8231,3.7506,3.7458,3.7458,3.7458,3.8086,3.8667,3.9189,4.0431,4.0759,4.0351,4.204,4.2816,2.0872,2.0747,0.0,2.1919,2.2482,2.3717,0.0,0.0,2.6989,2.9667,3.0698,3.1479,3.2678,3.4442,3.5997,3.6848,3.7326,3.7687,3.7867,3.8299,3.8637,3.8698,4.0667,4.1568,4.0486,4.1853,4.2814,4.2814,4.2944,4.3389,4.4151,4.4466,4.47,4.4961,4.5272,4.5156,4.456,4.4503,4.4529,4.461,4.4529,4.4583,4.4719,4.518,4.5397,4.5397,4.5884,4.6128,4.621,4.6264,4.6291,4.6291,4.6291,4.6291,4.6156,4.5017,4.461,4.4583,4.4529,4.4501,4.4501,4.4501,4.4146,4.3685,4.3685,4.3332,4.2925,4.2925,4.2925,4.2925,4.2925,4.2925,4.2925,4.2925,4.2925,4.2925,4.2925,4.2846,4.2792,4.2792,4.2304,4.1896,4.1896,4.1431,4.1151,4.1461,4.1397,4.1501,4.203,4.2092,4.2092,4.2092,4.2092,4.2092,4.2092,4.1947,4.1337,4.0089,3.9915,3.9363,3.8144,3.8115,3.8115,3.8115,3.8754,3.9131,3.9189,4.0468,4.1311,4.1773,4.2584,4.2902,2.385,0.0,0.0,0.0,2.5172,2.6103,2.8232,2.8521,2.8897,3.0856,3.1681,3.2377,3.3384,3.4245,3.5272,0.0,3.6616,3.6654,3.7667,3.7703,3.7358,3.6716,3.8749,4.0126,3.9883,4.1133,4.1946,4.1946,4.2412,4.2801,4.3167,4.3608,4.4145,4.4854,4.5656,4.6062,4.6003,4.616,4.6264,4.6264,4.6264,4.6428,4.6754,4.6998,4.6944,4.6644,4.6536,4.6509,4.6509,4.6509,4.6509,4.6509,4.6509,4.6509,4.64,4.5533,4.5207,4.518,4.4827,4.4719,4.4719,4.4719,4.4529,4.4312,4.4312,4.4149,4.3959,4.3959,4.3687,4.3413,4.3413,4.3169,4.2925,4.2925,4.2925,4.2925,4.2925,4.2925,4.2925,4.2925,4.2683,4.2521,4.2521,4.2032,4.1871,4.253,4.1751,4.1152,4.1255,4.1522,4.1801,4.2071,4.2092,4.2092,4.2092,4.2092,4.186,4.1308,4.125,4.1018,4.0495,4.0466,4.0466,4.0466,4.0728,4.0873,4.0873,4.1424,4.1829,4.2063,4.2702,4.2961,2.5491,0.0,0.0,2.6627,2.7457,2.8353,2.9359,2.995,3.0646,3.1957,3.2525,3.3027,3.3835,3.3988,3.4527,3.6162,3.5728,3.57,3.7024,3.6889,3.6353,3.5523,3.6972,3.8188,3.8615,4.0062,4.1156,4.1615,4.2182,4.268,4.3084,4.3512,4.4004,4.4615,4.5447,4.5898,4.5978,4.6491,4.6732,4.6732,4.7027,4.7377,4.7731,4.7893,4.7866,4.7595,4.7134,4.6971,4.6971,4.6971,4.6971,4.6971,4.6971,4.6889,4.6699,4.6264,4.5993,4.5803,4.5343,4.5207,4.5207,4.5207,4.5071,4.4963,4.4963,4.4827,4.4719,4.4719,4.4393,4.4065,4.4065,4.3715,4.3389,4.3389,4.3278,4.3169,4.3169,4.3033,4.2925,4.2925,4.2925,4.2925,4.2925,4.2548,4.2405,4.2944,4.1957,4.124,4.1333,4.151,4.171,4.2051,4.2092,4.2092,4.2092,4.2092,4.2092,4.2092,4.2092,4.2092,4.2092,4.2092,4.2092,4.2092,4.2092,4.2092,4.2092,4.2092,4.2092,4.2113,4.2702,4.2985,0.0,0.0,2.7239,2.726,2.8701,3.036,3.1298,3.1935,3.2569,3.353,3.3748,3.3901,3.4376,3.4485,3.4644,3.5153,3.524,3.5415,3.5976,3.6041,3.5991,3.5961,3.602,3.6275,0.0,3.9,4.108,4.2643,4.2745,4.3395,4.4864,4.4944,4.4805,4.4528,4.4528,4.4273,4.371,4.4614,4.5073,4.5073,4.606,4.6536,4.6563,4.716,4.7676,4.8164,4.8165,4.8165,4.8165,4.8165,4.8165,4.8165,4.8165,4.7839,4.7377,4.735,4.697,4.6481,4.6454,4.6454,4.6454,4.6454,4.6047,4.556,4.556,4.5153,4.4719,4.4719,4.4691,4.4664,4.4664,4.4664,4.4664,4.4664,4.4203,4.3766,4.3766,4.3305,4.2925,4.2925,4.2925,4.2925,4.2925,4.2873,4.268,4.2134,4.2002,4.2187,4.2832,4.242,4.2071,4.2092,4.2092,4.2092,4.2092,4.2092,4.2092,4.2092,4.2092,4.2092,4.2092,4.2092,4.2092,4.2092,4.2092,4.2092,4.2092,4.2092,4.2092,4.2121,4.2723,4.3005,0.0,0.0,2.8899,2.9532,3.0668,3.1891,3.2853,3.3202,3.3508,3.4141,3.4245,3.431,3.4463,3.4507,3.4747,3.5612,3.5743,3.6027,3.6814,3.6661,3.6355,3.6027,3.6005,0.0,0.0,0.0,0.0,4.0934,4.1389,4.1981,4.2812,4.289,4.3119,4.3626,4.4061,4.4503,4.4922,4.5593,4.5915,4.5943,4.7267,4.8207,4.8816,4.8626,4.8653,4.8788,4.8382,4.8192,4.8192,4.8192,4.8192,4.8192,4.8192,4.8083,4.7948,4.7948,4.7785,4.7514,4.678,4.6509,4.6509,4.6509,4.6373,4.621,4.621,4.6074,4.5911,4.5911,4.5587,4.5288,4.5288,4.499,4.4719,4.4719,4.4556,4.4393,4.4393,4.3929,4.3495,4.3495,4.3169,4.2925,4.2925,4.2925,4.294,4.3029,4.2109,4.1709,4.2549,4.2477,4.2602,4.3276,4.2963,4.2702,4.2702,4.2324,4.2092,4.2092,4.2092,4.2092,4.2092,4.2092,4.2092,4.2092,4.2092,4.2295,4.2702,4.2702,4.2934,4.3369,4.3573,4.366,2.7829,2.9139,3.0472,3.1458,3.2311,3.3093,3.3879,3.4054,3.4098,3.4229,3.4245,3.4207,3.4032,3.401,3.4382,3.5546,3.5874,3.6333,3.7273,3.7134,3.6792,3.6311,3.6246,3.6333,0.0,0.0,0.0,3.9947,4.0428,4.1095,4.2009,4.211,4.2413,4.3039,4.3477,4.4006,4.4593,4.5265,4.5864,4.6418,4.736,4.8428,4.9501,4.9096,4.9077,4.9385,4.9005,4.8843,4.8843,4.8843,4.8843,4.8843,4.8843,4.8707,4.8517,4.8517,4.8409,4.811,4.7378,4.6997,4.6807,4.6807,4.6671,4.6509,4.6509,4.6509,4.6509,4.6509,4.6237,4.5938,4.5938,4.5614,4.5343,4.5343,4.518,4.5017,4.5017,4.4529,4.4119,4.4119,4.3821,4.347,4.3278,4.306,4.2994,4.3304,4.2436,4.2074,4.297,4.3085,4.3275,4.3914,4.3602,4.3362,4.3362,4.2992,4.2789,4.2789,4.2789,4.2789,4.2789,4.2789,4.2789,4.2789,4.2789,4.2963,4.3362,4.3362,4.3573,4.403,4.4211,4.4298,2.9314,3.0646,3.1957,3.2901,3.3491,3.3945,3.4397,3.4485,3.431,3.3857,3.3748,3.3573,0.0,0.0,3.3557,3.4906,3.5655,3.6355,3.7317,3.747,3.7317,0.0,0.0,0.0,0.0,0.0,0.0,3.98,0.0,4.0866,4.2496,4.2717,4.2813,4.2837,4.2813,4.2789,4.2789,4.3708,4.4865,4.6331,4.636,4.714,4.856,4.8589,4.9131,5.001,5.001,5.001,5.001,5.001,5.001,5.001,5.001,4.9629,4.9141,4.9141,4.8788,4.8273,4.8273,4.792,4.7432,4.7432,4.7052,4.659,4.6563,4.6536,4.6536,4.6509,4.6509,4.6509,4.6509,4.6509,4.6509,4.6509,4.6074,4.5641,4.5641,4.518,4.4746,4.4746,4.4719,4.4529,4.3956,4.3386,4.2982,4.2952,4.2976,4.331,4.4061,4.407,4.4008,4.4052,4.4044,4.4015,4.4037,4.4008,4.3979,4.3979,4.3979,4.3979,4.3979,4.3979,4.3979,4.3979,4.3979,4.403,4.4059,4.4059,4.4066,4.4095,4.4676,4.4959,3.0712,3.2132,3.3289,3.3551,3.3967,3.4332,3.4463,3.425,3.3835,3.3382,3.301,3.2507,0.0,0.0,0.0,3.4032,3.5474,0.0,3.7789,3.8226,0.0,3.7811,0.0,3.8173,3.7942,3.8371,0.0,0.0,4.0365,4.1663,4.3719,4.3174,4.2958,4.3313,4.2982,4.2789,4.2789,4.3391,4.4233,4.5363,4.601,4.693,4.8037,4.8687,4.9351,5.001,5.001,5.001,5.001,5.001,5.001,5.001,5.001,4.9928,4.9765,4.9765,4.9656,4.9521,4.9521,4.8843,4.8002,4.8002,4.7893,4.7676,4.7296,4.716,4.7079,4.6617,4.6509,4.6509,4.6509,4.6509,4.6509,4.6509,4.6373,4.6264,4.6264,4.5803,4.537,4.537,4.5017,4.4664,4.4501,4.4339,4.4094,4.3658,4.4211,4.4443,4.3826,4.372,4.3983,4.4743,4.4432,4.4301,4.4625,4.4262,4.3979,4.3979,4.3979,4.3979,4.3979,4.3979,4.3979,4.3979,4.3979,4.4211,4.4647,4.4647,4.493,4.5424,4.5547,4.5656,3.1979,3.3158,3.4119,3.4119,3.4316,3.4376,3.3988,3.3661,3.3185,3.207,3.1607,0.0,0.0,0.0,0.0,0.0,0.0,0.0,3.7942,3.8501,3.8784,0.0,3.9165,0.0,3.9384,3.9592,4.0232,0.0,4.1098,4.1548,4.2988,4.289,4.291,4.3168,4.2934,4.2789,4.2789,4.3078,4.359,4.435,4.4829,4.57,4.6927,4.7447,4.8294,4.9387,4.9387,4.9614,5.001,5.001,5.001,5.001,5.001,5.001,5.001,5.001,5.001,5.001,5.001,4.9548,4.8951,4.868,4.8436,4.8165,4.7839,4.7758,4.7676,4.7351,4.7242,4.7188,4.697,4.6889,4.6834,4.6563,4.6509,4.6509,4.6509,4.6237,4.5993,4.5993,4.5505,4.5098,4.5098,4.4881,4.4583,4.423,4.445,4.4415,4.3767,4.4231,4.4833,4.539,4.5142,4.5046,4.5314,4.5046,4.4821,4.4821,4.4821,4.4821,4.4821,4.4821,4.4821,4.4821,4.4821,4.5017,4.5337,4.5337,4.554,4.5917,4.5917,4.5917,3.3141,3.3879,3.4507,3.4507,3.4507,3.4245,3.3316,3.2988,3.2376,3.0493,0.0,2.9642,2.8747,2.9819,3.128,3.277,0.0,3.6486,3.7898,3.861,3.9187,3.9634,4.0159,4.0694,4.1176,4.122,4.196,4.3687,4.2264,4.153,4.1938,4.2634,4.3006,4.3006,4.3006,4.3006,4.3006,4.3006,4.3174,4.3505,4.3626,4.4384,4.5699,4.5819,4.6866,4.8613,4.8534,4.8996,4.9901,4.9901,4.9901,4.9901,4.9983,5.001,5.001,5.001,5.001,5.001,5.001,5.001,4.9928,4.9385,4.887,4.8436,4.8327,4.83,4.83,4.8219,4.8192,4.811,4.7649,4.7513,4.7377,4.6862,4.6671,4.6617,4.6617,4.6563,4.6509,4.6509,4.6074,4.5695,4.5695,4.5288,4.4908,4.4827,4.4441,4.411,4.4028,4.4936,4.5617,4.5685,4.5782,4.5827,4.5895,4.5917,4.5917,4.5917,4.5917,4.5917,4.5917,4.5917,4.5917,4.5917,4.5917,4.5917,4.5917,4.5982,4.6011,4.6011,4.6121,4.615,3.4032,3.4376,3.4507,3.4507,3.4507,3.4245,3.3316,3.2459,0.0,0.0,0.0,2.8221,2.7676,2.9074,3.0799,3.2289,0.0,0.0,0.0,0.0,4.0061,0.0,0.0,0.0,0.0,0.0,0.0,0.0,4.4072,4.4292,4.4467,4.4192,4.4051,4.4051,4.4051,4.4051,4.4051,4.4051,4.3859,4.3505,4.429,4.4843,4.5156,4.5898,4.7095,4.8587,4.8083,4.8409,4.9249,4.9249,4.9249,4.9304,4.9792,5.001,5.001,5.001,5.001,5.001,5.001,5.001,4.9983,4.9901,4.9765,4.9575,4.9087,4.8951,4.8843,4.8327,4.8192,4.8192,4.8083,4.8056,4.8029,4.7948,4.7568,4.7214,4.7214,4.6834,4.6509,4.6509,4.6427,4.6346,4.6346,4.6264,4.602,4.5505,4.5672,4.5676,4.5181,4.4473,4.4181,4.4607,4.5,4.5413,4.5872,4.5917,4.5917,4.5917,4.5917,4.5917,4.5917,4.5917,4.5917,4.5917,4.5917,4.5917,4.5917,4.6417,4.6627,4.6656,4.7201,4.7486,3.4376,3.4507,3.4507,3.4507,3.4338,3.3748,3.2311,0.0,0.0,0.0,0.0,2.7129,2.6671,0.0,0.0,0.0,0.0,0.0,0.0,0.0,0.0,0.0,0.0,0.0,0.0,0.0,0.0,4.4545,4.4946,4.5094,4.4998,4.4824,4.4724,4.4724,4.446,4.4285,4.4285,4.4285,4.4172,4.3907,4.4366,4.4579,4.464,4.5064,4.5969,4.7125,4.6839,4.7082,4.7711,4.8164,4.839,4.8501,4.9244,4.971,5.001,5.001,5.001,5.001,5.001,5.001,5.001,5.001,5.001,4.9956,4.9656,4.9548,4.9493,4.9222,4.9141,4.906,4.8761,4.868,4.8598,4.8246,4.8002,4.7812,4.7812,4.7377,4.697,4.697,4.6699,4.6509,4.6509,4.6509,4.64,4.6128,4.6009,4.5835,4.5536,4.4936,4.4709,4.5185,4.5693,4.6085,4.6366,4.6388,4.6388,4.6388,4.6388,4.6388,4.6388,4.6388,4.6534,4.6876,4.6905,4.6905,4.6905,4.7172,4.7317,4.7317,4.766,4.7805,3.4463,3.4507,3.4507,3.4507,3.4163,3.3289,3.1345,3.0472,0.0,0.0,2.6518,2.6366,2.6103,0.0,0.0,0.0,0.0,0.0,0.0,0.0,0.0,0.0,0.0,0.0,0.0,0.0,0.0,4.5426,4.5697,4.5639,4.5293,4.5254,4.5229,4.5109,4.47,4.4436,4.4285,4.4285,4.4285,4.4285,4.4285,4.4285,4.4285,4.4285,4.4847,4.5798,4.5643,4.6002,4.6737,4.74,4.7774,4.7977,4.8917,4.9412,4.9629,4.9738,4.971,4.9602,4.9602,4.9602,4.9629,4.9765,4.9901,5.001,5.001,5.001,5.001,5.001,5.001,4.9901,4.9412,4.9276,4.9141,4.8544,4.8409,4.8382,4.8219,4.7866,4.754,4.7405,4.7024,4.6644,4.6509,4.6509,4.6509,4.6509,4.6101,4.5803,4.5803,4.5801,4.5876,4.6034,4.6526,4.6888,4.7004,4.7004,4.7004,4.7004,4.7004,4.7004,4.7004,4.7004,4.7259,4.7805,4.7805,4.7805,4.7805,4.795,4.7985,4.7985,4.8154,4.8212,3.4376,3.4507,3.4507,3.4507,3.4163,3.3289,3.1342,0.0,0.0,2.702,2.6256,2.606,2.6475,2.702,0.0,0.0,0.0,0.0,0.0,0.0,0.0,0.0,0.0,0.0,0.0,0.0,4.5426,4.6237,4.6931,4.7068,4.6558,4.6062,4.559,4.5133,4.5061,4.4796,4.4285,4.4285,4.4285,4.4285,4.4285,4.4285,4.4285,4.4285,4.4847,4.5773,4.5216,4.5947,4.7571,4.7657,4.7873,4.8299,4.9465,4.9276,4.8436,4.8978,4.8843,4.8382,4.8382,4.8382,4.8463,4.9005,4.9548,5.001,5.001,5.001,5.001,5.001,5.001,5.001,4.9956,4.9928,4.9765,4.9168,4.9032,4.887,4.83,4.8165,4.7975,4.7486,4.7377,4.7133,4.659,4.6509,4.6509,4.6509,4.6454,4.6427,4.6427,4.6841,4.6927,4.6314,4.6724,4.7176,4.7671,4.7718,4.7718,4.7718,4.7718,4.7718,4.7718,4.7718,4.7747,4.7805,4.7805,4.7805,4.7805,4.8362,4.8629,4.8629,4.9233,4.9519,3.4316,3.4507,3.4507,3.4507,3.3923,3.2879,3.0905,0.0,2.8529,2.6583,2.6037,2.5972,2.6125,2.6562,0.0,0.0,0.0,0.0,0.0,0.0,0.0,0.0,0.0,0.0,0.0,0.0,4.5119,4.6305,4.7098,4.7401,4.7209,4.6647,4.6262,4.607,4.5734,4.5469,4.5277,4.4941,4.4796,4.4796,4.4429,4.4285,4.4285,4.4285,4.4532,4.4878,4.4628,4.4765,4.5219,4.5779,4.6463,4.7223,4.8211,4.8544,4.8547,4.9324,4.8914,4.7986,4.8541,4.8517,4.8219,4.849,4.8734,4.906,4.9765,5.001,5.001,5.001,5.001,5.001,5.001,5.001,4.9956,4.9683,4.9629,4.9575,4.9331,4.9005,4.868,4.8463,4.8138,4.7703,4.7133,4.7024,4.6916,4.6536,4.6509,4.6509,4.6509,4.6692,4.6843,4.6905,4.7274,4.7639,4.7856,4.8143,4.8333,4.8333,4.8333,4.8333,4.8333,4.8333,4.8537,4.8938,4.8938,4.8938,4.8938,4.9175,4.9291,4.9291,4.9577,4.9693,3.401,3.4376,3.4507,3.4507,3.3792,3.2595,0.0,0.0,2.8267,2.6299,2.5906,2.5906,2.5906,2.6278,2.702,0.0,0.0,0.0,0.0,0.0,0.0,0.0,0.0,4.1386,0.0,4.4358,4.5358,4.6607,4.7198,4.7497,4.7497,4.7136,4.6872,4.6728,4.631,4.6046,4.5902,4.5373,4.5109,4.5085,4.458,4.4285,4.4285,4.4285,4.4285,4.4285,4.4285,4.4229,4.4232,4.4897,4.5632,4.6443,4.7236,4.7746,4.8169,4.9008,4.8687,4.79,4.8433,4.8327,4.7948,4.7948,4.7948,4.8137,4.9141,4.9575,4.9765,4.9956,5.001,5.001,5.001,5.001,5.001,5.001,5.001,5.001,5.001,4.9656,4.9304,4.9141,4.8761,4.83,4.7731,4.7649,4.7513,4.7052,4.6862,4.6753,4.6753,4.6617,4.664,4.7003,4.7458,4.785,4.817,4.8541,4.8808,4.8977,4.9001,4.9001,4.9001,4.9001,4.9204,4.9693,4.9693,4.9693,4.9693,4.9693,4.9693,4.9693,4.9693,4.9693,3.3399,3.4163,3.4507,3.4507,3.3792,3.2595,0.0,2.9469,2.8267,2.6299,2.5906,2.5906,2.5906,2.6278,2.6911,0.0,0.0,0.0,0.0,0.0,0.0,0.0,0.0,4.0252,4.1965,4.4718,4.6674,4.7431,4.7497,4.7497,4.7497,4.7497,4.7257,4.6728,4.6704,4.6463,4.5902,4.5373,4.5109,4.5085,4.458,4.4285,4.4285,4.4285,4.4285,4.4285,4.4285,4.4847,4.5798,4.5798,4.5984,4.6378,4.6975,4.7065,4.6892,4.75,4.793,4.811,4.7595,4.7405,4.7431,4.7431,4.7431,4.7513,4.8056,4.8653,4.9222,4.9819,5.001,5.001,5.001,5.001,5.001,5.001,5.001,5.001,5.001,5.001,4.9792,4.9222,4.9087,4.8897,4.83,4.8192,4.8192,4.8164,4.7731,4.7404,4.7404,4.6862,4.6509,4.6509,4.6977,4.775,4.8781,4.8881,4.9128,4.9669,4.9693,4.9693,4.9693,4.9693,4.9693,4.9693,4.9693,4.9693,4.9693,4.9693,4.9693,4.9693,4.9693,4.9693,3.1214,3.1935,3.2433,3.2132,3.1586,3.0777,2.9534,2.8724,2.7829,2.6234,2.5906,2.5906,2.5906,2.6016,2.6846,2.9137,0.0,0.0,0.0,0.0,0.0,0.0,4.1947,4.4467,0.0,0.0,4.7265,4.7464,4.7497,4.7497,4.7497,4.7497,4.7425,4.7257,4.7257,4.7161,4.7016,4.6094,4.5638,4.5638,4.4748,4.4285,4.4285,4.4285,4.4285,4.4285,4.4285,4.4501,4.4755,4.4755,4.5244,4.5969,4.6175,4.659,4.7189,4.8011,4.8122,4.7928,4.8406,4.8056,4.7404,4.7404,4.7106,4.6889,4.7486,4.8056,4.8517,4.8734,4.906,4.9385,4.9385,4.9683,5.001,5.001,5.001,5.001,5.001,5.001,4.9956,4.9738,4.971,4.9521,4.8924,4.8815,4.868,4.8246,4.8056,4.7975,4.7975,4.8134,4.8292,4.8292,4.8795,4.8774,4.7884,4.8484,4.8984,4.9128,4.9498,4.9693,4.9693,4.9693,4.9693,4.9693,4.9693,4.9693,4.9693,4.9693,4.9925,5.039,5.0801,5.1004,0.0,3.0469,3.0993,3.0712,3.0275,2.9685,2.8725,2.8112,2.7391,2.6147,2.5906,2.5906,2.5906,2.6037,2.6802,2.879,0.0,0.0,0.0,0.0,0.0,3.9173,0.0,0.0,0.0,4.686,4.7425,4.7209,4.7209,4.7209,4.7209,4.7209,4.7305,4.7497,4.7497,4.7497,4.7497,4.6463,4.5902,4.5878,4.482,4.4285,4.4285,4.4285,4.4285,4.4285,4.4285,4.4285,0.0,4.4285,4.4662,4.5245,4.5245,4.5828,4.676,4.7328,4.7535,4.7571,4.7904,4.7823,4.7485,4.7243,4.7163,4.7215,4.7568,4.8083,4.8598,4.8815,4.9141,4.9439,4.9439,4.971,5.001,5.001,5.001,5.001,5.001,5.001,5.001,5.001,5.001,4.9901,4.9493,4.9439,4.9304,4.8951,4.8872,4.8873,4.8873,4.9222,4.9458,4.9458,4.9776,4.9546,4.8399,4.8889,4.9213,4.9207,4.9729,4.9954,4.9722,4.9954,5.0071,5.0071,5.0071,5.0187,5.0423,5.0423,5.0627,5.1033,5.1439,5.1588,0.0,2.9576,2.9991,2.9945,2.962,2.9052,2.8089,2.7566,0.0,2.6081,2.5906,2.5928,2.5994,2.6321,2.6802,2.7457,0.0,0.0,0.0,0.0,0.0,0.0,4.231,0.0,4.5063,4.6592,4.7281,4.6752,4.6704,4.6704,4.6655,4.668,4.6944,4.7425,4.7473,4.7497,4.7497,4.6463,4.5902,4.5878,4.482,4.4285,4.4285,4.4285,4.4285,4.4285,4.4285,4.4285,4.4285,4.4285,4.4285,4.4285,4.4285,4.4908,4.5798,4.5798,4.6401,4.7129,4.6645,4.7022,4.7606,4.7082,4.7506,4.8192,4.8246,4.8626,4.9141,4.971,4.9901,4.9956,4.9956,4.9983,5.001,5.001,5.001,5.001,5.001,5.001,5.001,5.001,5.001,5.001,5.001,5.001,5.001,5.001,5.0022,5.0023,5.0023,5.0038,5.0101,5.0099,5.0152,5.0178,5.0174,4.9998,4.9853,4.9769,5.0394,5.0477,4.9867,5.0448,5.0768,5.0768,5.0768,5.1033,5.1588,5.1646,5.1675,5.1675,5.1704,5.1733,2.5884,0.0,2.7893,2.7544,2.7369,2.7217,0.0,2.6846,0.0,0.0,0.0,0.0,0.0,0.0,0.0,0.0,0.0,0.0,3.3246,0.0,0.0,4.3845,4.524,4.6188,4.6834,4.7254,4.7281,4.6752,4.6704,4.6503,4.6094,4.6487,4.6776,4.6896,4.7281,4.7497,4.7497,4.6463,4.5902,4.5878,4.482,4.4285,4.4285,4.4285,4.4285,4.4285,4.4285,4.4285,4.4285,4.4285,4.4285,4.4285,4.4285,4.4908,4.5798,4.5798,4.6401,4.7298,4.7847,4.7882,4.7719,4.7832,4.8001,4.8273,4.8761,4.868,4.8463,4.8598,4.8951,4.9304,4.9304,4.9629,5.001,5.001,5.001,5.001,5.001,5.001,5.001,5.001,5.001,5.001,5.001,5.001,5.001,5.001,5.0014,4.9989,4.9989,5.0409,5.0876,5.1338,5.1741,5.1968,5.1981,5.1116,5.0557,5.0542,5.1067,5.1323,5.1178,5.1323,5.141,5.141,5.141,5.1468,5.1588,5.2107,5.2365,5.2394,5.2833,5.3039,2.4377,2.5557,2.6649,2.6606,2.6606,2.6606,2.6606,0.0,0.0,0.0,0.0,0.0,0.0,0.0,0.0,0.0,3.0821,0.0,0.0,0.0,4.1822,4.4495,4.5726,4.6655,4.7425,4.7281,4.692,4.6359,4.631,4.619,4.5902,4.6407,4.6824,4.7064,4.7353,4.7497,4.7497,4.6463,4.5902,4.5878,4.482,4.4285,4.4285,4.4285,4.4285,4.4285,4.4285,4.4285,4.4285,4.4285,4.4285,4.4285,4.4285,4.4631,4.5123,4.5123,4.5434,4.5949,4.6435,4.6709,4.7047,4.8555,4.8727,4.853,4.93,4.9276,4.9032,4.9032,4.9249,4.9493,4.9493,4.9738,5.001,5.001,5.001,5.001,5.001,5.001,5.001,5.001,5.001,5.001,5.001,5.001,5.001,5.001,5.0235,5.0404,5.0404,5.0934,5.1431,5.1759,5.2274,5.2615,5.2588,5.2243,5.1785,5.1209,5.1722,5.1933,5.1617,5.1904,5.2049,5.2049,5.2339,5.2459,5.2459,5.2833,5.3007,5.3007,5.3355,5.3474,2.3965,2.499,2.6059,2.6322,2.6496,2.6584,0.0,0.0,0.0,0.0,0.0,0.0,0.0,0.0,0.0,0.0,0.0,0.0,3.6714,3.9772,4.2238,4.3891,4.5083,4.6166,4.7161,4.692,4.6487,4.5926,4.5974,4.5974,4.5902,4.6407,4.692,4.7377,4.7473,4.7473,4.7377,4.6415,4.5902,4.5878,4.482,4.4285,4.4285,4.4285,4.4285,4.4285,4.4285,4.4285,4.4285,4.4285,4.4285,4.4285,4.4285,4.4285,4.4285,4.4285,4.4285,4.4316,4.447,4.5184,4.6431,4.8813,4.9129,4.8758,4.9529,4.9897,5.001,5.001,5.001,5.001,5.001,5.001,5.001,5.001,5.001,5.001,5.001,5.001,5.001,5.001,5.001,5.001,5.001,5.001,5.001,5.001,5.0432,5.0767,5.0767,5.1211,5.1595,5.1787,5.2221,5.2543,5.2703,5.3211,5.3039,5.1965,5.2426,5.2455,5.1907,5.2426,5.2743,5.2743,5.3239,5.3474,5.3474,5.3474,5.3474,5.3474,5.3474,5.3474,2.512,2.6016,2.6321,2.5599,2.6016,2.6496,0.0,0.0,0.0,0.0,0.0,0.0,0.0,0.0,0.0,0.0,0.0,3.6449,0.0,0.0,4.2626,4.469,4.5102,4.5469,4.607,4.6455,4.6487,4.5926,4.631,4.6359,4.5926,4.6407,4.6752,4.6824,4.7257,4.7281,4.6848,4.619,4.5902,4.5878,4.482,4.4285,4.4285,4.4285,4.4285,4.4285,4.4285,4.4285,4.4285,4.4285,4.4285,4.4285,4.4285,4.4285,4.4285,4.4285,4.4285,4.444,4.5276,4.619,4.7057,4.7501,4.8061,4.8642,4.8758,4.9358,5.001,5.001,5.001,5.001,5.001,5.001,5.001,5.001,5.001,5.001,5.001,5.001,5.001,5.001,5.001,5.001,5.001,5.001,5.001,5.001,5.0066,5.0151,5.0151,5.0235,5.0683,5.1677,5.1868,5.2329,5.3263,5.3448,5.3416,5.3213,5.33,5.3326,5.3184,5.3326,5.3355,5.3355,5.3471,5.3474,5.3474,5.3474,5.3474,5.3474,5.3474,5.3474,2.4401,2.5273,2.5862,2.5928,2.7064,2.8047,0.0,0.0,0.0,0.0,0.0,0.0,0.0,0.0,0.0,0.0,0.0,3.8747,4.0195,4.1708,4.3152,0.0,4.5127,4.5734,4.6262,4.6583,4.6607,4.6335,4.6551,4.6575,4.6335,4.6848,4.7136,4.7136,4.7377,4.7257,4.6728,4.6166,4.5758,4.5469,4.4676,4.4285,4.4285,4.4285,4.4285,4.4285,4.4285,4.4285,4.4285,4.4285,4.4285,4.4285,4.4285,4.4285,4.4285,4.4285,4.4285,4.444,4.5434,4.5707,4.5798,4.6879,4.715,4.7298,4.8294,4.8902,4.9358,4.9868,5.001,5.001,5.001,5.001,5.001,5.001,5.001,5.001,5.001,5.001,5.001,5.001,5.001,5.001,5.001,5.001,5.001,5.001,5.001,5.001,5.001,5.0292,5.0711,5.1266,5.184,5.2435,5.2972,5.3316,5.3474,5.3474,5.3474,5.3474,5.3474,5.3474,5.3474,5.3474,5.3474,5.3474,5.3474,5.3474,5.3474,5.3474,5.3474,5.3474,2.403,2.477,2.5599,2.6518,0.0,0.0,0.0,0.0,0.0,0.0,0.0,0.0,0.0,3.1695,0.0,3.6597,3.8908,4.0471,4.1012,4.2497,4.3687,4.4089,4.5055,4.5878,4.6295,4.6527,4.6704,4.6704,4.6824,4.6896,4.6896,4.7281,4.7497,4.7497,4.7377,4.7064,4.6535,4.5974,4.5517,4.5085,4.458,4.4285,4.4285,4.4285,4.4285,4.4285,4.4285,4.4285,4.4285,4.4285,4.4285,4.4285,4.4285,4.4285,4.4285,4.4285,4.4285,4.4409,4.5184,4.4939,4.4563,4.604,4.619,4.607,4.7505,4.8091,4.8469,4.9415,4.9671,4.9727,4.9953,5.001,5.001,5.001,5.001,5.001,5.001,5.001,5.001,5.001,5.001,5.001,5.001,5.001,5.001,5.001,5.001,5.001,5.001,5.0404,5.0795,5.1072,5.1895,5.2516,5.2783,5.3237,5.3474,5.3474,5.3474,5.3474,5.3474,5.3474,5.3474,5.3474,5.3474,5.3474,5.3474,5.3474,5.3474,5.3474,5.3474,5.3474,2.536,2.5797,2.6081,2.702,0.0,0.0,0.0,0.0,0.0,0.0,0.0,0.0,0.0,3.3792,3.6252,3.797,4.0098,4.1722,4.2342,4.3462,4.4247,4.4271,4.4813,4.5181,4.5205,4.6118,4.6704,4.6704,4.7161,4.7449,4.7449,4.7473,4.7497,4.7497,4.7016,4.6511,4.595,4.5421,4.5133,4.5085,4.458,4.4285,4.4285,4.4285,4.4285,4.4285,4.4285,4.4285,4.4285,4.4285,4.4285,4.4285,4.4285,4.4285,4.4285,4.4285,4.4285,4.4316,4.4378,4.4347,4.4316,4.447,4.5092,4.5828,4.5949,4.661,4.7501,4.844,4.87,4.8902,4.9756,5.001,5.001,5.001,5.001,5.001,5.001,5.001,5.001,5.001,5.001,5.001,5.001,5.001,5.001,5.001,5.001,5.001,5.001,5.0038,5.0488,5.1623,5.1814,5.2302,5.3343,5.3474,5.3474,5.3474,5.3474,5.3474,5.3474,5.3474,5.3474,5.3474,5.3474,5.3474,5.3474,5.3474,5.3474,5.3474,5.3474,5.3474,2.4792,2.5448,2.6125,2.7086,0.0,0.0,0.0,0.0,0.0,0.0,0.0,0.0,0.0,0.0,3.7273,3.9893,4.1036,4.2154,4.3716,4.4143,4.4285,4.4285,4.5085,4.559,4.559,4.6583,4.7209,4.7209,4.7401,4.7497,4.7497,4.7497,4.7497,4.7497,4.6992,4.6431,4.5902,4.5037,4.4436,4.41,4.4244,4.4285,4.4285,4.4285,4.4285,4.4285,4.4285,4.4285,4.4285,4.4285,4.4285,4.4285,4.4285,4.4285,4.4285,4.4285,4.4285,4.4285,4.4285,4.4285,4.4285,4.4285,4.4563,4.497,4.5616,4.604,4.655,4.7446,4.8149,4.8815,4.9755,5.001,5.001,5.001,5.001,5.001,5.001,5.001,5.001,5.001,5.001,5.001,5.001,5.001,5.001,5.001,5.001,5.001,5.001,5.032,5.0739,5.1183,5.1868,5.2596,5.3422,5.3474,5.3474,5.3474,5.3474,5.3474,5.3474,5.3474,5.3474,5.3474,5.3474,5.3474,5.3474,5.3474,5.3474,5.3474,5.3474,5.3474,2.4443,2.5097,2.5906,0.0,0.0,0.0,0.0,0.0,0.0,0.0,0.0,0.0,0.0,0.0,0.0,0.0,4.1884,4.2793,4.4615,4.4554,4.4285,4.4285,4.5253,4.5902,4.5902,4.6872,4.7497,4.7497,4.7497,4.7497,4.7497,4.7497,4.7425,4.7257,4.6551,4.5926,4.5397,4.434,4.3649,4.3289,4.3673,4.3811,4.3811,4.3811,4.3811,4.3811,4.3811,4.3907,4.4051,4.4051,4.4148,4.4285,4.4285,4.4285,4.4285,4.4285,4.4285,4.4285,4.4285,4.4285,4.4285,4.4285,4.4285,4.444,4.5123,4.5337,4.5525,4.6491,4.7416,4.8382,4.9301,4.9783,5.001,5.001,5.001,5.001,5.001,5.001,5.001,5.001,5.001,5.001,5.001,5.001,5.001,5.001,5.001,5.001,5.001,5.0376,5.0767,5.1155,5.203,5.2837,5.3448,5.3474,5.3474,5.3474,5.3474,5.3474,5.3474,5.3474,5.3474,5.3474,5.3474,5.3474,5.3474,5.3474,5.3474,5.3474,5.3474,5.3474,2.4637,2.4856,0.0,0.0,0.0,0.0,0.0,0.0,0.0,0.0,0.0,0.0,0.0,0.0,0.0,4.1337,4.2599,4.3734,4.4942,4.4621,4.4285,4.4285,4.5253,4.5902,4.5902,4.6872,4.7497,4.7497,4.7497,4.7497,4.7497,4.7497,4.7257,4.6704,4.5638,4.4845,4.4285,4.3289,4.2789,4.2789,4.2765,4.2789,4.2789,4.2789,4.2789,4.2789,4.2789,4.3078,4.3505,4.3505,4.3811,4.4285,4.4285,4.4285,4.4285,4.4285,4.4285,4.4285,4.4285,4.4285,4.4285,4.4285,4.4285,4.4285,4.4285,4.4285,4.4501,4.5519,4.6461,4.7412,4.8353,4.9301,5.001,5.001,5.001,5.001,5.001,5.001,5.001,5.001,5.001,5.001,5.001,5.001,5.001,5.001,5.001,5.001,5.001,5.001,5.0488,5.1677,5.2274,5.2865,5.3448,5.3474,5.3474,5.3474,5.3474,5.3474,5.3474,5.3474,5.3474,5.3474,5.3474,5.3474,5.3474,5.3474,5.3474,5.3474,5.3474,5.3474,2.455,2.5317,0.0,0.0,0.0,0.0,0.0,0.0,0.0,0.0,0.0,0.0,0.0,0.0,0.0,4.1213,4.2568,4.3726,4.475,4.4865,4.4724,4.4333,4.5253,4.5902,4.5902,4.6872,4.7497,4.7497,4.7497,4.7329,4.6968,4.6944,4.6535,4.559,4.4917,4.4292,4.3739,4.2735,4.2236,4.2236,4.1851,4.2067,4.2789,4.2789,4.2789,4.2789,4.2789,4.2886,4.303,4.3361,4.3811,4.4285,4.4285,4.4285,4.4285,4.4285,4.4285,4.4285,4.4285,4.4285,4.4285,4.4285,4.4285,4.4285,4.4285,4.4285,4.4347,4.4662,4.5919,4.7265,4.7534,4.8813,5.001,5.001,5.001,5.001,5.001,5.001,5.001,5.001,5.001,5.001,5.001,5.001,5.001,5.001,5.001,5.001,5.001,5.0376,5.0934,5.1732,5.2329,5.2921,5.3448,5.3474,5.3474,5.3474,5.3474,5.3474,5.3474,5.3474,5.3474,5.3474,5.3474,5.3474,5.3474,5.3474,5.3474,5.3474,5.3474,5.3474,2.5009,0.0,0.0,0.0,0.0,0.0,0.0,0.0,0.0,0.0,0.0,0.0,0.0,3.8535,0.0,4.1188,4.2713,4.3945,4.4727,4.4976,4.5061,4.4965,4.5517,4.5974,4.619,4.7016,4.7425,4.7209,4.7185,4.6968,4.6407,4.6166,4.5662,4.482,4.4075,4.3457,4.2904,4.2091,4.1682,4.1682,4.1586,4.1755,4.2164,4.2164,4.2164,4.2188,4.238,4.2477,4.2525,4.3216,4.3667,4.4003,4.4244,4.4285,4.4285,4.4285,4.4285,4.4285,4.4285,4.4285,4.4285,4.4285,4.4285,4.4285,4.4285,4.4285,4.4285,4.4285,4.5434,4.673,4.7116,4.8321,4.9529,4.9925,5.001,5.001,5.001,5.001,5.001,5.001,5.001,5.001,5.001,5.001,5.001,5.001,5.0207,5.0376,5.0376,5.0878,5.1486,5.2059,5.2437,5.2892,5.3448,5.3474,5.3474,5.3474,5.3474,5.3474,5.3474,5.3474,5.3474,5.3474,5.3474,5.3474,5.3474,5.3474,5.3474,5.3474,5.3474,5.3474,0.0,0.0,0.0,0.0,0.0,0.0,0.0,0.0,0.0,0.0,0.0,3.885,3.8741,3.9432,4.0289,4.1232,4.2921,4.4275,4.4745,4.4984,4.5253,4.5686,4.5782,4.6022,4.6535,4.704,4.7161,4.668,4.6631,4.6359,4.5782,4.5301,4.4748,4.4124,4.3192,4.2477,4.1947,4.1442,4.1201,4.1225,4.1706,4.1682,4.1201,4.1249,4.1249,4.1249,4.173,4.1947,4.2067,4.2976,4.3433,4.3553,4.4051,4.4268,4.4285,4.4285,4.4285,4.4285,4.4285,4.4285,4.4285,4.4285,4.4285,4.4285,4.4285,4.4285,4.4285,4.4285,4.5031,4.601,4.6849,4.7828,4.8815,4.9671,4.9953,5.001,5.001,5.001,5.001,5.001,5.001,5.001,5.001,5.001,5.001,5.001,5.0488,5.0878,5.0989,5.1458,5.2004,5.2516,5.265,5.289,5.3448,5.3474,5.353,5.359,5.359,5.3617,5.3675,5.3561,5.3474,5.3474,5.3474,5.3474,5.3474,5.3474,5.3532,5.359,5.359,5.3619,0.0,2.6846,0.0,0.0,0.0,0.0,0.0,0.0,0.0,0.0,3.8563,3.9197,3.8401,3.9477,4.063,4.1235,4.2889,4.4125,4.4179,4.4714,4.4989,4.47,4.5013,4.5325,4.5421,4.5926,4.619,4.607,4.607,4.5638,4.47,4.4556,4.3859,4.2519,4.2284,4.1923,4.1394,4.1273,4.1201,4.1201,4.1321,4.1321,4.1196,4.1634,4.161,4.1225,4.1321,4.161,4.2019,4.2236,4.2784,4.3529,4.3649,4.3931,4.4285,4.4285,4.4285,4.4285,4.4285,4.4285,4.4285,4.4285,4.4285,4.4285,4.4285,4.4285,4.4285,4.4285,4.5031,4.5858,4.604,4.7328,4.8642,4.8844,4.9472,5.001,5.001,5.001,5.001,5.001,5.001,5.001,5.001,5.001,5.001,5.001,5.0123,5.0544,5.1486,5.1732,5.1977,5.2383,5.2945,5.3343,5.3474,5.3474,5.3706,5.4229,5.4258,5.449,5.4981,5.4025,5.3474,5.3474,5.3474,5.3474,5.3474,5.3474,5.3791,5.4258,5.4258,5.4546,0.0,0.0,0.0,0.0,0.0,0.0,0.0,0.0,0.0,3.7833,3.8913,3.9765,3.9231,3.9878,4.065,4.1206,4.2601,4.3726,4.4006,4.4642,4.5085,4.5085,4.5085,4.5205,4.5469,4.5734,4.5782,4.5541,4.5277,4.4772,4.3955,4.3451,4.2832,4.2019,4.1755,4.149,4.1201,4.1201,4.1201,4.1201,4.1466,4.1586,4.1586,4.161,4.1466,4.1201,4.1201,4.1369,4.1658,4.1899,4.2477,4.3168,4.3409,4.3835,4.4285,4.4285,4.4285,4.4285,4.4285,4.4285,4.4285,4.4285,4.4453,4.4652,4.4357,4.4676,4.5013,4.4772,4.5244,4.5944,4.6415,4.7248,4.8245,4.9193,4.9702,5.001,5.001,5.001,5.001,5.001,5.001,5.001,5.001,5.001,5.001,5.001,5.032,5.0878,5.1677,5.2275,5.2678,5.2892,5.3639,5.411,5.411,5.4313,5.4575,5.4923,5.4952,5.5068,5.5387,5.4778,5.4429,5.4429,5.4429,5.4429,5.4429,5.4429,5.4604,5.4952,5.4952,5.5097,0.0,0.0,0.0,0.0,0.0,0.0,0.0,0.0,3.8117,3.8117,3.9209,4.0181,4.0181,4.0344,4.0702,4.1357,4.2404,4.3363,4.4056,4.4618,4.5133,4.5565,4.5229,4.5133,4.5565,4.5614,4.5397,4.4869,4.4412,4.3883,4.3289,4.2452,4.1971,4.1875,4.1442,4.1201,4.1201,4.1201,4.1201,4.1225,4.1658,4.1875,4.1851,4.1418,4.1201,4.1201,4.1201,4.1201,4.1249,4.1682,4.2188,4.2693,4.3072,4.3619,4.4172,4.4172,4.4244,4.4285,4.4285,4.4285,4.434,4.4412,4.4748,4.5037,4.47,4.5205,4.5806,4.5373,4.5565,4.6046,4.6725,4.7046,4.7614,4.9343,4.9762,4.9866,5.0224,5.0307,5.0307,5.0307,5.0227,5.0118,5.0037,5.001,5.001,5.001,5.0572,5.1266,5.2004,5.2919,5.3474,5.3474,5.4546,5.5182,5.5037,5.5242,5.5445,5.5591,5.5591,5.562,5.5736,5.5736,5.5736,5.5736,5.5533,5.5416,5.5416,5.5416,5.5474,5.5591,5.5591,5.5649,0.0,0.0,0.0,0.0,0.0,0.0,0.0,0.0,3.8117,0.0,3.8956,3.9678,3.9678,4.0511,4.1389,4.207,4.2806,4.3514,4.4194,4.435,4.4429,4.4532,4.4429,4.4429,4.4532,4.4501,4.4292,4.3739,4.3673,4.3192,4.226,4.2067,4.1779,4.1321,4.1249,4.1201,4.1201,4.1201,4.1201,4.1201,4.1273,4.1321,4.1321,4.1249,4.1201,4.1201,4.1201,4.1201,4.1225,4.1297,4.1634,4.2116,4.2188,4.2784,4.3595,4.3595,4.3907,4.4285,4.4285,4.4285,4.4357,4.4845,4.5037,4.5181,4.5565,4.5782,4.5878,4.5806,4.583,4.5814,4.5483,4.606,4.684,4.7479,4.8221,4.9309,5.1136,5.1555,5.1555,5.1555,5.115,5.0607,5.0091,5.001,5.001,5.001,5.0095,5.0906,5.2998,5.3395,5.3474,5.3474,5.5591,5.6665,5.5968,5.5591,5.5649,5.6229,5.6287,5.652,5.7013,5.7042,5.7042,5.7042,5.5968,5.5416,5.5416,5.5416,5.5707,5.6287,5.6287,5.6549,2.6496,2.9008,3.1411,0.0,3.484,0.0,3.6202,0.0,3.7461,3.8008,3.8444,3.8935,3.9513,4.0531,4.1428,4.18,4.2412,4.3002,4.3414,4.3457,4.3553,4.3811,4.3835,4.3979,4.4261,4.4027,4.3739,4.3529,4.2976,4.2477,4.2019,4.173,4.1442,4.1225,4.1201,4.1201,4.1201,4.1201,4.1201,4.1201,4.1201,4.1201,4.1201,4.1201,4.1201,4.1201,4.1201,4.1201,4.1201,4.1201,4.1538,4.1995,4.1995,4.2591,4.3505,4.3505,4.3835,4.4333,4.4652,4.4748,4.4845,4.5373,4.5734,4.5974,4.5902,4.6343,4.6752,4.6407,4.6551,4.6647,4.6118,4.6327,4.6865,4.7711,4.8342,4.9255,5.1074,5.1394,5.1421,5.1744,5.1582,5.131,5.1039,5.0824,5.0525,5.0091,5.001,5.0376,5.1403,5.154,5.2595,5.5338,5.6636,5.7158,5.681,5.6578,5.6607,5.6897,5.6897,5.7013,5.7303,5.7303,5.7303,5.7303,5.6752,5.6461,5.6461,5.6461,5.6636,5.6897,5.6897,5.7042,0.0,0.0,3.0515,3.27,3.4054,3.5015,0.0,0.0,3.6894,3.7593,3.7942,3.8375,3.9308,4.052,4.1416,4.151,4.2304,4.3021,4.3156,4.3198,4.3241,4.3481,4.3505,4.3595,4.3883,4.3577,4.3265,4.312,4.2399,4.1947,4.1803,4.1418,4.1201,4.1201,4.1201,4.1201,4.1201,4.1201,4.1201,4.1201,4.1201,4.1201,4.1201,4.1201,4.1201,4.1201,4.1201,4.1201,4.1201,4.1201,4.1442,4.1803,4.1803,4.2399,4.3313,4.3313,4.3715,4.4357,4.4917,4.5109,4.5205,4.5878,4.6359,4.6655,4.6383,4.6872,4.7425,4.7016,4.7185,4.7353,4.668,4.6511,4.6779,4.7889,4.8329,4.9006,5.0932,5.1367,5.1394,5.1527,5.169,5.169,5.1392,5.1367,5.1041,5.0146,5.0525,5.1135,5.1762,5.1591,5.2794,5.6451,5.7106,5.7303,5.7303,5.7303,5.7303,5.7303,5.7303,5.7303,5.7303,5.7303,5.7303,5.7303,5.7303,5.7303,5.7303,5.7303,5.7303,5.7303,5.7303,5.7303,0.0,2.643,0.0,3.0993,3.2809,0.0,0.0,0.0,3.6697,3.6762,3.7483,3.8301,3.8989,4.0476,4.1604,4.1612,4.3067,4.4206,4.4213,4.4244,4.4051,4.3577,4.3505,4.3337,4.291,4.2837,4.2621,4.2116,4.2043,4.1779,4.1273,4.1225,4.1201,4.1201,4.1201,4.1201,4.1201,4.1201,4.1201,4.1201,4.1201,4.1201,4.1201,4.1201,4.1201,4.1201,4.1201,4.1201,4.1201,4.1201,4.1225,4.1249,4.1249,4.1899,4.2837,4.2837,4.3457,4.4357,4.4917,4.5109,4.5277,4.6343,4.668,4.68,4.7281,4.7449,4.7497,4.7473,4.7473,4.7257,4.619,4.5926,4.617,4.7055,4.7278,4.8099,5.112,5.2205,5.2289,5.115,5.1392,5.1446,5.028,5.1012,5.1365,5.02,5.1964,5.4242,5.6621,5.5907,5.5297,5.5583,5.6623,5.7303,5.7303,5.7303,5.7303,5.7303,5.7303,5.7303,5.7303,5.7303,5.7303,5.7303,5.7303,5.7303,5.7303,5.7303,5.7303,5.7303,5.7303,5.7303,0.0,0.0,0.0,2.9379,3.1367,3.3049,3.371,3.4818,3.5932,3.6566,3.6959,3.7498,3.8409,3.9954,4.1107,4.1126,4.2089,4.2711,4.2375,4.2327,4.2375,4.2519,4.2519,4.2711,4.3192,4.2982,4.2837,4.2952,4.2351,4.1923,4.173,4.1394,4.1201,4.1201,4.1201,4.1201,4.1201,4.1201,4.1201,4.1201,4.1201,4.1201,4.1201,4.1201,4.1201,4.1201,4.1201,4.1201,4.1201,4.1201,4.1201,4.1201,4.1201,4.1658,4.2332,4.2669,4.3216,4.3955,4.5181,4.5614,4.5782,4.6872,4.7209,4.7257,4.7449,4.7497,4.7497,4.7497,4.7497,4.7257,4.6166,4.5902,4.6122,4.6983,4.7501,4.8309,5.0238,5.1419,5.1988,5.1555,5.1961,5.2178,5.1636,5.2343,5.2805,5.2371,5.3049,5.4224,5.5904,5.6423,5.6652,5.6652,5.7049,5.7303,5.7303,5.7303,5.7303,5.7303,5.7303,5.7303,5.7303,5.7303,5.7303,5.7303,5.7303,5.7303,5.7303,5.7303,5.7303,5.7303,5.7303,5.7303,2.3591,0.0,0.0,0.0,0.0,3.1389,3.3185,3.4032,3.4818,3.5954,3.6472,3.7089,3.8177,3.9458,4.0396,4.0605,4.1371,4.1816,4.1457,4.1585,4.1803,4.1971,4.1995,4.2188,4.2687,4.2452,4.2404,4.2711,4.2086,4.173,4.173,4.1394,4.1201,4.1201,4.1201,4.1201,4.1201,4.1201,4.1201,4.1201,4.1201,4.1201,4.1201,4.1201,4.1201,4.1201,4.1201,4.1201,4.1201,4.1201,4.1201,4.1201,4.1201,4.1538,4.2067,4.2597,4.3102,4.3746,4.5325,4.5902,4.607,4.7161,4.7497,4.7497,4.7497,4.7497,4.7497,4.7497,4.7497,4.7257,4.6166,4.5868,4.6098,4.6997,4.7766,4.8663,4.9998,5.1066,5.1744,5.1527,5.2154,5.2585,5.226,5.2642,5.313,5.3537,5.3592,5.4104,5.5525,5.6279,5.6851,5.7247,5.7303,5.7303,5.7303,5.7303,5.7303,5.7303,5.7303,5.7303,5.7303,5.7303,5.7303,5.7303,5.7303,5.7303,5.7303,5.7303,5.7303,5.7303,5.7303,5.7303,0.0,0.0,0.0,0.0,0.0,0.0,3.3328,3.3644,3.3431,3.484,3.5976,3.7119,3.8355,3.8994,3.9493,3.9986,4.1014,4.1788,4.1788,4.2329,4.2549,4.2043,4.1971,4.1779,4.1273,4.1196,4.1249,4.1249,4.1249,4.1196,4.1196,4.1225,4.1201,4.1201,4.1201,4.1201,4.1201,4.1201,4.1201,4.1201,4.1201,4.1201,4.1201,4.1201,4.1201,4.1201,4.1201,4.1201,4.1201,4.1201,4.1201,4.1201,4.1201,4.1538,4.2043,4.2573,4.3078,4.3721,4.5301,4.5878,4.607,4.7136,4.7497,4.7497,4.7497,4.7497,4.7497,4.7497,4.7497,4.7257,4.6166,4.5837,4.601,4.6968,4.7886,4.8974,5.0569,5.1365,5.1636,5.1041,5.1882,5.2504,5.1907,5.1853,5.2233,5.3429,5.3592,5.4166,5.5846,5.5701,5.5904,5.7134,5.7275,5.7275,5.7303,5.7303,5.7303,5.7303,5.7303,5.7303,5.7303,5.7303,5.7303,5.7303,5.7303,5.7303,5.7303,5.7303,5.7303,5.7303,5.7303,5.7303,2.2805,0.0,0.0,0.0,0.0,0.0,0.0,3.0145,3.1462,3.3282,3.4481,3.5772,3.7673,3.809,3.8353,3.8912,4.0342,4.1372,4.1372,4.1542,4.1586,4.1442,4.1442,4.1514,4.1755,4.1779,4.1947,4.2332,4.1995,4.1779,4.1779,4.1418,4.1201,4.1201,4.1201,4.1201,4.1201,4.1201,4.1201,4.1201,4.1201,4.1201,4.1201,4.1201,4.1201,4.1201,4.1201,4.1201,4.1201,4.1201,4.1201,4.1201,4.1201,4.1297,4.149,4.2019,4.2549,4.3174,4.434,4.5253,4.5998,4.6704,4.7185,4.7497,4.7497,4.7497,4.7497,4.7497,4.7497,4.7257,4.6166,4.5329,4.5153,4.6819,4.7412,4.8189,5.0398,5.1365,5.1744,5.1582,5.2151,5.2585,5.2287,5.2723,5.3212,5.3537,5.3592,5.3924,5.4823,5.4851,5.5263,5.6509,5.6652,5.6822,5.7275,5.7303,5.7303,5.7303,5.7303,5.7303,5.7303,5.7303,5.7303,5.7303,5.7303,5.7303,5.7303,5.7303,5.7303,5.7303,5.7303,5.7303,0.0,0.0,0.0,0.0,0.0,0.0,2.8091,2.8888,2.9908,3.2319,3.3817,3.5191,3.6851,3.7702,3.8353,3.8899,3.9862,4.051,4.0469,4.0688,4.0932,4.1148,4.1201,4.1321,4.1634,4.1682,4.1803,4.2116,4.1851,4.1682,4.1682,4.1369,4.1201,4.1201,4.1201,4.1201,4.1201,4.1201,4.1201,4.1201,4.1201,4.1201,4.1201,4.1201,4.1201,4.1201,4.1201,4.1201,4.1201,4.1201,4.1201,4.1201,4.1201,4.1201,4.1273,4.1803,4.2332,4.2934,4.3955,4.5013,4.5974,4.6535,4.7064,4.7497,4.7497,4.7497,4.7497,4.7497,4.7353,4.6968,4.6118,4.5277,4.4984,4.6301,4.6938,4.7825,5.0196,5.1265,5.188,5.2124,5.2669,5.3049,5.294,5.3293,5.3592,5.3592,5.3592,5.3743,5.4077,5.4318,5.4882,5.5904,5.625,5.6537,5.6879,5.7162,5.7303,5.7303,5.7303,5.7303,5.7303,5.7303,5.7303,5.7303,5.7303,5.7303,5.7303,5.7303,5.7303,5.7303,5.7303,5.7303,0.0,0.0,0.0,0.0,0.0,0.0,2.8833,2.8702,2.8683,3.1356,3.3183,3.4616,3.5672,3.7183,3.8431,3.8839,3.9104,3.9296,3.9424,3.994,4.0475,4.0956,4.1004,4.1004,4.1004,4.1004,4.1057,4.1129,4.1177,4.1201,4.1201,4.1201,4.1201,4.1201,4.1201,4.1201,4.1201,4.1201,4.1201,4.1201,4.1201,4.1201,4.1201,4.1201,4.1201,4.1201,4.1201,4.1201,4.1201,4.1201,4.1201,4.1201,4.1201,4.1201,4.1273,4.173,4.2236,4.2837,4.3787,4.4845,4.5806,4.6407,4.6968,4.7425,4.7473,4.7497,4.7497,4.7497,4.7112,4.6607,4.6094,4.5541,4.5216,4.5778,4.6571,4.7755,4.986,5.11,5.1988,5.2558,5.3185,5.3592,5.3592,5.3592,5.3592,5.3592,5.3592,5.3592,5.3592,5.4077,5.4673,5.532,5.5961,5.6308,5.6394,5.6936,5.7303,5.7303,5.7303,5.7303,5.7303,5.7303,5.7303,5.7303,5.7303,5.7303,5.7303,5.7303,5.7303,5.7303,5.7303,5.7303,0.0,0.0,0.0,0.0,0.0,0.0,2.571,2.6553,2.772,2.8656,3.0056,3.1528,3.2907,3.4122,3.4847,3.4583,3.593,3.7608,3.9323,3.967,3.9801,3.9898,3.9922,3.9922,3.9922,3.9922,4.009,4.0523,4.0956,4.1201,4.1201,4.1201,4.1201,4.1201,4.1201,4.1201,4.1201,4.1201,4.1201,4.1201,4.1201,4.1201,4.1201,4.1201,4.1201,4.1201,4.1201,4.1201,4.1201,4.1201,4.1201,4.1201,4.1201,4.1201,4.1196,4.1321,4.1706,4.2236,4.2886,4.377,4.4772,4.5734,4.6407,4.6944,4.7377,4.7497,4.7497,4.7497,4.7112,4.668,4.6583,4.583,4.5312,4.6248,4.6849,4.7652,4.9331,5.0776,5.1988,5.2558,5.3185,5.3592,5.3592,5.3592,5.3592,5.3592,5.3592,5.3592,5.3592,5.3713,5.4017,5.4616,5.5263,5.5874,5.6337,5.6936,5.7303,5.7303,5.7303,5.7303,5.7303,5.7303,5.7303,5.7303,5.7303,5.7303,5.7303,5.7303,5.7303,5.7303,5.7303,5.7303,0.0,0.0,0.0,2.6235,0.0,0.0,0.0,2.6606,2.7246,2.8455,2.9503,3.0566,3.1809,3.2723,3.3429,3.3982,3.516,3.6386,3.7469,3.8551,3.9293,3.9585,3.9609,3.9609,3.9609,3.9609,3.9705,3.9994,4.0234,4.0523,4.0787,4.0787,4.0908,4.1201,4.1201,4.1201,4.1201,4.1201,4.1201,4.1201,4.1201,4.1201,4.1201,4.1201,4.1201,4.1201,4.1201,4.1201,4.1201,4.1201,4.1201,4.1201,4.1201,4.1201,4.1201,4.1201,4.1538,4.2091,4.2597,4.3457,4.4484,4.5541,4.6238,4.6824,4.7353,4.7497,4.7497,4.7497,4.7305,4.704,4.6776,4.6286,4.5886,4.5865,4.6756,4.7889,4.8997,5.0614,5.207,5.2968,5.3402,5.3592,5.3592,5.3592,5.3592,5.3592,5.3592,5.3592,5.3592,5.3592,5.3713,5.4017,5.4937,5.5613,5.5932,5.6766,5.7303,5.7303,5.7303,5.7303,5.7303,5.7303,5.7303,5.7303,5.7303,5.7303,5.7303,5.7303,5.7303,5.7303,5.7303,5.7303,0.0,0.0,0.0,0.0,0.0,2.6996,0.0,0.0,0.0,2.8677,2.9384,3.0029,3.0927,3.1424,3.2154,3.3381,3.4294,3.4823,3.4727,3.6529,3.8091,3.8767,3.9104,3.9248,3.9152,3.9056,3.9128,3.9441,3.9272,3.9465,4.021,4.0234,4.0475,4.1028,4.1057,4.1105,4.1201,4.1201,4.1201,4.1201,4.1201,4.1201,4.1201,4.1201,4.1201,4.1201,4.1201,4.1201,4.1201,4.1201,4.1201,4.1201,4.1201,4.1201,4.1201,4.1201,4.149,4.1923,4.2452,4.3289,4.434,4.5397,4.6238,4.6944,4.7377,4.7497,4.7497,4.7497,4.7497,4.7401,4.6968,4.68,4.6455,4.5614,4.6737,4.8205,4.8835,5.0472,5.2124,5.3212,5.351,5.3592,5.3592,5.3592,5.3592,5.3592,5.3592,5.3592,5.3592,5.3592,5.3592,5.3592,5.473,5.5496,5.5496,5.6594,5.7303,5.7303,5.7303,5.7303,5.7303,5.7303,5.7303,5.7303,5.7303,5.7303,5.7303,5.7303,5.7303,5.7303,5.7303,5.7303,0.0,0.0,0.0,0.0,2.9114,0.0,0.0,0.0,2.8176,2.7498,0.0,0.0,0.0,0.0,0.0,2.9196,3.0855,3.1984,3.1502,3.3213,3.4919,3.5928,3.73,3.7974,3.7517,3.7036,3.7372,3.8764,3.8022,3.8118,3.9609,3.9705,3.9946,4.0475,4.0475,4.0715,4.1201,4.1201,4.1201,4.1201,4.1201,4.1201,4.1201,4.1201,4.1201,4.1201,4.1201,4.1201,4.1201,4.1201,4.1201,4.1201,4.1201,4.1201,4.1201,4.1201,4.1249,4.1369,4.1899,4.2735,4.3763,4.4845,4.619,4.7425,4.7473,4.7497,4.7497,4.7497,4.7497,4.7497,4.7425,4.7064,4.668,4.6559,4.7283,4.8175,4.8774,5.0442,5.1988,5.2696,5.3239,5.3592,5.3592,5.3592,5.3592,5.3592,5.3592,5.3592,5.3592,5.3592,5.3592,5.3592,5.473,5.5496,5.5496,5.6594,5.7303,5.7303,5.7303,5.7303,5.7303,5.7303,5.7303,5.7303,5.7303,5.7303,5.7303,5.7303,5.7303,5.7303,5.7303,5.7303,0.0,0.0,0.0,0.0,0.0,0.0,2.7772,0.0,2.7817,0.0,0.0,0.0,0.0,0.0,0.0,0.0,3.0443,0.0,3.0516,3.1985,3.3405,3.4174,3.4847,3.5521,3.6218,3.6074,3.6483,3.7781,3.6892,3.6964,3.8575,3.8984,3.9393,3.9922,4.0234,4.0499,4.0715,4.1028,4.1201,4.1201,4.1201,4.1201,4.1201,4.1201,4.1201,4.1201,4.1201,4.1201,4.1201,4.1201,4.1201,4.1201,4.1201,4.1201,4.1201,4.1201,4.1201,4.1297,4.1827,4.2639,4.3794,4.5469,4.6704,4.7497,4.7497,4.7497,4.7497,4.7497,4.7497,4.7425,4.7112,4.6872,4.6559,4.5902,4.6499,4.7511,4.8682,5.0052,5.1421,5.2929,5.3429,5.3592,5.3592,5.3592,5.3592,5.3592,5.3592,5.3592,5.3592,5.3592,5.3592,5.3592,5.473,5.5496,5.5496,5.6594,5.7303,5.7303,5.7303,5.7303,5.7303,5.7303,5.7303,5.7303,5.7303,5.7303,5.7303,5.7303,5.7303,5.7303,5.7303,5.7303,2.9993,0.0,0.0,0.0,0.0,0.0,0.0,0.0,0.0,0.0,0.0,0.0,0.0,0.0,0.0,0.0,0.0,3.0443,0.0,3.0663,0.0,0.0,0.0,3.3573,3.4847,3.4583,3.4944,3.6435,3.5449,3.5641,3.7661,3.8142,3.8671,3.9369,3.9898,4.0234,4.0403,4.0908,4.1201,4.1201,4.1201,4.1201,4.1201,4.1201,4.1201,4.1201,4.1201,4.1201,4.1201,4.1201,4.1201,4.1201,4.1201,4.1201,4.1201,4.1201,4.1201,4.1297,4.1827,4.2735,4.4027,4.6054,4.6872,4.7064,4.7064,4.7064,4.7064,4.7064,4.7064,4.6968,4.6583,4.6455,4.6262,4.5493,4.6064,4.7245,4.8881,4.9959,5.1212,5.322,5.3592,5.3592,5.3592,5.3592,5.3592,5.3592,5.3592,5.3592,5.3592,5.3592,5.3652,5.3833,5.4849,5.5554,5.5729,5.668,5.7303,5.7303,5.7303,5.7303,5.7303,5.7303,5.7303,5.7303,5.7303,5.7303,5.7303,5.7303,5.7303,5.7303,5.7303,5.7303,0.0,0.0,0.0,2.9514,0.0,0.0,0.0,0.0,3.008,0.0,0.0,0.0,0.0,0.0,0.0,0.0,0.0,0.0,0.0,0.0,0.0,0.0,0.0,0.0,3.3308,3.196,3.2106,3.4679,3.3477,3.3958,3.706,3.7228,3.7733,3.8788,3.9369,3.9874,4.0379,4.0908,4.1201,4.1201,4.1201,4.1201,4.1201,4.1201,4.1201,4.1201,4.1201,4.1201,4.1201,4.1201,4.1201,4.1201,4.1201,4.1201,4.1201,4.1201,4.1201,4.1297,4.1827,4.3,4.4556,4.6166,4.6359,4.595,4.595,4.595,4.595,4.595,4.595,4.595,4.5926,4.5926,4.5902,4.5878,4.6595,4.7733,4.9407,5.0497,5.166,5.3275,5.3592,5.3592,5.3592,5.3592,5.3592,5.3592,5.3592,5.3592,5.3592,5.3592,5.3833,5.4408,5.5087,5.5729,5.6308,5.6936,5.7303,5.7303,5.7303,5.7303,5.7303,5.7303,5.7303,5.7303,5.7303,5.7303,5.7303,5.7303,5.7303,5.7303,5.7303,5.7303,3.2901,3.3207,3.3032,3.0759,0.0,0.0,0.0,0.0,0.0,0.0,0.0,0.0,0.0,0.0,0.0,0.0,0.0,0.0,0.0,0.0,0.0,0.0,0.0,0.0,0.0,3.1021,3.1719,3.3669,3.2996,3.3717,3.6531,3.7012,3.7517,3.8238,3.9152,3.9705,3.9874,4.0739,4.1201,4.1201,4.1201,4.1201,4.1201,4.1201,4.1201,4.1201,4.1201,4.1201,4.1201,4.1201,4.1201,4.1201,4.1201,4.1201,4.1201,4.1201,4.1201,4.1394,4.2621,4.3601,4.4532,4.5758,4.6046,4.5902,4.5902,4.5902,4.5902,4.5902,4.5902,4.5806,4.5469,4.5373,4.5277,4.4941,4.5361,4.6479,4.8778,4.9775,5.0952,5.318,5.3592,5.3592,5.3592,5.3592,5.3592,5.3592,5.3592,5.3592,5.3592,5.3592,5.3833,5.4437,5.5087,5.5758,5.6337,5.6936,5.7303,5.7303,5.7303,5.7303,5.7303,5.7303,5.7303,5.7303,5.7303,5.7303,5.7303,5.7303,5.7303,5.7303,5.7303,5.7303,3.3404,3.3579,3.3377,3.1607,3.0905,0.0,2.915,0.0,3.0445,0.0,0.0,0.0,0.0,0.0,0.0,0.0,0.0,0.0,0.0,2.6604,0.0,0.0,0.0,0.0,0.0,0.0,3.0588,3.2585,3.2226,3.3068,3.5688,3.6531,3.7156,3.7711,3.8936,3.9609,3.9609,4.0643,4.1201,4.1201,4.1201,4.1201,4.1201,4.1201,4.1201,4.1201,4.1201,4.1321,4.149,4.1297,4.1321,4.1466,4.1273,4.1201,4.1201,4.1201,4.1562,4.2182,4.3409,4.4178,4.47,4.5397,4.5493,4.5325,4.5325,4.5325,4.5325,4.5325,4.5325,4.5253,4.4917,4.482,4.4748,4.4357,4.4869,4.6046,4.8487,4.9579,5.0784,5.3146,5.3592,5.3592,5.3592,5.3592,5.3592,5.3592,5.3592,5.3592,5.3592,5.3592,5.3924,5.4762,5.5261,5.5845,5.6652,5.7078,5.7303,5.7303,5.7303,5.7303,5.7303,5.7303,5.7303,5.7303,5.7303,5.7303,5.7303,5.7303,5.7303,5.7303,5.7303,5.7303]},{"header":{"parameterUnit":"m.s-1","parameterCategory":1,"la1":30.6,"la2":29.2853,"lo1":-89.7004,"lo2":-87.6739,"dy":0.0162,"dx":0.0183,"nx":112,"ny":82,"refTime":"2025-04-13T18:00:00:Z","depth":0,"parameterNumber":3,"parameterNumberName":"V-component_of_WINDS"},"data":[0.0,0.0,0.0,0.0,0.0,0.0,0.0,0.0,0.0,0.0,0.0,0.0,0.0,0.0,0.0,0.0,0.0,0.0,0.0,0.0,0.0,0.0,0.0,0.0,0.0,0.0,0.0,0.0,0.0,0.0,0.0,0.0,0.0,0.0,0.0,0.0,0.0,0.0,0.0,0.0,0.0,0.0,0.0,0.0,0.0,0.0,0.0,0.0,0.0,0.0,0.0,0.0,0.0,0.0,0.0,0.0,0.0,0.0,0.0,0.0,0.0,0.0,0.0,0.0,0.0,0.0,0.0,0.0,0.0,0.0,0.0,0.0,0.0,0.0,0.0,0.0,0.0,0.0,0.0,0.0,0.0,0.0,0.0,0.0,0.0,0.0,0.0,0.0,0.0,0.0,0.0,1.9264,2.0519,2.1316,2.1316,2.1178,2.0129,1.7937,0.0,0.0,0.0,0.0,0.0,0.0,0.0,0.0,0.0,0.0,0.0,0.0,0.0,0.0,0.0,0.0,0.0,0.0,0.0,0.0,0.0,0.0,0.0,0.0,0.0,0.0,0.0,0.0,0.0,0.0,0.0,0.0,0.0,0.0,0.0,0.0,0.0,0.0,0.0,0.0,0.0,0.0,0.0,0.0,0.0,0.0,0.0,0.0,0.0,0.0,0.0,0.0,0.0,0.0,0.0,0.0,0.0,0.0,0.0,0.0,0.0,0.0,0.0,0.0,0.0,0.0,0.0,0.0,0.0,0.0,0.0,0.0,0.0,0.0,0.0,0.0,0.0,0.0,0.0,0.0,0.0,0.0,0.0,0.0,0.0,0.0,0.0,0.0,0.0,0.0,0.0,0.0,0.0,0.0,0.0,0.0,0.0,0.0,0.0,0.0,0.0,0.0,0.0,0.0,1.8506,2.1176,2.1658,2.1796,2.1796,2.1016,1.9733,1.7914,0.0,0.0,0.0,0.0,0.0,0.0,0.0,0.0,0.0,0.0,0.0,0.0,0.0,0.0,0.0,0.0,0.0,0.0,0.0,0.0,0.0,0.0,0.0,0.0,0.0,0.0,0.0,0.0,0.0,0.0,0.0,0.0,0.0,0.0,0.0,0.0,0.0,0.0,0.0,0.0,0.0,0.0,0.0,0.0,0.0,0.0,0.0,0.0,0.0,0.0,0.0,0.0,0.0,0.0,0.0,0.0,0.0,0.0,0.0,0.0,0.0,0.0,0.0,0.0,0.0,0.0,0.0,0.0,0.0,0.0,0.0,0.0,0.0,0.0,0.0,0.0,0.0,0.0,0.0,0.0,0.0,0.0,0.0,0.0,0.0,0.0,0.0,0.0,0.0,0.0,0.0,0.0,0.0,0.0,0.0,0.0,0.0,0.0,0.0,0.0,0.0,0.0,0.0,1.8598,1.9884,2.2111,2.2576,2.249,2.1957,2.1475,2.0282,1.8111,1.6824,0.0,0.0,0.0,0.0,0.0,0.0,0.0,0.0,0.0,0.0,0.0,0.0,0.0,0.0,0.0,0.0,0.0,0.0,0.0,0.0,0.0,0.0,0.0,0.0,0.0,0.0,0.0,0.0,0.0,0.0,0.0,0.0,0.0,0.0,0.0,0.0,0.0,0.0,0.0,0.0,0.0,0.0,0.0,0.0,0.0,0.0,0.0,0.0,0.0,0.0,0.0,0.0,0.0,0.0,0.0,0.0,0.0,0.0,0.0,0.0,0.0,0.0,0.0,0.0,0.0,0.0,0.0,0.0,0.0,0.0,0.0,0.0,0.0,0.0,0.0,0.0,0.0,0.0,0.0,0.0,0.0,0.0,0.0,0.0,0.0,0.0,0.0,0.0,0.0,0.0,0.0,0.0,0.0,0.0,0.0,0.0,0.0,0.0,0.0,0.0,0.0,0.0,2.0741,2.1635,2.3069,2.3425,2.3224,2.233,2.1825,2.0564,1.8258,1.6802,0.0,0.0,0.0,0.0,0.0,0.0,0.0,0.0,0.0,0.0,0.0,0.0,0.0,0.0,0.0,0.0,0.0,0.0,0.0,0.0,0.0,0.0,0.0,0.0,0.0,0.0,0.0,0.0,0.0,0.0,0.0,0.0,0.0,0.0,0.0,0.0,0.0,0.0,0.0,0.0,0.0,0.0,0.0,0.0,0.0,0.0,0.0,0.0,0.0,0.0,0.0,0.0,0.0,0.0,0.0,0.0,0.0,0.0,0.0,0.0,0.0,0.0,0.0,0.0,0.0,0.0,0.0,0.0,0.0,0.0,0.0,0.0,0.0,0.0,0.0,0.0,0.0,0.0,0.0,0.0,0.0,0.0,0.0,0.0,0.0,0.0,0.0,0.0,0.0,0.0,0.0,0.0,0.0,0.0,0.0,0.0,0.0,0.0,0.0,0.0,0.0,0.0,2.1773,2.3591,2.4618,2.4384,2.3907,2.3338,2.1589,1.9823,1.8212,1.6265,0.0,0.0,0.0,0.0,0.0,0.0,0.0,0.0,0.0,0.0,0.0,0.0,0.0,0.0,0.0,0.0,0.0,0.0,0.0,0.0,0.0,0.0,0.0,0.0,0.0,0.0,0.0,0.0,0.0,0.0,0.0,0.0,0.0,0.0,0.0,0.0,0.0,0.0,0.0,0.0,0.0,0.0,0.0,0.0,0.0,0.0,0.0,0.0,0.0,0.0,0.0,0.0,0.0,0.0,0.0,0.0,0.0,0.0,0.0,0.0,0.0,0.0,0.0,0.0,0.0,0.0,0.0,0.0,0.0,0.0,0.0,0.0,0.0,0.0,0.0,0.0,0.0,0.0,0.0,0.0,0.0,0.0,0.0,0.0,0.0,0.0,0.0,0.0,0.0,0.0,0.0,0.0,0.0,0.0,0.0,0.0,0.0,0.0,0.0,0.0,0.0,0.0,2.1865,2.3774,0.0,2.5325,2.5142,2.3998,2.2897,2.1206,1.8744,0.0,0.0,0.0,0.0,0.0,0.0,0.0,0.0,0.0,0.0,0.0,0.0,0.0,0.0,0.0,0.0,0.0,0.0,0.0,0.0,0.0,0.0,0.0,0.0,0.0,0.0,0.0,0.0,0.0,0.0,0.0,0.0,0.0,0.0,0.0,0.0,0.0,0.0,0.0,0.0,0.0,0.0,0.0,0.0,0.0,0.0,0.0,0.0,0.0,0.0,0.0,0.0,0.0,0.0,0.0,0.0,0.0,0.0,0.0,0.0,0.0,0.0,0.0,0.0,0.0,0.0,0.0,0.0,0.0,0.0,0.0,0.0,0.0,0.0,0.0,0.0,0.0,0.0,0.0,0.0,0.0,0.0,0.0,0.0,0.0,0.0,0.0,0.0,0.0,0.0,0.0,0.0,0.0,0.0,0.0,0.0,0.0,0.0,0.0,0.0,0.0,0.0,1.9401,2.214,2.4187,0.0,2.5965,2.5938,2.4545,2.3517,2.1757,1.9057,0.0,0.0,0.0,0.0,0.0,0.0,0.0,0.0,0.0,0.0,0.0,0.0,0.0,0.0,0.0,0.0,0.0,0.0,0.0,0.0,0.0,0.0,0.0,0.0,0.0,0.0,0.0,0.0,0.0,0.0,0.0,0.0,0.0,0.0,0.0,0.0,0.0,0.0,0.0,0.0,0.0,0.0,0.0,0.0,0.0,0.0,0.0,0.0,0.0,0.0,0.0,0.0,0.0,0.0,0.0,0.0,0.0,0.0,0.0,0.0,0.0,0.0,0.0,0.0,0.0,0.0,0.0,0.0,0.0,0.0,0.0,0.0,0.0,0.0,0.0,0.0,0.0,0.0,0.0,0.0,0.0,0.0,0.0,0.0,0.0,0.0,0.0,0.0,0.0,0.0,0.0,0.0,0.0,0.0,0.0,0.0,0.0,0.0,0.0,0.0,0.0,0.0,1.9493,2.2754,2.51,2.565,2.6194,2.608,2.5027,2.3081,2.1062,0.0,0.0,0.0,0.0,0.0,0.0,0.0,0.0,0.0,0.0,0.0,0.0,0.0,0.0,0.0,0.0,0.0,0.0,0.0,0.0,0.0,0.0,0.0,0.0,0.0,0.0,0.0,0.0,0.0,0.0,0.0,0.0,0.0,0.0,0.0,0.0,0.0,0.0,0.0,0.0,0.0,0.0,0.0,0.0,0.0,0.0,0.0,0.0,0.0,0.0,0.0,0.0,0.0,0.0,0.0,0.0,0.0,0.0,0.0,0.0,0.0,0.0,0.0,0.0,0.0,0.0,0.0,0.0,0.0,0.0,0.0,0.0,0.0,0.0,0.0,0.0,0.0,0.0,0.0,0.0,0.0,0.0,0.0,0.0,0.0,0.0,0.0,0.0,0.0,0.0,0.0,0.0,0.0,0.0,0.0,0.0,0.0,0.0,0.0,0.0,0.0,0.0,0.0,2.0029,2.3282,2.567,2.6217,2.6703,2.6726,2.608,2.4476,2.2501,2.0113,0.0,0.0,0.0,0.0,0.0,0.0,0.0,0.0,0.0,0.0,0.0,0.0,0.0,0.0,0.0,0.0,0.0,0.0,0.0,0.0,0.0,0.0,0.0,0.0,0.0,0.0,0.0,0.0,0.0,0.0,0.0,0.0,0.0,0.0,0.0,0.0,0.0,0.0,0.0,0.0,0.0,0.0,0.0,0.0,0.0,0.0,0.0,0.0,0.0,0.0,0.0,0.0,0.0,0.0,0.0,0.0,0.0,0.0,0.0,0.0,0.0,0.0,0.0,0.0,0.0,0.0,0.0,0.0,0.0,0.0,0.0,0.0,0.0,0.0,0.0,0.0,0.0,0.0,0.0,0.0,0.0,0.0,0.0,0.0,0.0,0.0,0.0,0.0,0.0,0.0,0.0,0.0,0.0,0.0,0.0,0.0,0.0,0.0,0.0,0.0,0.0,0.0,2.0565,2.3626,2.5899,2.6424,2.6932,2.7004,2.6536,2.5091,2.3259,2.1098,0.0,0.0,0.0,0.0,0.0,0.0,0.0,0.0,0.0,0.0,0.0,0.0,0.0,0.0,0.0,0.0,0.0,0.0,0.0,0.0,0.0,0.0,0.0,0.0,0.0,0.0,0.0,0.0,0.0,0.0,0.0,0.0,0.0,0.0,0.0,0.0,0.0,0.0,0.0,0.0,0.0,0.0,0.0,0.0,0.0,0.0,0.0,0.0,0.0,0.0,0.0,0.0,0.0,0.0,0.0,0.0,0.0,0.0,0.0,0.0,0.0,0.0,0.0,0.0,0.0,0.0,0.0,0.0,0.0,0.0,0.0,0.0,0.0,0.0,0.0,0.0,0.0,0.0,0.0,0.0,0.0,0.0,0.0,0.0,0.0,0.0,0.0,0.0,0.0,0.0,0.0,0.0,0.0,0.0,0.0,0.0,0.0,0.0,0.0,0.0,0.0,0.0,2.1063,2.3856,2.5922,2.6493,2.6955,2.7027,2.6585,2.5206,2.3641,2.1997,0.0,0.0,0.0,0.0,0.0,0.0,0.0,0.0,0.0,0.0,0.0,0.0,0.0,0.0,0.0,0.0,0.0,0.0,0.0,0.0,0.0,0.0,0.0,0.0,0.0,0.0,0.0,0.0,0.0,0.0,0.0,0.0,0.0,0.0,0.0,0.0,0.0,0.0,0.0,0.0,0.0,0.0,0.0,0.0,0.0,0.0,0.0,0.0,0.0,0.0,0.0,0.0,0.0,0.0,0.0,0.0,0.0,0.0,0.0,0.0,1.9836,0.0,0.0,0.0,0.0,0.0,0.0,0.0,0.0,0.0,0.0,0.0,0.0,0.0,0.0,0.0,0.0,0.0,0.0,0.0,0.0,0.0,0.0,0.0,0.0,0.0,0.0,0.0,0.0,0.0,0.0,0.0,0.0,0.0,0.0,0.0,0.0,0.0,0.0,0.0,0.0,0.0,2.1566,2.4067,2.604,2.6958,2.7142,2.7165,2.705,2.6017,2.4558,2.263,2.0738,0.0,0.0,0.0,0.0,0.0,0.0,0.0,0.0,0.0,0.0,0.0,0.0,0.0,0.0,0.0,0.0,0.0,0.0,0.0,0.0,0.0,0.0,0.0,0.0,0.0,0.0,0.0,0.0,0.0,0.0,0.0,0.0,0.0,0.0,0.0,0.0,0.0,0.0,0.0,0.0,0.0,0.0,0.0,0.0,0.0,0.0,0.0,0.0,0.0,0.0,0.0,0.0,0.0,0.0,0.0,0.0,0.0,0.0,0.0,0.0,2.1107,0.0,0.0,0.0,0.0,0.0,0.0,0.0,0.0,0.0,0.0,0.0,0.0,0.0,0.0,0.0,0.0,0.0,0.0,0.0,0.0,0.0,0.0,0.0,0.0,0.0,0.0,0.0,0.0,0.0,0.0,0.0,0.0,0.0,0.0,0.0,0.0,0.0,0.0,0.0,0.0,2.2399,2.4659,2.6381,2.7119,2.721,2.7333,2.7635,2.6718,2.5793,2.505,2.2804,0.0,0.0,0.0,0.0,0.0,0.0,0.0,0.0,0.0,0.0,0.0,0.0,0.0,0.0,0.0,0.0,0.0,0.0,0.0,0.0,0.0,0.0,0.0,0.0,0.0,0.0,0.0,0.0,0.0,0.0,0.0,0.0,0.0,0.0,0.0,0.0,0.0,0.0,0.0,0.0,0.0,0.0,0.0,0.0,0.0,0.0,0.0,0.0,0.0,0.0,0.0,0.0,0.0,2.6211,2.655,2.6136,2.7043,2.7721,2.8045,2.5603,2.4679,2.4723,2.2194,0.0,0.0,0.0,0.0,0.0,0.0,0.0,0.0,0.0,0.0,0.0,0.0,0.0,0.0,0.0,0.0,0.0,0.0,0.0,0.0,0.0,0.0,0.0,0.0,2.6052,2.6163,2.3341,0.0,0.0,0.0,0.0,0.0,0.0,0.0,0.0,0.0,0.0,0.0,2.3584,2.5596,2.7016,2.7487,2.7534,2.7756,2.8319,2.7541,2.7168,2.7497,2.4962,2.2684,0.0,0.0,0.0,0.0,0.0,0.0,0.0,0.0,0.0,0.0,0.0,0.0,0.0,0.0,0.0,0.0,0.0,0.0,0.0,0.0,0.0,0.0,0.0,0.0,0.0,0.0,0.0,0.0,0.0,0.0,0.0,0.0,2.0928,2.2069,0.0,0.0,0.0,0.0,0.0,0.0,0.0,0.0,0.0,0.0,0.0,0.0,0.0,2.6003,2.7112,2.8774,2.9891,3.0466,3.1679,3.221,3.2154,3.2305,3.2395,3.2464,3.2077,0.0,2.7309,2.5951,0.0,0.0,0.0,0.0,0.0,0.0,0.0,0.0,0.0,0.0,0.0,0.0,0.0,0.0,0.0,0.0,0.0,0.0,0.0,0.0,0.0,0.0,3.0109,2.973,3.0795,3.1461,0.0,2.5944,2.2243,2.1015,2.0424,0.0,0.0,0.0,0.0,0.0,0.0,0.0,2.5345,2.7054,2.8261,2.8797,2.8846,2.8885,2.8964,2.8861,2.8423,2.7625,2.6605,2.4967,2.26,2.1229,0.0,0.0,0.0,0.0,0.0,0.0,0.0,0.0,0.0,0.0,0.0,0.0,0.0,0.0,0.0,0.0,0.0,0.0,0.0,0.0,0.0,0.0,0.0,0.0,0.0,0.0,0.0,0.0,0.0,2.1529,2.3073,2.2883,2.3595,2.3589,0.0,0.0,0.0,0.0,0.0,0.0,0.0,0.0,0.0,2.8043,2.8802,2.9891,3.137,3.2567,3.3287,3.3586,3.4468,3.4693,3.4383,3.4383,3.4383,3.4383,3.4383,3.3668,3.2267,2.9364,2.7861,2.7205,0.0,0.0,0.0,0.0,2.572,2.6214,2.7485,2.773,2.7426,2.7123,0.0,0.0,0.0,0.0,0.0,0.0,0.0,2.6117,2.7411,0.0,3.2034,3.247,3.3388,3.386,3.2755,3.0453,2.765,0.0,2.3514,2.2412,1.9875,0.0,0.0,0.0,0.0,2.5056,2.7083,2.8735,2.9801,3.0027,2.9781,2.9727,3.0083,2.9782,2.9586,2.9502,2.83,2.6993,2.5667,2.2994,2.0702,0.0,0.0,0.0,0.0,0.0,0.0,0.0,0.0,0.0,0.0,0.0,0.0,0.0,0.0,0.0,0.0,0.0,0.0,0.0,0.0,0.0,0.0,0.0,0.0,0.0,0.0,0.0,0.0,2.3647,2.4824,2.4203,2.5678,2.601,0.0,0.0,0.0,0.0,0.0,0.0,2.8509,2.9274,3.0284,3.1668,3.2359,3.3326,3.4684,3.5171,3.5498,3.5667,3.6267,3.6323,3.5892,3.6061,3.6145,3.6145,3.5977,3.6145,3.6276,3.2614,3.1195,3.1116,2.9073,2.826,2.8352,2.9083,2.9531,3.0025,3.1897,3.2258,3.1788,3.1008,2.9936,2.8616,2.6911,0.0,0.0,0.0,0.0,2.9069,3.0701,3.2447,3.403,3.4938,3.5658,3.5901,3.4956,3.4469,3.2825,0.0,2.6919,2.5521,2.2387,0.0,0.0,0.0,0.0,2.753,2.9063,3.0448,3.13,3.13,3.0929,3.0808,3.109,3.0727,3.0618,3.0981,2.9488,2.8412,2.7971,2.4858,2.2463,2.0981,0.0,0.0,0.0,0.0,0.0,0.0,0.0,0.0,0.0,0.0,0.0,0.0,0.0,0.0,0.0,0.0,0.0,0.0,0.0,0.0,0.0,0.0,0.0,0.0,0.0,0.0,0.0,0.0,0.0,2.7318,2.8594,0.0,0.0,0.0,0.0,2.8477,2.9346,3.0683,3.2523,3.3596,3.443,3.4954,3.5555,3.592,3.5986,3.6033,3.6323,3.6914,3.7512,3.7793,3.7793,3.8432,3.8733,3.8677,3.8038,3.7765,3.7653,3.5714,3.5264,3.5639,3.4321,3.3808,3.3808,3.3846,3.4275,3.4918,3.5639,3.5836,3.5808,3.577,3.3769,3.1391,3.1292,2.9991,0.0,0.0,3.1678,3.3294,3.4584,3.6257,3.7641,3.7709,3.8235,3.8516,3.783,3.737,3.5959,0.0,3.0523,2.933,2.7677,0.0,2.7472,2.748,2.8528,2.9905,3.1428,3.2208,3.2619,3.2619,3.2593,3.2358,3.1811,3.1733,3.1517,3.1044,2.9854,2.8915,2.8377,2.7022,2.4909,2.1976,2.1208,0.0,0.0,0.0,0.0,0.0,0.0,0.0,0.0,0.0,0.0,0.0,0.0,0.0,0.0,0.0,0.0,0.0,0.0,0.0,0.0,0.0,0.0,0.0,0.0,0.0,0.0,0.0,0.0,3.0074,3.1655,0.0,3.0611,3.1189,3.1869,3.2338,3.3082,3.3869,3.4654,3.5837,3.6467,3.637,3.7363,3.8086,3.8488,3.8488,3.86,3.8797,3.9022,3.891,3.8544,3.8769,3.8902,3.8902,3.8657,3.8769,3.9058,3.8432,3.7335,3.6033,3.5171,3.4833,3.4833,3.4833,3.5227,3.5864,3.6464,3.6689,3.6689,3.6689,3.5937,3.5059,3.5059,3.4622,3.4187,3.4613,3.5486,3.6342,3.6827,3.7729,3.8544,3.8544,3.8713,3.8825,3.86,3.819,3.7387,3.573,3.3677,3.1732,3.0197,2.9887,2.9637,2.8977,3.0751,3.2462,3.3358,3.4005,3.4371,3.4371,3.3718,3.3195,3.2986,3.2261,3.1582,3.1044,2.9902,2.9165,2.9004,2.7121,2.5477,2.4084,2.25,2.0237,0.0,0.0,0.0,0.0,0.0,0.0,0.0,0.0,0.0,0.0,0.0,0.0,0.0,0.0,0.0,0.0,0.0,0.0,0.0,0.0,0.0,0.0,0.0,0.0,0.0,0.0,3.1916,3.2164,3.3877,3.4528,3.3251,3.3885,3.4812,3.592,3.6349,3.7014,3.8016,3.8778,3.9016,3.8694,3.9429,3.9922,4.0119,4.0119,4.0119,4.0119,4.0294,4.0182,3.9837,4.0034,4.0147,4.0119,3.9922,4.0034,4.0378,4.0182,3.9135,3.7588,3.6989,3.6764,3.6764,3.6764,3.7017,3.742,3.8038,3.8123,3.7954,3.7954,3.7813,3.7645,3.7645,3.7645,3.7645,3.7645,3.8094,3.8524,3.8524,3.9022,3.95,3.95,3.95,3.95,3.95,3.9243,3.8949,3.8653,3.6414,3.414,3.2745,3.2627,3.2437,3.1571,3.3144,3.458,3.492,3.5312,3.5574,3.5574,3.4737,3.4084,3.3875,3.26,3.1641,3.1287,2.9841,2.9083,2.9292,2.7267,2.5758,2.4952,2.2807,2.0703,1.8639,0.0,0.0,0.0,0.0,0.0,0.0,0.0,0.0,0.0,0.0,0.0,0.0,0.0,0.0,0.0,0.0,0.0,0.0,0.0,0.0,0.0,0.0,0.0,2.9697,3.1394,3.289,3.3545,3.527,3.592,3.4702,3.553,3.7014,3.9112,3.9073,4.0052,4.2537,4.2417,4.2181,4.1986,4.1774,4.1362,4.0772,4.0772,4.0744,4.0744,4.1334,4.1593,4.1593,4.2233,4.2565,4.2536,4.1896,4.1593,4.1587,4.0997,4.0772,4.0688,4.009,3.9837,3.9837,3.9837,3.9837,3.995,4.0519,4.035,3.9894,3.9866,3.9444,3.8986,3.8958,3.8958,3.8958,3.8958,3.9388,3.9837,3.9837,4.0238,4.0688,4.0688,4.0688,4.0688,4.0688,4.0688,4.0688,4.0666,3.8693,3.6673,3.5593,3.58,3.5961,3.5438,3.5783,0.0,3.6123,3.6123,3.6123,3.6123,3.5652,3.5077,3.445,3.2835,3.1823,3.1745,2.9666,2.8664,2.9214,2.7549,2.5971,2.4534,2.2352,2.0768,1.9836,0.0,0.0,0.0,0.0,0.0,0.0,0.0,0.0,0.0,0.0,0.0,0.0,0.0,0.0,0.0,0.0,0.0,0.0,0.0,0.0,0.0,3.0233,3.1698,3.1698,3.3744,3.5677,3.678,3.8173,3.8928,3.858,3.9218,3.9943,4.0525,4.0543,4.0853,4.1722,4.2103,4.2116,4.1724,4.2109,4.2255,4.2087,4.2087,4.184,4.1362,4.1509,4.139,4.094,4.1137,4.1446,4.1868,4.1699,4.1896,4.2289,4.2143,4.2087,4.1974,4.0884,4.0435,4.0435,4.0435,4.0716,4.1137,4.1306,4.1559,4.1749,4.125,4.0997,4.0772,4.0322,4.021,4.021,4.021,4.0322,4.0435,4.0435,4.0575,4.0688,4.0688,4.0688,4.0688,4.0688,4.0688,4.058,4.0257,3.9639,3.8917,3.8182,3.7306,3.6618,3.648,3.663,0.0,3.675,3.675,3.675,3.675,3.6227,3.5469,3.4476,3.3613,3.2365,3.0675,2.9614,2.8743,2.8029,2.7512,2.7088,2.6728,2.3808,2.2385,0.0,0.0,0.0,0.0,0.0,0.0,0.0,0.0,0.0,0.0,0.0,0.0,0.0,0.0,0.0,0.0,0.0,0.0,0.0,0.0,0.0,0.0,3.3093,3.4702,3.5224,3.6577,3.7883,3.887,3.9886,4.0408,4.0118,4.0699,4.1308,4.186,4.215,4.2597,4.3236,4.3398,4.3348,4.3059,4.3246,4.3357,4.3357,4.3076,4.2907,4.2772,4.2514,4.2345,4.2233,4.198,4.2064,4.2374,4.2121,4.2374,4.2986,4.2986,4.3132,4.3216,0.0,0.0,0.0,0.0,4.1727,4.2008,4.2008,4.2261,4.2536,4.2149,4.2008,4.1952,4.1587,4.1496,4.1496,4.1496,4.1496,4.1496,4.1496,4.1496,4.1496,4.1496,4.1496,4.1496,4.1496,4.1278,4.0994,4.0733,4.0473,0.0,3.982,3.8716,3.7853,3.7634,3.7661,3.7603,3.74,3.7377,3.7377,3.7377,3.6854,3.6201,3.5547,3.4319,0.0,0.0,0.0,2.8995,2.7542,2.7306,0.0,0.0,0.0,0.0,0.0,0.0,0.0,0.0,2.1428,2.1461,0.0,0.0,0.0,0.0,0.0,0.0,0.0,0.0,0.0,0.0,0.0,0.0,0.0,0.0,0.0,0.0,3.6159,3.8173,3.945,3.9683,3.9886,4.0263,4.0989,4.1192,4.0583,4.1134,4.2005,4.3137,4.3747,4.4647,4.5901,0.0,0.0,0.0,0.0,4.4621,4.4621,4.4088,4.4059,4.4486,4.3975,4.3947,4.4397,4.3863,4.3638,4.3666,4.3132,4.3245,4.3807,4.3807,4.4144,4.4509,4.3295,4.2818,4.2818,4.2818,4.2818,4.2818,4.2818,0.0,0.0,4.2733,4.2705,4.2705,4.2621,4.2593,4.2593,4.2593,4.2593,4.2593,4.2593,4.2593,4.2593,4.2593,4.2593,4.2593,4.2593,4.2121,4.1727,4.1727,4.1221,4.08,4.08,3.9985,3.9158,3.8737,3.858,3.8353,3.7946,3.79,3.79,3.79,3.7429,0.0,3.6907,3.5051,3.3796,3.3613,3.1451,2.9466,2.7768,2.731,2.7096,2.7062,2.7615,2.8127,2.8597,2.9026,2.8729,2.7659,2.37,2.3092,0.0,0.0,0.0,0.0,0.0,0.0,0.0,0.0,0.0,0.0,0.0,0.0,0.0,0.0,0.0,3.768,3.9363,4.0815,4.2092,4.2731,4.2731,4.1831,4.2731,4.3369,4.3274,4.3805,4.4262,4.4523,4.4669,4.5219,4.6316,4.6073,4.6044,4.639,4.6083,4.5914,4.5914,4.583,4.5549,4.5132,4.5019,0.0,4.4401,4.4284,4.4486,4.4935,4.4823,4.5155,4.5745,4.5745,4.583,4.5802,4.4537,4.4059,4.4059,4.4059,4.4059,4.4059,4.4059,4.4059,4.3975,4.3469,4.3329,4.3245,4.2761,4.2593,0.0,4.2593,4.2593,4.2593,4.2593,4.2593,4.2593,4.2593,4.2593,4.2593,4.2593,4.2508,4.2424,4.2424,4.1868,4.1446,4.1446,4.0239,3.9269,3.9158,3.8512,3.7992,3.79,3.79,3.79,3.79,3.7795,3.7325,3.6358,3.5861,3.5025,3.3692,3.1836,3.0268,2.9004,2.8864,2.9002,2.9434,2.9156,2.9256,2.9764,2.9909,2.9756,2.9311,2.7089,2.6542,0.0,0.0,0.0,0.0,0.0,0.0,0.0,0.0,0.0,0.0,0.0,3.3547,3.6181,0.0,3.9164,4.1015,4.2485,4.3589,4.4089,4.4706,4.4574,4.3201,4.3863,4.4349,4.4037,4.4872,4.5395,4.5395,4.5869,4.6397,4.6915,4.6708,4.6633,4.6851,4.6615,4.6357,4.5994,4.5592,4.5328,4.53,4.4991,4.5019,4.5352,4.4991,4.5019,4.5272,4.4991,4.5188,4.583,4.6167,4.6307,4.6223,4.5605,4.5352,4.5324,4.4963,4.4851,4.4795,4.4486,4.4401,4.4369,4.4059,4.3947,4.3891,4.3582,4.3497,4.3497,4.3497,4.3497,4.3497,4.3497,4.3497,4.3497,4.3497,4.3497,4.3497,4.3497,4.3245,4.3071,4.3071,4.2542,4.2093,4.2093,4.0985,3.9912,3.939,3.8917,3.8421,3.7969,3.79,3.79,3.79,3.79,3.7665,3.7063,3.6462,3.5626,3.4528,3.3352,3.2326,3.1489,3.1463,3.1575,3.1843,3.187,3.212,3.2693,3.268,3.2446,3.2016,3.0672,2.9856,0.0,0.0,0.0,0.0,0.0,0.0,0.0,0.0,3.2076,3.4932,3.6497,3.806,4.0493,4.188,4.3002,4.4043,4.5356,4.6177,4.5958,4.6457,4.6424,4.5232,4.5208,4.5171,4.485,4.571,4.6266,4.6266,4.7044,4.7515,4.7582,4.7339,4.7166,4.7118,4.6906,4.6478,4.5807,4.511,4.4991,4.5497,4.4991,4.5324,4.6279,4.5862,4.5665,4.5637,4.5272,4.5384,4.589,4.6448,4.6645,4.6645,4.6645,4.6645,4.656,4.5777,4.5497,4.5412,4.4959,4.479,4.479,4.479,4.4678,4.457,4.457,4.4486,4.4401,4.4401,4.4401,4.4401,4.4401,4.4401,4.4401,4.4401,4.4401,4.4401,4.4401,4.4031,4.3666,4.3666,4.3188,4.2789,4.2789,4.192,4.0835,3.9652,3.9306,3.8872,3.8015,3.79,3.79,3.79,3.79,3.79,3.79,3.7011,3.6175,3.5495,3.4999,3.4424,3.377,3.3764,3.3764,3.3764,3.4293,3.4816,3.5286,3.5418,3.5159,3.4615,3.3929,3.2816,3.0872,3.0579,0.0,3.2192,3.2183,3.2983,0.0,0.0,3.7751,4.1021,4.23,4.3278,4.4772,4.5603,4.6282,4.7005,4.7722,4.8183,4.8142,4.8746,4.9176,4.8979,4.7562,4.6881,4.7666,4.762,4.7602,4.7602,4.7695,4.7872,4.8182,4.7945,4.7726,4.7535,4.7292,4.6862,4.6244,4.6135,4.6111,4.6195,4.6111,4.6167,4.6307,4.6785,4.701,4.701,4.7463,4.7715,4.78,4.7856,4.7884,4.7884,4.7884,4.7884,4.7743,4.6616,4.6195,4.6167,4.6111,4.6083,4.6083,4.6083,4.5665,4.5188,4.5188,4.4823,4.4401,4.4401,4.4401,4.4401,4.4401,4.4401,4.4401,4.4401,4.4401,4.4401,4.4401,4.4369,4.4312,4.4312,4.3807,4.3385,4.3385,4.2857,4.1876,4.0346,3.9285,3.8489,3.7969,3.79,3.79,3.79,3.79,3.79,3.79,3.7769,3.722,3.6096,3.594,3.5443,3.4345,3.4319,3.4319,3.4319,3.4894,3.5234,3.5286,3.6318,3.6428,3.5717,3.609,3.4974,3.5318,0.0,0.0,0.0,3.697,3.7848,4.065,4.1257,4.1947,4.4582,4.5721,4.6617,4.8011,4.8456,4.8827,0.0,5.0168,5.0623,5.0558,5.0433,5.0544,5.106,4.9485,4.8731,4.9583,4.9622,4.9603,4.9603,4.9822,5.0003,5.0153,5.0443,5.0338,4.976,4.977,4.9234,4.8107,4.7957,4.7856,4.7856,4.7856,4.8078,4.8468,4.8721,4.8612,4.8249,4.8137,4.8108,4.8108,4.8108,4.8108,4.8108,4.8108,4.8108,4.7996,4.715,4.6813,4.6785,4.642,4.6307,4.6307,4.6307,4.6111,4.5886,4.5886,4.5717,4.5521,4.5521,4.524,4.4907,4.4907,4.4654,4.4401,4.4401,4.4401,4.4401,4.4401,4.4401,4.4401,4.4401,4.42,4.4031,4.4031,4.3526,4.2701,4.1431,4.0495,3.9654,3.8809,3.8466,3.822,3.7923,3.79,3.79,3.79,3.79,3.7691,3.7194,3.7142,3.6933,3.6462,3.6436,3.6436,3.6436,3.6671,3.6802,3.6802,3.7299,3.7375,3.7051,3.6794,3.6128,3.7792,0.0,0.0,3.9523,4.0754,4.2035,4.3476,4.435,4.5435,4.7378,4.822,4.8965,5.0163,5.039,5.0591,5.1168,5.1803,5.2249,5.2328,5.1897,5.1797,5.2417,5.1357,5.0851,5.1653,5.1335,5.1165,5.1448,5.1743,5.189,5.186,5.2317,5.221,5.138,5.1482,5.0975,4.9739,4.9313,4.9085,4.9085,4.8857,4.9007,4.9481,4.9649,4.9567,4.9232,4.8808,4.864,4.864,4.864,4.864,4.864,4.864,4.8502,4.8305,4.7856,4.7575,4.7378,4.6954,4.6813,4.6813,4.6813,4.6673,4.656,4.656,4.642,4.6307,4.6307,4.597,4.5581,4.5581,4.5268,4.4931,4.4931,4.4766,4.4654,4.4654,4.4514,4.4401,4.4401,4.4401,4.4401,4.4401,4.4059,4.3435,4.2571,4.1957,4.1016,3.9352,3.8709,3.8262,3.7946,3.79,3.79,3.79,3.79,3.79,3.79,3.79,3.79,3.79,3.79,3.79,3.79,3.79,3.79,3.79,3.79,3.79,3.7877,3.7449,3.7243,0.0,0.0,4.043,4.0463,4.2601,4.5063,4.6456,4.7346,4.8285,4.971,5.0034,5.026,5.1024,5.1186,5.1361,5.2055,5.2184,5.2443,5.3148,5.3245,5.3233,5.3252,5.3213,5.3465,0.0,5.2585,5.1876,5.2777,5.2845,5.2819,5.2762,5.2797,5.2402,5.1507,5.1507,5.1211,5.0561,4.9713,4.9297,4.9297,4.8484,4.8137,4.8165,4.8783,4.937,4.9985,4.993,4.993,4.993,4.993,4.993,4.993,4.993,4.9539,4.8953,4.8925,4.8586,4.808,4.8052,4.8052,4.8052,4.8052,4.7631,4.7178,4.7178,4.6757,4.6307,4.6307,4.6279,4.6251,4.6251,4.6251,4.6251,4.6251,4.5774,4.5272,4.5272,4.4795,4.4401,4.4401,4.4401,4.4401,4.4401,4.4397,4.4149,4.3536,4.3446,4.2279,3.9119,3.8237,3.7923,3.79,3.79,3.79,3.79,3.79,3.79,3.79,3.79,3.79,3.79,3.79,3.79,3.79,3.79,3.79,3.79,3.79,3.79,3.7926,3.8425,3.8637,0.0,0.0,4.2844,4.3783,4.5467,4.7281,4.8706,4.9224,4.9677,5.0617,5.083,5.0927,5.1153,5.1218,5.1575,5.2734,5.2929,5.335,5.4515,5.4288,5.3835,5.335,5.3317,0.0,0.0,0.0,0.0,5.426,5.4061,5.4098,5.449,5.4528,5.4148,5.3337,5.2978,5.2453,5.1734,5.1874,5.1954,5.1929,5.1526,5.1078,5.055,5.0354,5.0382,5.0577,5.0155,5.0013,5.0013,5.0013,5.0013,5.0013,5.0013,4.9846,4.9651,4.9651,4.9537,4.9256,4.8389,4.8108,4.8108,4.8108,4.7968,4.78,4.78,4.7659,4.7491,4.7491,4.7207,4.6897,4.6897,4.6588,4.6307,4.6307,4.6139,4.597,4.597,4.544,4.4991,4.4991,4.4654,4.4401,4.4401,4.4401,4.4224,4.3644,4.3179,4.2258,4.051,4.0133,3.9771,3.9095,3.8684,3.8449,3.8449,3.8109,3.79,3.79,3.79,3.79,3.79,3.79,3.79,3.79,3.79,3.8083,3.8449,3.8449,3.8658,3.905,3.9233,3.9311,4.1257,4.3201,4.5176,4.6584,4.7846,4.9062,5.0228,5.0487,5.0552,5.0746,5.083,5.0714,5.0455,5.0422,5.0973,5.2637,5.3123,5.3803,5.5195,5.5053,5.4483,5.377,5.3673,5.3803,0.0,0.0,0.0,5.5617,5.5074,5.497,5.5748,5.5378,5.49,5.4411,5.4111,5.3682,5.3144,5.3293,5.3346,5.328,5.3179,5.2792,5.222,5.185,5.1491,5.1195,5.0802,5.0633,5.0633,5.0633,5.0633,5.0633,5.0633,5.0493,5.0296,5.0296,5.0183,4.9874,4.9061,4.8614,4.8417,4.8417,4.8277,4.8108,4.8108,4.8108,4.8108,4.8108,4.7828,4.7519,4.7519,4.7235,4.6954,4.6954,4.6785,4.6616,4.6616,4.6111,4.5637,4.5637,4.5328,4.5015,4.4766,4.4542,4.428,4.3922,4.3514,4.2721,4.1314,4.0797,4.031,3.9671,3.9259,3.9,3.9,3.871,3.8527,3.8527,3.8527,3.8527,3.8527,3.8527,3.8527,3.8527,3.8527,3.8684,3.9,3.9,3.9233,3.9601,3.9808,3.9886,4.346,4.5435,4.7378,4.872,4.9594,5.0325,5.1056,5.1186,5.0927,5.0196,5.0034,4.9775,0.0,0.0,4.9691,5.175,5.2799,5.3835,5.5259,5.5486,5.5259,0.0,0.0,0.0,0.0,0.0,0.0,5.6775,0.0,5.548,5.6458,5.5356,5.4737,5.4768,5.4737,5.4706,5.4706,5.3975,5.3528,5.3356,5.3331,5.3165,5.2936,5.291,5.2514,5.1787,5.1787,5.1787,5.1787,5.1787,5.1787,5.1787,5.1787,5.1449,5.0942,5.0942,5.0577,5.0097,5.0097,4.9623,4.9063,4.9063,4.867,4.8193,4.8165,4.8137,4.8137,4.8108,4.8108,4.8108,4.8108,4.8108,4.8108,4.8108,4.7659,4.7263,4.7263,4.6785,4.6335,4.6335,4.6307,4.6111,4.5469,4.4879,4.4509,4.4429,4.4406,4.3642,4.1585,4.0427,3.98,3.9751,3.9701,3.9675,3.9651,3.9625,3.9599,3.9599,3.9599,3.9599,3.9599,3.9599,3.9599,3.9599,3.9599,3.9601,3.9627,3.9627,3.9677,3.9703,4.0226,4.0437,4.5532,4.7637,4.9354,4.9742,5.0357,5.0959,5.1153,5.0778,5.0163,4.9432,4.8882,4.8138,0.0,0.0,0.0,5.0455,5.2592,0.0,5.6025,5.6672,0.0,5.6057,0.0,5.6661,5.6251,5.6621,0.0,0.0,5.5942,5.5227,5.6655,5.5447,5.4922,5.5438,5.4952,5.4706,5.4706,5.4979,5.4806,5.4181,5.3633,5.2986,5.2251,5.1699,5.1553,5.1787,5.1787,5.1787,5.1787,5.1787,5.1787,5.1787,5.1787,5.1702,5.1589,5.1589,5.1477,5.1336,5.1336,5.0633,4.9762,4.9762,4.9649,4.9424,4.8923,4.8783,4.8698,4.8221,4.8108,4.8108,4.8108,4.8108,4.8108,4.8108,4.7968,4.7856,4.7856,4.7378,4.6982,4.6982,4.6616,4.6251,4.6083,4.5914,4.5661,4.516,4.4453,4.3721,4.3067,4.2729,4.2289,4.1542,4.1073,4.0639,4.0224,3.981,3.9599,3.9599,3.9599,3.9599,3.9599,3.9599,3.9599,3.9599,3.9599,3.9808,4.02,4.02,4.0411,4.0855,4.101,4.1064,4.741,4.9159,5.0584,5.0584,5.0876,5.1024,5.039,4.9904,4.9141,4.749,4.686,0.0,0.0,0.0,0.0,0.0,0.0,0.0,5.6251,5.7147,5.7568,0.0,5.8065,0.0,5.8389,5.8767,5.9088,0.0,5.6762,5.5703,5.6918,5.5519,5.486,5.5253,5.4891,5.4706,5.4706,5.5076,5.517,5.5013,5.4624,5.4102,5.351,5.3101,5.2704,5.2328,5.2328,5.2112,5.1787,5.1787,5.1787,5.1787,5.1787,5.1787,5.1787,5.1787,5.1787,5.1787,5.1787,5.1364,5.0746,5.0465,5.0212,4.993,4.9539,4.9454,4.937,4.9033,4.8921,4.8864,4.8586,4.8502,4.8445,4.8165,4.8108,4.8108,4.8108,4.7828,4.7575,4.7575,4.7122,4.6701,4.6701,4.6476,4.6167,4.5802,4.4986,4.4415,4.4343,4.3324,4.236,4.182,4.1455,4.1097,4.0801,4.0515,4.0357,4.0357,4.0357,4.0357,4.0357,4.0357,4.0357,4.0357,4.0357,4.0489,4.0776,4.0776,4.0959,4.1299,4.1299,4.1299,4.9076,5.0228,5.1218,5.1218,5.1218,5.083,4.9335,4.885,4.7943,4.5208,0.0,4.3945,4.257,4.4156,4.6374,4.8526,0.0,5.4029,5.6187,5.7309,5.8097,5.8691,5.9468,6.019,6.076,6.0825,6.0697,6.0337,5.8039,5.6834,5.7261,5.5814,5.4983,5.4983,5.4983,5.4983,5.4983,5.4983,5.5199,5.5684,5.5589,5.5487,5.5375,5.5275,5.4391,5.2994,5.2908,5.2427,5.1674,5.1674,5.1674,5.1674,5.1759,5.1787,5.1787,5.1787,5.1787,5.1787,5.1787,5.1787,5.1702,5.1195,5.0661,5.0212,5.0154,5.0125,5.0125,5.0041,5.0013,4.9874,4.9288,4.9148,4.9007,4.8474,4.8277,4.8221,4.8221,4.8165,4.8108,4.8108,4.7659,4.7319,4.7319,4.6897,4.6504,4.642,4.5869,4.5429,4.5345,4.3158,4.1572,4.1498,4.1449,4.1399,4.1324,4.1299,4.1299,4.1299,4.1299,4.1299,4.1299,4.1299,4.1299,4.1299,4.1299,4.1299,4.1299,4.1402,4.1428,4.1428,4.1482,4.1508,5.0455,5.1024,5.1218,5.1218,5.1218,5.083,4.9335,4.8123,0.0,0.0,0.0,4.1888,4.1031,4.3103,4.5662,4.7814,0.0,0.0,0.0,0.0,5.9393,0.0,0.0,0.0,0.0,0.0,0.0,0.0,5.9425,5.8577,5.7755,5.6882,5.6447,5.6447,5.6447,5.6447,5.6447,5.6447,5.62,5.5684,5.5061,5.4763,5.4658,5.4037,5.3466,5.2965,5.2473,5.1799,5.1055,5.1055,5.1055,5.1111,5.1617,5.1787,5.1787,5.1787,5.1787,5.1787,5.1787,5.1787,5.1759,5.1674,5.1589,5.1392,5.0886,5.0746,5.0633,5.0154,5.0013,4.9958,4.9846,4.9818,4.979,4.9705,4.9258,4.8839,4.8839,4.8445,4.8108,4.8108,4.8024,4.794,4.794,4.7856,4.7603,4.7122,4.6578,4.6026,4.5527,4.4135,4.3039,4.2655,4.2239,4.1796,4.1349,4.1299,4.1299,4.1299,4.1299,4.1299,4.1299,4.1299,4.1299,4.1299,4.1299,4.1299,4.1299,4.1794,4.2029,4.2055,4.25,4.271,5.1024,5.1218,5.1218,5.1218,5.0908,5.0034,4.7846,0.0,0.0,0.0,0.0,4.0268,3.9541,0.0,0.0,0.0,0.0,0.0,0.0,0.0,0.0,0.0,0.0,0.0,0.0,0.0,0.0,6.1452,6.1159,6.032,5.8776,5.7825,5.7309,5.7309,5.697,5.681,5.681,5.681,5.6601,5.6262,5.5901,5.5731,5.5682,5.534,5.4845,5.427,5.4001,5.3217,5.2125,5.1707,5.1496,5.1445,5.1385,5.1533,5.1787,5.1787,5.1787,5.1787,5.1787,5.1787,5.1787,5.1787,5.1787,5.1731,5.1477,5.1364,5.1308,5.1027,5.0942,5.0858,5.0549,5.0465,5.038,5.0069,4.9762,4.9511,4.9511,4.9007,4.8586,4.8586,4.8305,4.8108,4.8108,4.8108,4.7996,4.7715,4.7178,4.6693,4.6439,4.533,4.4175,4.3067,4.247,4.2045,4.1794,4.1768,4.1768,4.1768,4.1768,4.1768,4.1768,4.1768,4.1899,4.2161,4.2187,4.2187,4.2187,4.2474,4.2605,4.2605,4.2866,4.2997,5.1153,5.1218,5.1218,5.1218,5.0649,4.9354,4.6471,4.5176,0.0,0.0,3.9361,3.9135,3.8699,0.0,0.0,0.0,0.0,0.0,0.0,0.0,0.0,0.0,0.0,0.0,0.0,0.0,0.0,6.2308,6.211,6.1327,5.9631,5.8579,5.7956,5.7802,5.7278,5.6939,5.681,5.681,5.681,5.681,5.681,5.681,5.681,5.681,5.6317,5.5496,5.537,5.446,5.3001,5.2355,5.1908,5.1561,5.1211,5.1224,5.1449,5.1561,5.1533,5.142,5.142,5.142,5.1449,5.1589,5.1674,5.1787,5.1787,5.1787,5.1787,5.1787,5.1787,5.1674,5.1224,5.1083,5.0942,5.0324,5.0183,5.0155,5.0041,4.9567,4.9176,4.9035,4.8642,4.8249,4.8108,4.8108,4.8108,4.8108,4.7687,4.7378,4.7378,4.6506,4.5328,4.3875,4.3008,4.2497,4.2369,4.2369,4.2369,4.2369,4.2369,4.2369,4.2369,4.2369,4.2552,4.2997,4.2997,4.2997,4.2997,4.3127,4.3206,4.3206,4.331,4.3363,5.1024,5.1218,5.1218,5.1218,5.0649,4.9354,4.6521,0.0,0.0,4.0106,3.8973,3.8681,3.9296,4.0106,0.0,0.0,0.0,0.0,0.0,0.0,0.0,0.0,0.0,0.0,0.0,0.0,6.2308,6.1708,6.1231,6.0584,5.9793,5.9089,5.8418,5.7832,5.774,5.7401,5.681,5.681,5.681,5.681,5.681,5.681,5.681,5.681,5.6317,5.5466,5.4912,5.3738,5.22,5.2122,5.1337,5.0289,5.1335,5.1083,5.0212,5.0774,5.0633,5.0155,5.0155,5.0155,5.024,5.0802,5.1364,5.1787,5.1787,5.1787,5.1787,5.1787,5.1787,5.1787,5.1731,5.1702,5.1589,5.0971,5.083,5.0661,5.0125,4.993,4.9734,4.912,4.8953,4.8754,4.8193,4.8108,4.8108,4.8108,4.8052,4.8024,4.8024,4.751,4.6875,4.6162,4.468,4.3514,4.297,4.2918,4.2918,4.2918,4.2918,4.2918,4.2918,4.2918,4.2945,4.2997,4.2997,4.2997,4.2997,4.3546,4.3834,4.3834,4.433,4.4538,5.0876,5.1218,5.1218,5.1218,5.0293,4.8688,4.5873,0.0,4.2246,3.9412,3.8602,3.8505,3.8778,3.9426,0.0,0.0,0.0,0.0,0.0,0.0,0.0,0.0,0.0,0.0,0.0,0.0,6.2531,6.1658,6.1103,6.0671,6.0424,5.9773,5.928,5.9033,5.8602,5.8264,5.8017,5.7586,5.7401,5.7401,5.6994,5.681,5.681,5.681,5.6616,5.6293,5.6042,5.528,5.425,5.3779,5.2981,5.1989,5.1983,5.1887,5.1777,5.1525,5.1376,5.1178,5.0706,5.0296,5.0041,5.0268,5.0521,5.0858,5.1589,5.1787,5.1787,5.1787,5.1787,5.1787,5.1787,5.1787,5.1731,5.1505,5.1449,5.1392,5.1139,5.0802,5.0465,5.0185,4.9848,4.9398,4.8754,4.8642,4.853,4.8137,4.8108,4.8108,4.8108,4.7931,4.7564,4.7007,4.5404,4.4279,4.4044,4.373,4.352,4.352,4.352,4.352,4.352,4.352,4.3702,4.4016,4.4016,4.4016,4.4016,4.4278,4.4382,4.4382,4.459,4.4695,5.0422,5.1024,5.1218,5.1218,5.0098,4.8267,0.0,0.0,4.181,3.8991,3.8408,3.8408,3.8408,3.9005,4.0106,0.0,0.0,0.0,0.0,0.0,0.0,0.0,0.0,6.0712,0.0,6.2547,6.2358,6.143,6.1026,6.0794,6.0794,6.0332,5.9993,5.9809,5.9341,5.9003,5.8818,5.814,5.7802,5.7771,5.7124,5.681,5.681,5.681,5.681,5.681,5.681,5.6357,5.5608,5.5073,5.4261,5.331,5.2923,5.2622,5.2395,5.204,5.1699,5.1366,5.0594,5.0045,4.9705,4.9705,4.9705,4.9902,5.0942,5.1392,5.1589,5.1731,5.1787,5.1787,5.1787,5.1787,5.1787,5.1787,5.1787,5.1787,5.1787,5.1477,5.1111,5.0942,5.0549,5.0071,4.9426,4.9288,4.9148,4.8724,4.8474,4.8361,4.8361,4.8221,4.7981,4.7571,4.6282,4.5309,4.4969,4.4626,4.4334,4.4147,4.4121,4.4121,4.4121,4.4121,4.4304,4.4695,4.4695,4.4695,4.4695,4.4695,4.4695,4.4695,4.4695,4.4695,4.9515,5.0649,5.1218,5.1218,5.0098,4.8267,0.0,4.3638,4.181,3.8991,3.8408,3.8408,3.8408,3.9005,3.9944,0.0,0.0,0.0,0.0,0.0,0.0,0.0,0.0,5.898,5.9932,6.0987,6.1379,6.0845,6.0794,6.0794,6.0794,6.0794,6.0486,5.9809,5.9778,5.947,5.8818,5.814,5.7802,5.7771,5.7124,5.681,5.681,5.681,5.681,5.681,5.681,5.6317,5.5496,5.5496,5.468,5.347,5.4038,5.3023,5.1286,5.1894,5.1231,4.9928,4.9232,4.9035,4.9009,4.9009,4.9009,4.9148,4.9818,5.0436,5.1027,5.1645,5.1787,5.1787,5.1787,5.1787,5.1787,5.1787,5.1787,5.1787,5.1787,5.1787,5.1617,5.1027,5.0886,5.0689,5.0071,5.0013,5.0013,4.9985,4.9426,4.8981,4.8981,4.8474,4.8108,4.8108,4.7596,4.6821,4.5688,4.5582,4.5315,4.4722,4.4695,4.4695,4.4695,4.4695,4.4695,4.4695,4.4695,4.4695,4.4695,4.4695,4.4695,4.4695,4.4695,4.4695,4.6277,4.7346,4.8141,4.7637,4.6828,4.5629,4.3735,4.2585,4.1257,3.8893,3.8408,3.8408,3.8408,3.857,3.9847,4.3249,0.0,0.0,0.0,0.0,0.0,0.0,5.8605,6.0784,0.0,0.0,6.0975,6.082,6.0794,6.0794,6.0794,6.0794,6.0701,6.0486,6.0486,6.0363,6.0178,5.9064,5.8479,5.8479,5.734,5.681,5.681,5.681,5.681,5.681,5.681,5.664,5.639,5.639,5.5747,5.4845,5.5029,5.437,5.3279,5.2856,5.2172,5.134,5.0565,4.9709,4.8981,4.8981,4.8726,4.8502,4.912,4.9764,5.0296,5.0521,5.0858,5.1195,5.1195,5.1505,5.1787,5.1787,5.1787,5.1787,5.1787,5.1787,5.1731,5.1561,5.1533,5.1336,5.0718,5.0605,5.0465,5.0069,4.9818,4.9679,4.9679,4.9143,4.8768,4.8768,4.8265,4.7617,4.6851,4.606,4.5528,4.5315,4.4911,4.4695,4.4695,4.4695,4.4695,4.4695,4.4695,4.4695,4.4695,4.4695,4.4904,4.5322,4.5741,4.5924,0.0,4.5225,4.6002,4.5532,4.4885,4.401,4.2537,4.1678,4.0657,3.8764,3.8408,3.8408,3.8408,3.8602,3.9735,4.2682,0.0,0.0,0.0,0.0,0.0,5.5879,0.0,0.0,0.0,6.0794,6.0701,6.0424,6.0424,6.0424,6.0424,6.0424,6.0547,6.0794,6.0794,6.0794,6.0794,5.947,5.8818,5.8787,5.7432,5.681,5.681,5.681,5.681,5.681,5.681,5.681,0.0,5.681,5.6464,5.5998,5.5998,5.5471,5.4688,5.4145,5.3493,5.2833,5.2107,5.1116,5.0148,4.9893,4.9375,4.8893,4.9258,4.9846,5.038,5.0605,5.0942,5.1252,5.1252,5.1533,5.1787,5.1787,5.1787,5.1787,5.1787,5.1787,5.1787,5.1787,5.1787,5.1674,5.1308,5.1252,5.1111,5.0746,5.0278,5.0005,5.0005,4.9276,4.8761,4.8761,4.8436,4.8056,4.7665,4.6597,4.5741,4.5287,4.5121,4.493,4.4721,4.493,4.5034,4.5034,4.5034,4.5139,4.5401,4.5401,4.5584,4.595,4.6316,4.6501,0.0,4.3848,4.4464,4.4447,4.3913,4.3071,4.1742,4.0916,0.0,3.8667,3.8408,3.844,3.8537,3.9023,3.9735,4.0707,0.0,0.0,0.0,0.0,0.0,0.0,5.7375,0.0,5.9463,6.031,6.0517,5.9839,5.9778,5.9778,5.9716,5.9747,6.0086,6.0701,6.0763,6.0794,6.0794,5.947,5.8818,5.8787,5.7432,5.681,5.681,5.681,5.681,5.681,5.681,5.681,5.681,5.681,5.681,5.681,5.681,5.6268,5.5496,5.5496,5.4993,5.4215,5.36,5.28,5.201,5.1324,5.0611,5.0013,5.0069,5.0408,5.0942,5.1533,5.1674,5.1731,5.1731,5.1759,5.1787,5.1787,5.1787,5.1787,5.1787,5.1787,5.1787,5.1787,5.1787,5.1787,5.1787,5.1787,5.1787,5.1787,5.0847,5.0132,5.0132,4.9118,4.8382,4.8327,4.8273,4.8245,4.8136,4.7188,4.6084,4.496,4.5375,4.54,4.4852,4.5374,4.5661,4.5661,4.5661,4.595,4.6501,4.6554,4.658,4.658,4.6606,4.6632,3.8329,0.0,4.1402,4.0884,4.0625,4.0398,0.0,3.9847,0.0,0.0,0.0,0.0,0.0,0.0,0.0,0.0,0.0,0.0,4.9289,0.0,0.0,5.9253,5.9427,5.9585,6.0419,6.0686,6.0517,5.9839,5.9778,5.9588,5.9064,5.9501,5.987,6.0024,6.0517,6.0794,6.0794,5.947,5.8818,5.8787,5.7432,5.681,5.681,5.681,5.681,5.681,5.681,5.681,5.681,5.681,5.681,5.681,5.681,5.6268,5.5496,5.5496,5.4993,5.4171,5.3373,5.2656,5.1906,5.068,5.0142,5.0097,5.0549,5.0465,5.024,5.038,5.0746,5.1111,5.1111,5.1449,5.1787,5.1787,5.1787,5.1787,5.1787,5.1787,5.1787,5.1787,5.1787,5.1787,5.1787,5.1787,5.1787,5.1787,5.1565,5.1371,5.1371,5.074,5.0105,4.9631,4.9154,4.8514,4.758,4.7251,4.6991,4.672,4.6437,4.6212,4.6081,4.6212,4.629,4.629,4.629,4.6342,4.6501,4.6917,4.7098,4.7124,4.7571,4.7809,3.6141,3.789,3.9509,3.9491,3.9491,3.9491,3.9491,0.0,0.0,0.0,0.0,0.0,0.0,0.0,0.0,0.0,4.5694,0.0,0.0,0.0,5.7104,6.0132,5.9793,5.9716,6.0701,6.0517,6.0055,5.9403,5.9341,5.9187,5.8818,5.9465,5.9932,6.024,6.0609,6.0794,6.0794,5.947,5.8818,5.8787,5.7432,5.681,5.681,5.681,5.681,5.681,5.681,5.681,5.681,5.681,5.681,5.681,5.681,5.6488,5.6096,5.6096,5.5794,5.5371,5.4912,5.4268,5.3352,5.1447,5.1068,5.1364,5.1331,5.1083,5.083,5.083,5.1055,5.1308,5.1308,5.1561,5.1787,5.1787,5.1787,5.1787,5.1787,5.1787,5.1787,5.1787,5.1787,5.1787,5.1787,5.1787,5.1787,5.1787,5.1568,5.1403,5.1403,5.0878,5.0376,5.0038,4.9444,4.8851,4.8188,4.7872,4.7504,4.6976,4.6878,4.6761,4.6527,4.6734,4.6865,4.6865,4.7127,4.7286,4.7286,4.7571,4.7728,4.7728,4.8041,4.8201,3.5571,3.7094,3.8634,3.907,3.9329,3.9458,0.0,0.0,0.0,0.0,0.0,0.0,0.0,0.0,0.0,0.0,0.0,0.0,5.3733,5.5887,5.7671,5.9655,5.9153,5.9157,6.0363,6.0055,5.9501,5.8849,5.891,5.891,5.8818,5.9465,6.0055,6.064,6.0763,6.0763,6.064,5.9408,5.8818,5.8787,5.7432,5.681,5.681,5.681,5.681,5.681,5.681,5.681,5.681,5.681,5.681,5.681,5.681,5.681,5.681,5.681,5.681,5.6785,5.6664,5.6047,5.4968,5.2863,5.257,5.2861,5.2193,5.1896,5.1787,5.1787,5.1787,5.1787,5.1787,5.1787,5.1787,5.1787,5.1787,5.1787,5.1787,5.1787,5.1787,5.1787,5.1787,5.1787,5.1787,5.1787,5.1787,5.1787,5.1376,5.1045,5.1045,5.06,5.0207,5.001,4.9556,4.9158,4.8986,4.8492,4.7809,4.6841,4.7205,4.7231,4.6789,4.7205,4.7438,4.7438,4.7937,4.8201,4.8201,4.8201,4.8201,4.8201,4.8201,4.8201,3.7242,3.857,3.8976,3.7908,3.857,3.9329,0.0,0.0,0.0,0.0,0.0,0.0,0.0,0.0,0.0,0.0,0.0,5.1634,0.0,0.0,5.6311,5.7978,5.8054,5.8264,5.9033,5.9526,5.9501,5.8849,5.9341,5.9403,5.8849,5.9465,5.9839,5.9932,6.0486,6.0517,5.9963,5.9187,5.8818,5.8787,5.7432,5.681,5.681,5.681,5.681,5.681,5.681,5.681,5.681,5.681,5.681,5.681,5.681,5.681,5.681,5.681,5.681,5.6689,5.5973,5.517,5.4432,5.4045,5.3495,5.2967,5.2861,5.2355,5.1787,5.1787,5.1787,5.1787,5.1787,5.1787,5.1787,5.1787,5.1787,5.1787,5.1787,5.1787,5.1787,5.1787,5.1787,5.1787,5.1787,5.1787,5.1787,5.1787,5.1732,5.165,5.165,5.1568,5.1128,5.0123,4.9925,4.9442,4.8434,4.823,4.8149,4.7966,4.8044,4.8015,4.794,4.8015,4.8041,4.8041,4.8146,4.8201,4.8201,4.8201,4.8201,4.8201,4.8201,4.8201,3.6219,3.7469,3.8296,3.844,4.0124,4.1581,0.0,0.0,0.0,0.0,0.0,0.0,0.0,0.0,0.0,0.0,0.0,5.4889,5.6352,5.6558,5.6941,0.0,5.8282,5.8602,5.928,5.9624,5.9655,5.9372,5.9649,5.968,5.9372,5.9963,6.0332,6.0332,6.064,6.0486,5.9809,5.9157,5.8633,5.8264,5.7247,5.681,5.681,5.681,5.681,5.681,5.681,5.681,5.681,5.681,5.681,5.681,5.681,5.681,5.681,5.681,5.681,5.6689,5.5794,5.5571,5.5496,5.4586,5.43,5.4171,5.3285,5.2728,5.2355,5.1923,5.1787,5.1787,5.1787,5.1787,5.1787,5.1787,5.1787,5.1787,5.1787,5.1787,5.1787,5.1787,5.1787,5.1787,5.1787,5.1787,5.1787,5.1787,5.1787,5.1787,5.1787,5.1513,5.11,5.0544,4.9898,4.9272,4.8753,4.8376,4.8201,4.8201,4.8201,4.8201,4.8201,4.8201,4.8201,4.8201,4.8201,4.8201,4.8201,4.8201,4.8201,4.8201,4.8201,4.8201,3.5668,3.6724,3.7908,3.9361,0.0,0.0,0.0,0.0,0.0,0.0,0.0,0.0,0.0,4.6989,0.0,5.3813,5.5826,5.7067,5.7497,5.7432,5.7516,5.8045,5.8387,5.8787,5.9255,5.9619,5.9778,5.9778,5.9932,6.0024,6.0024,6.0517,6.0794,6.0794,6.064,6.024,5.9562,5.891,5.8325,5.7771,5.7124,5.681,5.681,5.681,5.681,5.681,5.681,5.681,5.681,5.681,5.681,5.681,5.681,5.681,5.681,5.681,5.681,5.6713,5.6047,5.6244,5.6592,5.5295,5.517,5.527,5.399,5.3469,5.3126,5.2301,5.2058,5.2059,5.1841,5.1787,5.1787,5.1787,5.1787,5.1787,5.1787,5.1787,5.1787,5.1787,5.1787,5.1787,5.1787,5.1787,5.1787,5.1787,5.1787,5.1787,5.1787,5.1403,5.1017,5.0739,4.9841,4.9186,4.8899,4.8463,4.8201,4.8201,4.8201,4.8201,4.8201,4.8201,4.8201,4.8201,4.8201,4.8201,4.8201,4.8201,4.8201,4.8201,4.8201,4.8201,3.7598,3.8246,3.8667,4.0059,0.0,0.0,0.0,0.0,0.0,0.0,0.0,0.0,0.0,5.0098,5.3244,5.448,5.6086,5.7032,5.6574,5.6705,5.6889,5.692,5.7487,5.7894,5.7925,5.9095,5.9778,5.9778,6.0363,6.0732,6.0732,6.0763,6.0794,6.0794,6.0178,5.9532,5.8879,5.8202,5.7832,5.7771,5.7124,5.681,5.681,5.681,5.681,5.681,5.681,5.681,5.681,5.681,5.681,5.681,5.681,5.681,5.681,5.681,5.681,5.6785,5.6737,5.6761,5.6785,5.6664,5.6121,5.5471,5.5371,5.4815,5.4045,5.3153,5.2914,5.2728,5.1976,5.1787,5.1787,5.1787,5.1787,5.1787,5.1787,5.1787,5.1787,5.1787,5.1787,5.1787,5.1787,5.1787,5.1787,5.1787,5.1787,5.1787,5.1787,5.1759,5.1321,5.0179,4.9982,4.9471,4.8347,4.8201,4.8201,4.8201,4.8201,4.8201,4.8201,4.8201,4.8201,4.8201,4.8201,4.8201,4.8201,4.8201,4.8201,4.8201,4.8201,4.8201,3.6756,3.7728,3.8732,4.0156,0.0,0.0,0.0,0.0,0.0,0.0,0.0,0.0,0.0,0.0,5.4487,5.5992,5.6806,5.7491,5.8277,5.7463,5.681,5.681,5.7771,5.8418,5.8418,5.9624,6.0424,6.0424,6.0671,6.0794,6.0794,6.0794,6.0794,6.0794,6.0147,5.9495,5.8818,5.7709,5.6939,5.6508,5.6693,5.681,5.681,5.681,5.681,5.681,5.681,5.681,5.681,5.681,5.681,5.681,5.681,5.681,5.681,5.681,5.681,5.681,5.681,5.681,5.681,5.681,5.6592,5.6219,5.5645,5.5295,5.4866,5.4042,5.3416,5.2808,5.2032,5.1787,5.1787,5.1787,5.1787,5.1787,5.1787,5.1787,5.1787,5.1787,5.1787,5.1787,5.1787,5.1787,5.1787,5.1787,5.1787,5.1787,5.1787,5.1486,5.1072,5.0628,4.987,4.91,4.826,4.8201,4.8201,4.8201,4.8201,4.8201,4.8201,4.8201,4.8201,4.8201,4.8201,4.8201,4.8201,4.8201,4.8201,4.8201,4.8201,4.8201,3.6238,3.7163,3.8408,0.0,0.0,0.0,0.0,0.0,0.0,0.0,0.0,0.0,0.0,0.0,0.0,0.0,5.7253,5.7699,5.8871,5.7738,5.681,5.681,5.7986,5.8818,5.8818,5.9993,6.0794,6.0794,6.0794,6.0794,6.0794,6.0794,6.0701,6.0486,5.9649,5.8849,5.8171,5.6816,5.5869,5.5407,5.5899,5.6139,5.6139,5.6139,5.6139,5.6139,5.6139,5.6262,5.6447,5.6447,5.657,5.681,5.681,5.681,5.681,5.681,5.681,5.681,5.681,5.681,5.681,5.681,5.681,5.6689,5.6096,5.5924,5.572,5.4917,5.4068,5.3206,5.2408,5.2004,5.1787,5.1787,5.1787,5.1787,5.1787,5.1787,5.1787,5.1787,5.1787,5.1787,5.1787,5.1787,5.1787,5.1787,5.1787,5.1787,5.1787,5.1431,5.1045,5.0656,4.97,4.8842,4.823,4.8201,4.8201,4.8201,4.8201,4.8201,4.8201,4.8201,4.8201,4.8201,4.8201,4.8201,4.8201,4.8201,4.8201,4.8201,4.8201,4.8201,3.6484,3.6807,0.0,0.0,0.0,0.0,0.0,0.0,0.0,0.0,0.0,0.0,0.0,0.0,0.0,5.683,5.7307,5.7578,5.7783,5.7241,5.681,5.681,5.7986,5.8818,5.8818,5.9993,6.0794,6.0794,6.0794,6.0794,6.0794,6.0794,6.0486,5.9778,5.8479,5.7463,5.681,5.5407,5.4706,5.4706,5.4676,5.4706,5.4706,5.4706,5.4706,5.4706,5.4706,5.5076,5.5684,5.5684,5.6139,5.681,5.681,5.681,5.681,5.681,5.681,5.681,5.681,5.681,5.681,5.681,5.681,5.681,5.681,5.681,5.664,5.5775,5.4942,5.4123,5.3232,5.2408,5.1787,5.1787,5.1787,5.1787,5.1787,5.1787,5.1787,5.1787,5.1787,5.1787,5.1787,5.1787,5.1787,5.1787,5.1787,5.1787,5.1787,5.1787,5.1321,5.0123,4.9444,4.8868,4.823,4.8201,4.8201,4.8201,4.8201,4.8201,4.8201,4.8201,4.8201,4.8201,4.8201,4.8201,4.8201,4.8201,4.8201,4.8201,4.8201,4.8201,3.6354,3.7533,0.0,0.0,0.0,0.0,0.0,0.0,0.0,0.0,0.0,0.0,0.0,0.0,0.0,5.692,5.7331,5.7829,5.8916,5.814,5.7309,5.6871,5.7986,5.8818,5.8818,5.9993,6.0794,6.0794,6.0794,6.0578,6.0116,6.0086,5.9562,5.8418,5.7555,5.6755,5.6046,5.4699,5.3999,5.3999,5.3506,5.3783,5.4706,5.4706,5.4706,5.4706,5.4706,5.4829,5.5014,5.5499,5.6139,5.681,5.681,5.681,5.681,5.681,5.681,5.681,5.681,5.681,5.681,5.681,5.681,5.681,5.681,5.681,5.6761,5.6464,5.5396,5.4252,5.3964,5.2863,5.1787,5.1787,5.1787,5.1787,5.1787,5.1787,5.1787,5.1787,5.1787,5.1787,5.1787,5.1787,5.1787,5.1787,5.1787,5.1787,5.1787,5.1431,5.0878,5.0066,4.9442,4.8866,4.823,4.8201,4.8201,4.8201,4.8201,4.8201,4.8201,4.8201,4.8201,4.8201,4.8201,4.8201,4.8201,4.8201,4.8201,4.8201,4.8201,4.8201,3.7034,0.0,0.0,0.0,0.0,0.0,0.0,0.0,0.0,0.0,0.0,0.0,0.0,5.5419,0.0,5.7611,5.7855,5.8251,5.9423,5.8547,5.774,5.7617,5.8325,5.891,5.9187,6.0178,6.0701,6.0424,6.0393,6.0116,5.9465,5.9157,5.851,5.7432,5.6477,5.5622,5.4914,5.3814,5.3291,5.3291,5.3168,5.3383,5.3906,5.3906,5.3906,5.3937,5.4183,5.4306,5.4368,5.5315,5.5954,5.6385,5.6693,5.681,5.681,5.681,5.681,5.681,5.681,5.681,5.681,5.681,5.681,5.681,5.681,5.681,5.681,5.681,5.5794,5.4713,5.4381,5.3314,5.2193,5.1868,5.1787,5.1787,5.1787,5.1787,5.1787,5.1787,5.1787,5.1787,5.1787,5.1787,5.1787,5.1787,5.1595,5.1431,5.1431,5.0934,5.032,4.9727,4.9328,4.8839,4.823,4.8201,4.8201,4.8201,4.8201,4.8201,4.8201,4.8201,4.8201,4.8201,4.8201,4.8201,4.8201,4.8201,4.8201,4.8201,4.8201,4.8201,0.0,0.0,0.0,0.0,0.0,0.0,0.0,0.0,0.0,0.0,0.0,5.7665,5.7503,5.7174,5.7339,5.8681,5.8671,5.8688,5.9312,5.8492,5.7986,5.8541,5.8664,5.8972,5.9562,6.0209,6.0363,5.9747,5.9686,5.9403,5.8664,5.8048,5.734,5.6539,5.5284,5.4306,5.3629,5.2983,5.2676,5.2706,5.3322,5.3291,5.2676,5.2737,5.2737,5.2737,5.3353,5.3629,5.3783,5.5007,5.5592,5.5745,5.6447,5.6724,5.681,5.681,5.681,5.681,5.681,5.681,5.681,5.681,5.681,5.681,5.681,5.681,5.681,5.681,5.617,5.532,5.4611,5.3704,5.2808,5.2058,5.1841,5.1787,5.1787,5.1787,5.1787,5.1787,5.1787,5.1787,5.1787,5.1787,5.1787,5.1787,5.1321,5.0934,5.0823,5.0348,4.9783,4.9186,4.9043,4.8784,4.823,4.8201,4.8198,4.8306,4.8306,4.8277,4.8329,4.828,4.8201,4.8201,4.8201,4.8201,4.8201,4.8201,4.8254,4.8306,4.8306,4.8332,0.0,3.9847,0.0,0.0,0.0,0.0,0.0,0.0,0.0,0.0,5.7105,5.8044,5.6931,5.7238,5.7958,5.8822,5.8695,5.8556,5.876,5.8206,5.7648,5.7278,5.7678,5.8079,5.8202,5.8849,5.9187,5.9033,5.9033,5.8479,5.7278,5.7093,5.62,5.4422,5.406,5.3599,5.2922,5.2768,5.2676,5.2676,5.2829,5.2829,5.2729,5.3229,5.3199,5.2706,5.2829,5.3199,5.3722,5.3999,5.476,5.5715,5.5869,5.6293,5.681,5.681,5.681,5.681,5.681,5.681,5.681,5.681,5.681,5.681,5.681,5.681,5.681,5.681,5.617,5.5446,5.5295,5.4145,5.2967,5.2781,5.2247,5.1787,5.1787,5.1787,5.1787,5.1787,5.1787,5.1787,5.1787,5.1787,5.1787,5.1787,5.1677,5.1266,5.032,5.0066,4.9812,4.9385,4.8782,4.8347,4.8201,4.8201,4.841,4.8881,4.8907,4.9117,4.9505,4.8698,4.8201,4.8201,4.8201,4.8201,4.8201,4.8201,4.8433,4.8907,4.8907,4.9113,0.0,0.0,0.0,0.0,0.0,0.0,0.0,0.0,0.0,5.6089,5.7623,5.8885,5.8162,5.8431,5.8801,5.8985,5.8905,5.8757,5.8597,5.8113,5.7771,5.7771,5.7771,5.7925,5.8264,5.8602,5.8664,5.8356,5.8017,5.7371,5.6324,5.5677,5.4822,5.3722,5.3383,5.3045,5.2676,5.2676,5.2676,5.2676,5.3014,5.3168,5.3168,5.3199,5.3014,5.2676,5.2676,5.2891,5.326,5.3568,5.4306,5.5253,5.5561,5.617,5.681,5.681,5.681,5.681,5.681,5.681,5.681,5.681,5.7025,5.7217,5.6902,5.7247,5.7678,5.7371,5.7199,5.699,5.6556,5.5811,5.4952,5.4157,5.2835,5.1787,5.1787,5.1787,5.1787,5.1787,5.1787,5.1787,5.1787,5.1787,5.1787,5.1787,5.1486,5.0934,5.0123,4.9499,4.907,4.8839,4.8776,4.8721,4.8721,4.8904,4.9139,4.9453,4.9479,4.9584,4.9871,4.9322,4.9008,4.9008,4.9008,4.9008,4.9008,4.9008,4.9165,4.9479,4.9479,4.961,0.0,0.0,0.0,0.0,0.0,0.0,0.0,0.0,5.651,5.651,5.813,5.95,5.95,5.9531,5.9429,5.8927,5.8902,5.8735,5.8266,5.7886,5.7832,5.8387,5.7956,5.7832,5.8387,5.8448,5.8171,5.7494,5.6909,5.6231,5.5407,5.4276,5.366,5.3537,5.2983,5.2676,5.2676,5.2676,5.2676,5.2706,5.326,5.3537,5.3506,5.2953,5.2676,5.2676,5.2676,5.2676,5.2737,5.3291,5.3937,5.4583,5.513,5.5892,5.6601,5.6601,5.6693,5.681,5.681,5.681,5.6816,5.6909,5.734,5.7709,5.7278,5.7925,5.8695,5.814,5.8387,5.8606,5.7765,5.7453,5.6933,5.5284,5.3422,5.2034,5.2123,5.2151,5.2151,5.2151,5.2012,5.1899,5.1815,5.1787,5.1787,5.1787,5.1238,5.0544,4.9783,4.8811,4.8201,4.8201,4.9113,4.9632,4.9501,4.974,4.9923,5.0054,5.0054,5.008,5.0185,5.0185,5.0185,5.0185,5.0002,4.9897,4.9897,4.9897,4.9949,5.0054,5.0054,5.0106,0.0,0.0,0.0,0.0,0.0,0.0,0.0,0.0,5.651,0.0,5.7687,5.8756,5.8756,5.8944,5.8905,5.8372,5.7981,5.7549,5.7078,5.6957,5.6994,5.7063,5.6994,5.6994,5.7063,5.7087,5.6755,5.6046,5.5899,5.5284,5.4029,5.3783,5.3414,5.2829,5.2737,5.2676,5.2676,5.2676,5.2676,5.2676,5.2768,5.2829,5.2829,5.2737,5.2676,5.2676,5.2676,5.2676,5.2706,5.2799,5.3229,5.3845,5.3937,5.476,5.5862,5.5862,5.6262,5.681,5.681,5.681,5.6902,5.7463,5.7709,5.7894,5.8387,5.8664,5.8787,5.8695,5.8726,5.8639,5.7955,5.7197,5.6256,5.4739,5.3614,5.2936,5.3359,5.3445,5.3445,5.3445,5.2967,5.2405,5.1871,5.1787,5.1787,5.1787,5.1705,5.0851,4.8724,4.8289,4.8201,4.8201,5.0054,5.1021,5.0394,5.0054,5.0106,5.0629,5.0681,5.089,5.1335,5.1361,5.1361,5.1361,5.0394,4.9897,4.9897,4.9897,5.0159,5.0681,5.0681,5.0917,3.9282,4.3006,4.6568,0.0,5.1653,0.0,5.3609,0.0,5.5539,5.6349,5.6996,5.7655,5.8443,5.8836,5.8687,5.7797,5.7252,5.6614,5.5755,5.5622,5.5745,5.6139,5.617,5.6354,5.6779,5.6416,5.6046,5.5715,5.5007,5.4306,5.3722,5.3353,5.2983,5.2706,5.2676,5.2676,5.2676,5.2676,5.2676,5.2676,5.2676,5.2676,5.2676,5.2676,5.2676,5.2676,5.2676,5.2676,5.2676,5.2676,5.3106,5.3691,5.3691,5.4514,5.5684,5.5684,5.617,5.6871,5.7217,5.734,5.7463,5.814,5.8602,5.891,5.8818,5.9316,5.9839,5.9465,5.9649,5.9773,5.9095,5.8633,5.8003,5.6545,5.5489,5.4523,5.3527,5.322,5.3248,5.3641,5.3473,5.3192,5.291,5.263,5.2321,5.1871,5.1787,5.1431,5.0348,5.0208,5.0184,5.0101,5.0995,5.1465,5.1152,5.0943,5.0969,5.123,5.123,5.1335,5.1596,5.1596,5.1596,5.1596,5.11,5.0838,5.0838,5.0838,5.0995,5.123,5.123,5.1361,0.0,0.0,4.5241,4.8479,5.0487,5.1912,0.0,0.0,5.4697,5.5733,5.6251,5.676,5.7732,5.8273,5.8264,5.7331,5.6846,5.6256,5.5362,5.5229,5.5345,5.5653,5.5684,5.5862,5.6231,5.5776,5.5376,5.5191,5.4268,5.3629,5.3445,5.2953,5.2676,5.2676,5.2676,5.2676,5.2676,5.2676,5.2676,5.2676,5.2676,5.2676,5.2676,5.2676,5.2676,5.2676,5.2676,5.2676,5.2676,5.2676,5.2983,5.3445,5.3445,5.4268,5.5438,5.5438,5.6016,5.6902,5.7555,5.7802,5.7925,5.8787,5.9403,5.9716,5.9434,5.9993,6.0701,6.0178,6.0393,6.0609,5.9747,5.9532,5.9073,5.7262,5.6275,5.527,5.3554,5.3192,5.322,5.3416,5.3585,5.3585,5.3276,5.3192,5.2854,5.1927,5.2321,5.2491,5.1818,5.2043,5.2221,5.2125,5.1815,5.1596,5.1596,5.1596,5.1596,5.1596,5.1596,5.1596,5.1596,5.1596,5.1596,5.1596,5.1596,5.1596,5.1596,5.1596,5.1596,5.1596,5.1596,5.1596,0.0,3.9138,0.0,4.6002,4.8641,0.0,0.0,0.0,5.4405,5.4503,5.5571,5.6385,5.6007,5.668,5.7263,5.7209,5.6957,5.6772,5.6717,5.6693,5.6447,5.5776,5.5684,5.5468,5.486,5.4768,5.4491,5.3845,5.3753,5.3414,5.2768,5.2706,5.2676,5.2676,5.2676,5.2676,5.2676,5.2676,5.2676,5.2676,5.2676,5.2676,5.2676,5.2676,5.2676,5.2676,5.2676,5.2676,5.2676,5.2676,5.2706,5.2737,5.2737,5.3568,5.4768,5.4768,5.5622,5.6902,5.7555,5.7802,5.8017,5.9316,5.9747,5.9901,6.0517,6.0732,6.0794,6.0763,6.0763,6.0486,5.9187,5.8849,5.8109,5.5155,5.4447,5.4247,5.3752,5.4119,5.4147,5.2967,5.3276,5.3332,5.2123,5.2882,5.3248,5.1983,5.381,5.442,5.194,5.2708,5.3516,5.3501,5.2342,5.1596,5.1596,5.1596,5.1596,5.1596,5.1596,5.1596,5.1596,5.1596,5.1596,5.1596,5.1596,5.1596,5.1596,5.1596,5.1596,5.1596,5.1596,5.1596,0.0,0.0,0.0,4.3557,4.6504,4.8997,4.9918,5.162,5.3272,5.4211,5.4794,5.5137,5.5174,5.5949,5.632,5.5579,5.51,5.4668,5.4237,5.4176,5.4237,5.4422,5.4422,5.4668,5.5284,5.4952,5.4768,5.4976,5.4206,5.3599,5.3353,5.2922,5.2676,5.2676,5.2676,5.2676,5.2676,5.2676,5.2676,5.2676,5.2676,5.2676,5.2676,5.2676,5.2676,5.2676,5.2676,5.2676,5.2676,5.2676,5.2676,5.2676,5.2676,5.326,5.4122,5.4553,5.5315,5.6324,5.7894,5.8448,5.8664,5.9993,6.0424,6.0486,6.0732,6.0794,6.0794,6.0794,6.0794,6.0486,5.9157,5.8818,5.8048,5.501,5.4045,5.3535,5.2651,5.3304,5.3894,5.3445,5.3866,5.4091,5.3529,5.4203,5.4681,5.4231,5.4934,5.4878,5.3109,5.2558,5.2311,5.2311,5.1877,5.1596,5.1596,5.1596,5.1596,5.1596,5.1596,5.1596,5.1596,5.1596,5.1596,5.1596,5.1596,5.1596,5.1596,5.1596,5.1596,5.1596,5.1596,5.1596,3.4975,0.0,0.0,0.0,0.0,4.6536,4.9141,5.0455,5.162,5.3304,5.3756,5.3902,5.4144,5.4622,5.4904,5.475,5.4468,5.4127,5.3664,5.3466,5.3445,5.366,5.3691,5.3937,5.4637,5.4276,5.4214,5.4668,5.3868,5.3353,5.3353,5.2922,5.2676,5.2676,5.2676,5.2676,5.2676,5.2676,5.2676,5.2676,5.2676,5.2676,5.2676,5.2676,5.2676,5.2676,5.2676,5.2676,5.2676,5.2676,5.2676,5.2676,5.2676,5.3106,5.3783,5.446,5.5106,5.5992,5.8079,5.8818,5.9033,6.0363,6.0794,6.0794,6.0794,6.0794,6.0794,6.0794,6.0794,6.0486,5.9157,5.8249,5.7117,5.4845,5.3811,5.3107,5.2286,5.2939,5.3641,5.3416,5.4007,5.4513,5.4176,5.4512,5.5018,5.544,5.5496,5.4997,5.3561,5.2711,5.2094,5.1659,5.1596,5.1596,5.1596,5.1596,5.1596,5.1596,5.1596,5.1596,5.1596,5.1596,5.1596,5.1596,5.1596,5.1596,5.1596,5.1596,5.1596,5.1596,5.1596,5.1596,0.0,0.0,0.0,0.0,0.0,0.0,4.9469,4.9821,4.9447,5.1653,5.2345,5.2644,5.2912,5.2638,5.2948,5.4721,5.5176,5.5328,5.5328,5.4916,5.4399,5.3753,5.366,5.3414,5.2768,5.2729,5.2737,5.2737,5.2737,5.2729,5.2729,5.2706,5.2676,5.2676,5.2676,5.2676,5.2676,5.2676,5.2676,5.2676,5.2676,5.2676,5.2676,5.2676,5.2676,5.2676,5.2676,5.2676,5.2676,5.2676,5.2676,5.2676,5.2676,5.3106,5.3753,5.4429,5.5076,5.5961,5.8048,5.8787,5.9033,6.0332,6.0794,6.0794,6.0794,6.0794,6.0794,6.0794,6.0794,6.0486,5.9157,5.7176,5.532,5.4509,5.3652,5.298,5.2767,5.3248,5.3529,5.2854,5.3726,5.4429,5.381,5.3754,5.4147,5.5327,5.5496,5.488,5.317,5.3322,5.3109,5.1783,5.1627,5.1627,5.1596,5.1596,5.1596,5.1596,5.1596,5.1596,5.1596,5.1596,5.1596,5.1596,5.1596,5.1596,5.1596,5.1596,5.1596,5.1596,5.1596,5.1596,3.3809,0.0,0.0,0.0,0.0,0.0,0.0,4.417,4.5778,4.917,4.9531,4.9862,5.1911,5.2187,5.2188,5.2407,5.2993,5.3433,5.3433,5.3351,5.3168,5.2983,5.2983,5.3076,5.3383,5.3414,5.3629,5.4122,5.3691,5.3414,5.3414,5.2953,5.2676,5.2676,5.2676,5.2676,5.2676,5.2676,5.2676,5.2676,5.2676,5.2676,5.2676,5.2676,5.2676,5.2676,5.2676,5.2676,5.2676,5.2676,5.2676,5.2676,5.2676,5.2799,5.3045,5.3722,5.4399,5.5199,5.6816,5.7986,5.8941,5.9778,6.0393,6.0794,6.0794,6.0794,6.0794,6.0794,6.0794,6.0486,5.9157,5.7629,5.6072,5.4637,5.4123,5.3696,5.2876,5.3248,5.3641,5.3473,5.4063,5.4513,5.4204,5.4597,5.5102,5.544,5.5496,5.5173,5.4169,5.4196,5.3776,5.2465,5.2311,5.2125,5.1627,5.1596,5.1596,5.1596,5.1596,5.1596,5.1596,5.1596,5.1596,5.1596,5.1596,5.1596,5.1596,5.1596,5.1596,5.1596,5.1596,5.1596,0.0,0.0,0.0,0.0,0.0,0.0,4.1646,4.2427,4.367,4.7746,4.8184,4.8548,5.0721,5.1067,5.1069,5.1097,5.154,5.2026,5.2502,5.2431,5.239,5.2667,5.2676,5.2829,5.3229,5.3291,5.3445,5.3845,5.3506,5.3291,5.3291,5.2891,5.2676,5.2676,5.2676,5.2676,5.2676,5.2676,5.2676,5.2676,5.2676,5.2676,5.2676,5.2676,5.2676,5.2676,5.2676,5.2676,5.2676,5.2676,5.2676,5.2676,5.2676,5.2676,5.2768,5.3445,5.4122,5.4891,5.6324,5.7678,5.891,5.9562,6.024,6.0794,6.0794,6.0794,6.0794,6.0794,6.0609,6.0116,5.9095,5.8017,5.6807,5.5179,5.4535,5.4176,5.3711,5.3669,5.3782,5.4035,5.454,5.4934,5.4821,5.5187,5.5496,5.5496,5.5496,5.5349,5.4969,5.4675,5.4109,5.3109,5.2742,5.2434,5.2063,5.1752,5.1596,5.1596,5.1596,5.1596,5.1596,5.1596,5.1596,5.1596,5.1596,5.1596,5.1596,5.1596,5.1596,5.1596,5.1596,5.1596,0.0,0.0,0.0,0.0,0.0,0.0,4.2747,4.2553,4.2424,4.6323,4.7007,4.7372,4.8874,4.9065,4.9189,4.9712,5.0051,5.0694,5.2022,5.1874,5.1805,5.2421,5.2483,5.2483,5.2483,5.2483,5.2491,5.2583,5.2645,5.2676,5.2676,5.2676,5.2676,5.2676,5.2676,5.2676,5.2676,5.2676,5.2676,5.2676,5.2676,5.2676,5.2676,5.2676,5.2676,5.2676,5.2676,5.2676,5.2676,5.2676,5.2676,5.2676,5.2676,5.2676,5.2768,5.3353,5.3999,5.4768,5.6108,5.7463,5.8695,5.9465,6.0116,6.0701,6.0763,6.0794,6.0794,6.0794,6.0301,5.9655,5.9064,5.8356,5.742,5.5967,5.4951,5.4394,5.4712,5.4202,5.3894,5.4485,5.5074,5.5496,5.5496,5.5496,5.5496,5.5496,5.5496,5.5496,5.5496,5.4969,5.4376,5.3773,5.3105,5.2681,5.2588,5.2001,5.1596,5.1596,5.1596,5.1596,5.1596,5.1596,5.1596,5.1596,5.1596,5.1596,5.1596,5.1596,5.1596,5.1596,5.1596,5.1596,0.0,0.0,0.0,0.0,0.0,0.0,3.8116,3.8771,3.9912,4.1259,4.1559,4.2125,4.4118,4.467,4.4652,4.4264,4.5988,4.8245,5.0672,5.0947,5.0944,5.1067,5.1097,5.1097,5.1097,5.1097,5.1313,5.1867,5.2421,5.2676,5.2676,5.2676,5.2676,5.2676,5.2676,5.2676,5.2676,5.2676,5.2676,5.2676,5.2676,5.2676,5.2676,5.2676,5.2676,5.2676,5.2676,5.2676,5.2676,5.2676,5.2676,5.2676,5.2676,5.2676,5.2729,5.2829,5.3322,5.3999,5.4829,5.6023,5.7371,5.8602,5.9465,6.0086,6.064,6.0794,6.0794,6.0794,6.0301,5.9747,5.9624,5.8726,5.7543,5.6542,5.5279,5.4277,5.419,5.3917,5.3894,5.4485,5.5074,5.5496,5.5496,5.5496,5.5496,5.5496,5.5496,5.5496,5.5496,5.5379,5.5028,5.4378,5.3776,5.3197,5.265,5.2001,5.1596,5.1596,5.1596,5.1596,5.1596,5.1596,5.1596,5.1596,5.1596,5.1596,5.1596,5.1596,5.1596,5.1596,5.1596,5.1596,0.0,0.0,0.0,3.894,0.0,0.0,0.0,3.8308,3.8956,4.0733,4.0561,4.0747,4.3036,4.2985,4.2835,4.3494,4.5003,4.6573,4.7958,4.9343,5.0349,5.0667,5.0697,5.0697,5.0697,5.0697,5.082,5.119,5.1498,5.1867,5.2206,5.2206,5.2359,5.2676,5.2676,5.2676,5.2676,5.2676,5.2676,5.2676,5.2676,5.2676,5.2676,5.2676,5.2676,5.2676,5.2676,5.2676,5.2676,5.2676,5.2676,5.2676,5.2676,5.2676,5.2676,5.2676,5.3106,5.3814,5.446,5.5622,5.7001,5.8356,5.9249,5.9932,6.0609,6.0794,6.0794,6.0794,6.0547,6.0209,5.987,5.9311,5.8533,5.7403,5.5969,5.4848,5.5017,5.4336,5.3979,5.485,5.5299,5.5496,5.5496,5.5496,5.5496,5.5496,5.5496,5.5496,5.5496,5.5496,5.5379,5.5028,5.4164,5.347,5.3136,5.2187,5.1596,5.1596,5.1596,5.1596,5.1596,5.1596,5.1596,5.1596,5.1596,5.1596,5.1596,5.1596,5.1596,5.1596,5.1596,5.1596,0.0,0.0,0.0,0.0,0.0,3.9509,0.0,0.0,0.0,4.0624,4.0213,4.0076,4.1987,4.1372,4.1155,4.2774,4.3944,4.4572,4.4449,4.6808,4.881,4.962,5.0051,5.0236,5.0112,4.9989,5.0082,5.0482,5.0266,5.0513,5.1467,5.1498,5.1805,5.2513,5.2491,5.2553,5.2676,5.2676,5.2676,5.2676,5.2676,5.2676,5.2676,5.2676,5.2676,5.2676,5.2676,5.2676,5.2676,5.2676,5.2676,5.2676,5.2676,5.2676,5.2676,5.2676,5.3045,5.3599,5.4276,5.5407,5.6816,5.8171,5.9249,6.0086,6.064,6.0794,6.0794,6.0794,6.0794,6.0671,6.0116,5.9901,5.9526,5.8448,5.6696,5.5453,5.5993,5.484,5.4035,5.5102,5.5412,5.5496,5.5496,5.5496,5.5496,5.5496,5.5496,5.5496,5.5496,5.5496,5.5496,5.5496,5.4373,5.3592,5.3592,5.2373,5.1596,5.1596,5.1596,5.1596,5.1596,5.1596,5.1596,5.1596,5.1596,5.1596,5.1596,5.1596,5.1596,5.1596,5.1596,5.1596,0.0,0.0,0.0,0.0,4.2509,0.0,0.0,0.0,3.887,3.6993,0.0,0.0,0.0,0.0,0.0,3.7369,3.9493,4.0891,4.0276,4.2558,4.4745,4.6038,4.7742,4.8604,4.8019,4.7404,4.7835,4.9672,4.8666,4.8789,5.0697,5.082,5.1128,5.1805,5.1805,5.2113,5.2676,5.2676,5.2676,5.2676,5.2676,5.2676,5.2676,5.2676,5.2676,5.2676,5.2676,5.2676,5.2676,5.2676,5.2676,5.2676,5.2676,5.2676,5.2676,5.2676,5.2737,5.2891,5.3568,5.4699,5.6077,5.7463,5.9187,6.0701,6.0763,6.0794,6.0794,6.0794,6.0794,6.0794,6.0701,6.024,5.9747,5.9593,5.7359,5.548,5.6046,5.4868,5.3894,5.4569,5.5131,5.5496,5.5496,5.5496,5.5496,5.5496,5.5496,5.5496,5.5496,5.5496,5.5496,5.5496,5.4373,5.3592,5.3592,5.2373,5.1596,5.1596,5.1596,5.1596,5.1596,5.1596,5.1596,5.1596,5.1596,5.1596,5.1596,5.1596,5.1596,5.1596,5.1596,5.1596,0.0,0.0,0.0,0.0,0.0,0.0,3.916,0.0,3.8068,0.0,0.0,0.0,0.0,0.0,0.0,0.0,3.8922,0.0,3.9014,4.094,4.2805,4.3741,4.4603,4.5464,4.6357,4.6172,4.6696,4.8358,4.7219,4.7311,4.9374,4.9897,5.042,5.1097,5.1498,5.1836,5.2113,5.2513,5.2676,5.2676,5.2676,5.2676,5.2676,5.2676,5.2676,5.2676,5.2676,5.2676,5.2676,5.2676,5.2676,5.2676,5.2676,5.2676,5.2676,5.2676,5.2676,5.2799,5.3476,5.4576,5.6053,5.8264,5.9778,6.0794,6.0794,6.0794,6.0794,6.0794,6.0794,6.0701,6.0301,5.9993,5.9593,5.8818,5.7294,5.5998,5.6126,5.5224,5.4543,5.5049,5.5327,5.5496,5.5496,5.5496,5.5496,5.5496,5.5496,5.5496,5.5496,5.5496,5.5496,5.5496,5.4373,5.3592,5.3592,5.2373,5.1596,5.1596,5.1596,5.1596,5.1596,5.1596,5.1596,5.1596,5.1596,5.1596,5.1596,5.1596,5.1596,5.1596,5.1596,5.1596,4.4415,0.0,0.0,0.0,0.0,0.0,0.0,0.0,0.0,0.0,0.0,0.0,0.0,0.0,0.0,0.0,0.0,3.8922,0.0,3.9247,0.0,0.0,0.0,4.2971,4.4603,4.4264,4.4726,4.6634,4.5372,4.5618,4.8204,4.882,4.9497,5.0389,5.1067,5.1498,5.1713,5.2359,5.2676,5.2676,5.2676,5.2676,5.2676,5.2676,5.2676,5.2676,5.2676,5.2676,5.2676,5.2676,5.2676,5.2676,5.2676,5.2676,5.2676,5.2676,5.2676,5.2799,5.3476,5.4699,5.6416,5.8947,5.9993,6.024,6.024,6.024,6.024,6.024,6.024,6.0116,5.9624,5.9526,5.928,5.8294,5.7394,5.668,5.6418,5.5729,5.522,5.5474,5.5496,5.5496,5.5496,5.5496,5.5496,5.5496,5.5496,5.5496,5.5496,5.5496,5.5437,5.5261,5.4254,5.3531,5.3349,5.228,5.1596,5.1596,5.1596,5.1596,5.1596,5.1596,5.1596,5.1596,5.1596,5.1596,5.1596,5.1596,5.1596,5.1596,5.1596,5.1596,0.0,0.0,0.0,4.3654,0.0,0.0,0.0,0.0,3.9646,0.0,0.0,0.0,0.0,0.0,0.0,0.0,0.0,0.0,0.0,0.0,0.0,0.0,0.0,0.0,4.2633,4.0861,4.1093,4.4437,4.2848,4.3464,4.7434,4.765,4.8296,4.9703,5.0389,5.1036,5.1682,5.2359,5.2676,5.2676,5.2676,5.2676,5.2676,5.2676,5.2676,5.2676,5.2676,5.2676,5.2676,5.2676,5.2676,5.2676,5.2676,5.2676,5.2676,5.2676,5.2676,5.2799,5.3476,5.5037,5.7093,5.9157,5.9403,5.8879,5.8879,5.8879,5.8879,5.8879,5.8879,5.8879,5.8849,5.8849,5.8818,5.8787,5.8121,5.7393,5.7151,5.6453,5.5764,5.553,5.5496,5.5496,5.5496,5.5496,5.5496,5.5496,5.5496,5.5496,5.5496,5.5496,5.5261,5.4586,5.3956,5.3349,5.2681,5.2001,5.1596,5.1596,5.1596,5.1596,5.1596,5.1596,5.1596,5.1596,5.1596,5.1596,5.1596,5.1596,5.1596,5.1596,5.1596,5.1596,4.872,4.9174,4.8915,4.5548,0.0,0.0,0.0,0.0,0.0,0.0,0.0,0.0,0.0,0.0,0.0,0.0,0.0,0.0,0.0,0.0,0.0,0.0,0.0,0.0,0.0,3.9661,4.0553,4.3094,4.2232,4.3156,4.6757,4.7373,4.8019,4.8943,5.0112,5.082,5.1036,5.2144,5.2676,5.2676,5.2676,5.2676,5.2676,5.2676,5.2676,5.2676,5.2676,5.2676,5.2676,5.2676,5.2676,5.2676,5.2676,5.2676,5.2676,5.2676,5.2676,5.2922,5.4491,5.5807,5.7063,5.8633,5.9003,5.8818,5.8818,5.8818,5.8818,5.8818,5.8818,5.8695,5.8264,5.814,5.8017,5.7586,5.7604,5.7461,5.661,5.6571,5.6464,5.5674,5.5496,5.5496,5.5496,5.5496,5.5496,5.5496,5.5496,5.5496,5.5496,5.5496,5.5261,5.4556,5.3956,5.3319,5.265,5.2001,5.1596,5.1596,5.1596,5.1596,5.1596,5.1596,5.1596,5.1596,5.1596,5.1596,5.1596,5.1596,5.1596,5.1596,5.1596,5.1596,4.9465,4.9724,4.9483,4.686,4.5873,0.0,4.1294,0.0,4.1808,0.0,0.0,0.0,0.0,0.0,0.0,0.0,0.0,0.0,0.0,3.409,0.0,0.0,0.0,0.0,0.0,0.0,3.9107,4.1661,4.1247,4.2325,4.573,4.6757,4.7558,4.8214,4.9835,5.0697,5.0697,5.2021,5.2676,5.2676,5.2676,5.2676,5.2676,5.2676,5.2676,5.2676,5.2676,5.2829,5.3045,5.2799,5.2829,5.3014,5.2768,5.2676,5.2676,5.2676,5.3137,5.3991,5.5561,5.6546,5.7278,5.8171,5.8294,5.8079,5.8079,5.8079,5.8079,5.8079,5.8079,5.7986,5.7555,5.7432,5.734,5.6902,5.7494,5.7759,5.6397,5.6846,5.7086,5.5761,5.5496,5.5496,5.5496,5.5496,5.5496,5.5496,5.5496,5.5496,5.5496,5.5496,5.5173,5.4286,5.3833,5.3227,5.2311,5.1846,5.1596,5.1596,5.1596,5.1596,5.1596,5.1596,5.1596,5.1596,5.1596,5.1596,5.1596,5.1596,5.1596,5.1596,5.1596,5.1596]}]]